[[{"header":{"parameterUnit":"m.s-1","parameterCategory":1,"la1":31.0,"la2":29.5877,"lo1":-88.7671,"lo2":-86.6584,"dx":0.0162,"dy":0.0185,"nx":115,"ny":88,"refTime":"2022-12-26T06:00:00:Z","depth":0,"parameterNumber":2,"parameterNumberName":"U-component_of_WINDS"},"data":[0.0,0.0,0.0,0.0,0.0,0.0,0.0,0.0,0.0,0.0,0.0,0.0,0.0,0.0,0.0,0.0,0.0,0.0,0.0,0.0,0.0,0.0,0.0,0.0,0.0,0.0,0.0,0.0,0.0,0.0,0.0,0.0,0.0,0.0,0.0,0.0,0.0,0.0,0.0,0.0,0.0,0.0,0.0,0.0,0.0,0.0,0.0,0.0,0.0,0.0,0.0,0.0,0.0,0.0,0.0,0.0,0.0,0.0,0.0,0.0,0.0,0.0,0.0,0.0,0.0,0.0,0.0,0.0,0.0,0.0,0.0,0.0,0.0,0.0,0.0,0.0,0.0,0.0,0.0,0.0,0.0,0.0,0.0,0.0,0.0,0.0,0.0,0.0,0.0,0.0,0.0,0.0,0.0,0.0,0.0,0.0,0.0,0.0,0.0,0.0,0.0,0.0,0.0,0.0,0.0,0.0,0.0,0.0,0.0,0.0,0.0,0.0,0.0,0.0,0.0,0.0,0.0,0.0,0.0,0.0,0.0,0.0,0.0,0.0,0.0,0.0,0.0,0.0,0.0,0.0,0.0,0.0,0.0,0.0,0.0,0.0,0.0,0.0,0.0,0.0,0.0,0.0,0.0,0.0,0.0,0.0,0.0,0.0,0.0,0.0,0.0,0.0,0.0,0.0,0.0,0.0,0.0,0.0,0.0,0.0,0.0,0.0,0.0,0.0,0.0,0.0,0.0,0.0,0.0,0.0,0.0,0.0,0.0,0.0,0.0,0.0,0.0,0.0,0.0,0.0,0.0,0.0,0.0,0.0,0.0,0.0,0.0,0.0,0.0,0.0,0.0,0.0,0.0,0.0,0.0,0.0,0.0,0.0,0.0,0.0,0.0,0.0,0.0,0.0,0.0,0.0,0.0,0.0,0.0,0.0,0.0,0.0,0.0,0.0,0.0,0.0,0.0,0.0,0.0,0.0,0.0,0.0,0.0,0.0,0.0,0.0,0.0,0.0,0.0,0.0,0.0,0.0,0.0,0.0,0.0,0.0,0.0,0.0,0.0,0.0,0.0,0.0,0.0,0.0,0.0,0.0,0.0,0.0,0.0,0.0,0.0,0.0,0.0,0.0,0.0,0.0,0.0,0.0,0.0,0.0,0.0,0.0,0.0,0.0,0.0,0.0,0.0,0.0,0.0,0.0,0.0,0.0,0.0,0.0,0.0,0.0,0.0,0.0,0.0,0.0,0.0,0.0,0.0,0.0,0.0,0.0,0.0,0.0,0.0,0.0,0.0,0.0,0.0,0.0,0.0,0.0,0.0,0.0,0.0,0.0,0.0,0.0,0.0,0.0,0.0,0.0,0.0,0.0,0.0,0.0,0.0,0.0,0.0,0.0,0.0,0.0,0.0,0.0,0.0,0.0,0.0,0.0,0.0,0.0,0.0,0.0,0.0,0.0,0.0,0.0,0.0,0.0,0.0,0.0,0.0,0.0,0.0,0.0,0.0,0.0,0.0,0.0,0.0,0.0,0.0,0.0,0.0,0.0,0.0,0.0,0.0,0.0,0.0,0.0,0.0,0.0,0.0,0.0,0.0,0.0,0.0,0.0,0.0,0.0,0.0,0.0,0.0,0.0,0.0,0.0,0.0,0.0,0.0,0.0,0.0,0.0,0.0,0.0,0.0,0.0,0.0,0.0,0.0,0.0,0.0,0.0,0.0,0.0,0.0,0.0,0.0,0.0,0.0,0.0,0.0,0.0,0.0,0.0,0.0,0.0,0.0,0.0,0.0,0.0,0.0,0.0,0.0,0.0,0.0,0.0,0.0,0.0,0.0,0.0,0.0,0.0,0.0,0.0,0.0,0.0,0.0,0.0,0.0,0.0,0.0,0.0,0.0,0.0,0.0,0.0,0.0,0.0,0.0,0.0,0.0,0.0,0.0,0.0,0.0,0.0,0.0,0.0,0.0,0.0,0.0,0.0,0.0,0.0,0.0,0.0,0.0,0.0,0.0,0.0,0.0,0.0,0.0,0.0,0.0,0.0,0.0,0.0,0.0,0.0,0.0,0.0,0.0,0.0,0.0,0.0,0.0,0.0,0.0,0.0,0.0,0.0,0.0,0.0,0.0,0.0,0.0,0.0,0.0,0.0,0.0,0.0,0.0,0.0,0.0,0.0,0.0,0.0,0.0,0.0,0.0,0.0,0.0,0.0,0.0,0.0,0.0,0.0,0.0,0.0,0.0,0.0,0.0,0.0,0.0,0.0,0.0,0.0,0.0,0.0,0.0,0.0,0.0,0.0,0.0,0.0,0.0,0.0,0.0,0.0,0.0,0.0,0.0,0.0,0.0,0.0,0.0,0.0,0.0,0.0,0.0,0.0,0.0,0.0,0.0,0.0,0.0,0.0,0.0,0.0,0.0,0.0,0.0,0.0,0.0,0.0,0.0,0.0,0.0,0.0,0.0,0.0,0.0,0.0,0.0,0.0,0.0,0.0,0.0,0.0,0.0,0.0,0.0,0.0,0.0,0.0,0.0,0.0,0.0,0.0,0.0,0.0,0.0,0.0,0.0,0.0,0.0,0.0,0.0,0.0,0.0,0.0,0.0,0.0,0.0,0.0,0.0,0.0,0.0,0.0,0.0,0.0,0.0,0.0,0.0,0.0,0.0,0.0,0.0,0.0,0.0,0.0,0.0,0.0,0.0,0.0,0.0,0.0,0.0,0.0,0.0,0.0,0.0,0.0,0.0,0.0,0.0,0.0,0.0,0.0,0.0,0.0,0.0,0.0,0.0,0.0,0.0,0.0,0.0,0.0,0.0,0.0,0.0,0.0,0.0,0.0,0.0,0.0,0.0,0.0,0.0,0.0,0.0,0.0,0.0,0.0,0.0,0.0,0.0,0.0,0.0,0.0,0.0,0.0,0.0,0.0,0.0,0.0,0.0,0.0,0.0,0.0,0.0,0.0,0.0,0.0,0.0,0.0,0.0,0.0,0.0,0.0,0.0,0.0,0.0,0.0,0.0,0.0,0.0,0.0,0.0,0.0,0.0,0.0,0.0,0.0,0.0,0.0,0.0,0.0,0.0,0.0,0.0,0.0,0.0,0.0,0.0,0.0,0.0,0.0,0.0,0.0,0.0,0.0,0.0,0.0,0.0,0.0,0.0,0.0,0.0,0.0,0.0,0.0,0.0,0.0,0.0,0.0,0.0,0.0,0.0,0.0,0.0,0.0,0.0,0.0,0.0,0.0,0.0,0.0,0.0,0.0,0.0,0.0,0.0,0.0,0.0,0.0,0.0,0.0,0.0,0.0,0.0,0.0,0.0,0.0,0.0,0.0,0.0,0.0,0.0,0.0,0.0,0.0,0.0,0.0,0.0,0.0,0.0,0.0,0.0,0.0,0.0,0.0,0.0,0.0,0.0,0.0,0.0,0.0,0.0,0.0,0.0,0.0,0.0,0.0,0.0,0.0,0.0,0.0,0.0,0.0,0.0,0.0,0.0,0.0,0.0,0.0,0.0,0.0,0.0,0.0,0.0,0.0,0.0,0.0,0.0,0.0,0.0,0.0,0.0,0.0,0.0,0.0,0.0,0.0,0.0,0.0,0.0,0.0,0.0,0.0,0.0,0.0,0.0,0.0,0.0,0.0,0.0,0.0,0.0,0.0,0.0,0.0,0.0,0.0,0.0,0.0,0.0,0.0,0.0,0.0,0.0,0.0,0.0,0.0,0.0,0.0,0.0,0.0,0.0,0.0,0.0,0.0,0.0,0.0,0.0,0.0,0.0,0.0,0.0,0.0,0.0,0.0,0.0,0.0,0.0,0.0,0.0,0.0,0.0,0.0,0.0,0.0,0.0,0.0,0.0,0.0,0.0,0.0,0.0,0.0,0.0,0.0,0.0,0.0,0.0,0.0,0.0,0.0,0.0,0.0,0.0,0.0,0.0,0.0,0.0,0.0,0.0,0.0,0.0,0.0,0.0,0.0,0.0,0.0,0.0,0.0,0.0,0.0,0.0,0.0,0.0,0.0,0.0,0.0,0.0,0.0,0.0,0.0,0.0,0.0,0.0,0.0,0.0,0.0,0.0,0.0,0.0,0.0,0.0,0.0,0.0,0.0,0.0,0.0,0.0,0.0,0.0,0.0,0.0,0.0,0.0,0.0,0.0,0.0,0.0,0.0,0.0,0.0,0.0,0.0,0.0,0.0,0.0,0.0,0.0,0.0,0.0,0.0,0.0,0.0,0.0,0.0,0.0,0.0,0.0,0.0,-1.7677,0.0,0.0,0.0,-1.6145,0.0,0.0,0.0,0.0,0.0,0.0,0.0,0.0,0.0,0.0,0.0,0.0,0.0,0.0,0.0,0.0,0.0,0.0,0.0,0.0,0.0,0.0,0.0,0.0,0.0,0.0,0.0,0.0,0.0,0.0,0.0,0.0,0.0,0.0,0.0,0.0,0.0,0.0,0.0,0.0,0.0,0.0,0.0,0.0,0.0,0.0,0.0,0.0,0.0,0.0,0.0,0.0,0.0,0.0,0.0,0.0,0.0,0.0,0.0,0.0,0.0,0.0,0.0,0.0,0.0,0.0,0.0,0.0,0.0,0.0,0.0,0.0,0.0,0.0,0.0,0.0,0.0,0.0,0.0,0.0,0.0,0.0,0.0,0.0,0.0,0.0,0.0,0.0,0.0,0.0,0.0,0.0,0.0,0.0,0.0,0.0,0.0,0.0,0.0,0.0,0.0,0.0,0.0,0.0,0.0,0.0,0.0,0.0,0.0,0.0,-1.7375,-1.655,-1.8179,-1.813,-1.6245,0.0,0.0,0.0,0.0,0.0,0.0,0.0,0.0,0.0,0.0,0.0,0.0,0.0,0.0,0.0,0.0,0.0,0.0,0.0,0.0,0.0,0.0,0.0,0.0,0.0,0.0,0.0,0.0,0.0,0.0,0.0,0.0,0.0,0.0,0.0,0.0,0.0,0.0,0.0,0.0,0.0,0.0,0.0,0.0,0.0,0.0,0.0,0.0,0.0,0.0,0.0,0.0,0.0,0.0,0.0,0.0,0.0,0.0,0.0,0.0,0.0,0.0,0.0,0.0,0.0,0.0,0.0,0.0,0.0,0.0,0.0,0.0,0.0,0.0,0.0,0.0,0.0,0.0,0.0,0.0,0.0,0.0,0.0,0.0,0.0,0.0,0.0,0.0,0.0,0.0,0.0,0.0,0.0,0.0,0.0,0.0,0.0,0.0,0.0,0.0,0.0,0.0,0.0,0.0,0.0,0.0,0.0,0.0,0.0,0.0,0.0,0.0,-1.8555,-1.8632,-1.6977,0.0,0.0,0.0,0.0,0.0,0.0,0.0,0.0,0.0,0.0,0.0,0.0,0.0,0.0,0.0,0.0,0.0,0.0,0.0,0.0,0.0,0.0,0.0,0.0,0.0,0.0,0.0,0.0,0.0,0.0,0.0,0.0,0.0,0.0,0.0,0.0,0.0,0.0,0.0,0.0,0.0,0.0,0.0,0.0,0.0,0.0,0.0,0.0,0.0,0.0,0.0,0.0,0.0,0.0,0.0,0.0,0.0,0.0,0.0,0.0,0.0,0.0,0.0,0.0,0.0,0.0,0.0,0.0,0.0,0.0,0.0,0.0,0.0,0.0,0.0,0.0,0.0,0.0,0.0,0.0,0.0,0.0,0.0,0.0,0.0,0.0,0.0,0.0,0.0,0.0,0.0,0.0,0.0,0.0,0.0,0.0,0.0,0.0,0.0,0.0,0.0,0.0,0.0,0.0,0.0,0.0,0.0,0.0,0.0,0.0,-1.6547,-1.8003,-1.8254,0.0,-1.803,0.0,0.0,0.0,0.0,0.0,0.0,0.0,0.0,0.0,0.0,0.0,0.0,0.0,0.0,0.0,0.0,0.0,0.0,0.0,0.0,0.0,0.0,0.0,0.0,0.0,0.0,0.0,0.0,0.0,0.0,0.0,0.0,0.0,0.0,0.0,0.0,0.0,0.0,0.0,0.0,0.0,0.0,0.0,0.0,0.0,0.0,0.0,0.0,0.0,0.0,0.0,0.0,0.0,0.0,0.0,0.0,0.0,0.0,0.0,0.0,0.0,0.0,0.0,0.0,0.0,0.0,0.0,0.0,0.0,0.0,0.0,0.0,0.0,0.0,0.0,0.0,0.0,0.0,0.0,0.0,0.0,0.0,0.0,0.0,0.0,0.0,0.0,0.0,0.0,0.0,0.0,0.0,0.0,0.0,0.0,0.0,0.0,0.0,0.0,0.0,0.0,0.0,0.0,0.0,0.0,0.0,0.0,0.0,0.0,0.0,-1.6823,-1.8179,-1.7903,-1.7517,0.0,0.0,0.0,0.0,0.0,0.0,0.0,0.0,0.0,0.0,0.0,0.0,0.0,0.0,0.0,0.0,0.0,0.0,0.0,0.0,0.0,0.0,0.0,0.0,0.0,0.0,0.0,0.0,0.0,0.0,0.0,0.0,0.0,0.0,0.0,0.0,0.0,0.0,0.0,0.0,0.0,0.0,0.0,0.0,0.0,0.0,0.0,0.0,0.0,0.0,0.0,0.0,0.0,0.0,0.0,0.0,0.0,0.0,0.0,0.0,0.0,0.0,0.0,0.0,0.0,0.0,0.0,0.0,0.0,0.0,0.0,0.0,0.0,0.0,0.0,0.0,0.0,0.0,0.0,0.0,0.0,0.0,0.0,0.0,0.0,0.0,0.0,0.0,0.0,0.0,0.0,0.0,0.0,0.0,0.0,0.0,0.0,0.0,0.0,0.0,0.0,0.0,0.0,0.0,0.0,0.0,0.0,0.0,0.0,0.0,-1.645,-1.7102,-1.8306,-1.8053,-1.7371,-1.64,0.0,0.0,0.0,0.0,0.0,0.0,0.0,0.0,0.0,0.0,0.0,0.0,0.0,0.0,0.0,0.0,0.0,0.0,0.0,0.0,0.0,0.0,0.0,0.0,0.0,0.0,0.0,0.0,0.0,0.0,0.0,0.0,0.0,0.0,0.0,0.0,0.0,0.0,0.0,0.0,0.0,0.0,0.0,0.0,0.0,0.0,0.0,0.0,0.0,0.0,0.0,0.0,0.0,0.0,0.0,0.0,0.0,0.0,0.0,0.0,0.0,0.0,0.0,0.0,0.0,0.0,0.0,0.0,0.0,0.0,0.0,0.0,0.0,0.0,0.0,0.0,0.0,0.0,0.0,0.0,0.0,0.0,0.0,0.0,0.0,0.0,0.0,0.0,0.0,0.0,0.0,0.0,0.0,0.0,0.0,0.0,0.0,0.0,0.0,0.0,0.0,0.0,0.0,0.0,0.0,0.0,0.0,0.0,-1.7829,-1.7027,-1.7303,-1.8908,-1.8933,-1.8157,0.0,0.0,0.0,0.0,0.0,0.0,0.0,0.0,0.0,0.0,0.0,0.0,0.0,0.0,0.0,0.0,0.0,0.0,0.0,0.0,0.0,0.0,0.0,0.0,0.0,0.0,0.0,0.0,0.0,0.0,0.0,0.0,0.0,0.0,0.0,0.0,0.0,0.0,0.0,0.0,0.0,0.0,0.0,0.0,0.0,0.0,0.0,0.0,0.0,0.0,0.0,0.0,0.0,0.0,0.0,0.0,0.0,0.0,0.0,0.0,0.0,0.0,0.0,0.0,0.0,0.0,0.0,0.0,0.0,0.0,0.0,0.0,0.0,0.0,0.0,0.0,0.0,0.0,0.0,0.0,0.0,0.0,0.0,0.0,0.0,0.0,0.0,0.0,0.0,0.0,0.0,0.0,0.0,0.0,0.0,0.0,0.0,0.0,0.0,0.0,0.0,0.0,0.0,0.0,0.0,0.0,0.0,0.0,0.0,-1.5487,-1.617,-1.7359,-1.9042,-1.7726,-1.682,0.0,0.0,0.0,0.0,0.0,0.0,0.0,0.0,0.0,0.0,0.0,0.0,0.0,0.0,0.0,0.0,0.0,0.0,0.0,0.0,0.0,0.0,0.0,0.0,0.0,0.0,0.0,0.0,0.0,0.0,0.0,0.0,0.0,0.0,0.0,0.0,0.0,0.0,0.0,0.0,0.0,0.0,0.0,0.0,0.0,0.0,0.0,0.0,0.0,0.0,0.0,0.0,0.0,0.0,0.0,0.0,0.0,0.0,0.0,0.0,0.0,0.0,0.0,0.0,0.0,0.0,0.0,0.0,0.0,0.0,0.0,0.0,0.0,0.0,0.0,0.0,0.0,0.0,0.0,0.0,0.0,0.0,0.0,0.0,0.0,0.0,0.0,0.0,0.0,0.0,0.0,0.0,0.0,0.0,0.0,0.0,0.0,0.0,0.0,0.0,0.0,0.0,0.0,0.0,0.0,0.0,0.0,0.0,0.0,-1.5663,-1.7451,-1.8682,-1.9104,-1.7629,-1.643,0.0,0.0,0.0,0.0,0.0,0.0,0.0,0.0,0.0,0.0,0.0,0.0,0.0,0.0,0.0,0.0,0.0,0.0,0.0,0.0,0.0,0.0,0.0,0.0,0.0,0.0,0.0,0.0,0.0,0.0,0.0,0.0,0.0,0.0,0.0,0.0,0.0,0.0,0.0,0.0,0.0,0.0,0.0,0.0,0.0,0.0,0.0,0.0,0.0,0.0,0.0,0.0,0.0,0.0,0.0,0.0,0.0,0.0,0.0,0.0,0.0,0.0,0.0,0.0,0.0,0.0,0.0,0.0,0.0,0.0,0.0,0.0,0.0,0.0,0.0,0.0,0.0,0.0,0.0,0.0,0.0,0.0,0.0,0.0,0.0,0.0,0.0,0.0,0.0,0.0,0.0,0.0,0.0,0.0,0.0,0.0,0.0,0.0,0.0,0.0,0.0,0.0,0.0,0.0,0.0,0.0,0.0,0.0,-1.5264,-1.8757,-2.0939,-2.1037,-1.9133,-1.8883,-1.7155,0.0,0.0,0.0,0.0,0.0,0.0,0.0,0.0,0.0,0.0,0.0,0.0,0.0,0.0,0.0,0.0,0.0,0.0,0.0,0.0,0.0,0.0,0.0,0.0,0.0,0.0,0.0,0.0,0.0,0.0,0.0,0.0,0.0,0.0,0.0,0.0,0.0,0.0,0.0,0.0,0.0,0.0,0.0,0.0,0.0,0.0,0.0,0.0,0.0,0.0,0.0,0.0,0.0,0.0,0.0,0.0,0.0,0.0,0.0,0.0,0.0,0.0,0.0,0.0,0.0,0.0,0.0,0.0,0.0,0.0,0.0,0.0,0.0,0.0,0.0,0.0,0.0,0.0,0.0,0.0,0.0,0.0,0.0,0.0,0.0,0.0,0.0,0.0,0.0,0.0,0.0,0.0,0.0,0.0,0.0,0.0,0.0,0.0,0.0,0.0,0.0,0.0,0.0,0.0,0.0,0.0,0.0,0.0,0.0,-1.6245,-1.9058,-2.0345,-1.9879,-1.8586,-1.7793,0.0,0.0,0.0,0.0,0.0,0.0,0.0,0.0,0.0,0.0,0.0,0.0,0.0,0.0,0.0,0.0,0.0,0.0,0.0,0.0,0.0,0.0,0.0,0.0,0.0,0.0,0.0,0.0,0.0,0.0,0.0,0.0,0.0,0.0,0.0,0.0,0.0,0.0,0.0,0.0,0.0,0.0,0.0,0.0,0.0,0.0,0.0,0.0,0.0,0.0,0.0,0.0,0.0,0.0,0.0,0.0,0.0,0.0,0.0,0.0,0.0,0.0,0.0,0.0,0.0,0.0,0.0,0.0,0.0,0.0,0.0,0.0,0.0,0.0,0.0,0.0,0.0,0.0,0.0,0.0,0.0,0.0,0.0,0.0,0.0,0.0,0.0,0.0,0.0,0.0,0.0,0.0,0.0,0.0,0.0,0.0,0.0,0.0,0.0,0.0,0.0,0.0,0.0,0.0,0.0,0.0,0.0,0.0,0.0,-1.8529,-2.1292,-2.2367,-2.1248,-1.9744,-1.8709,-1.8235,0.0,0.0,0.0,0.0,0.0,0.0,0.0,0.0,0.0,0.0,0.0,0.0,0.0,0.0,0.0,0.0,0.0,0.0,0.0,0.0,0.0,0.0,0.0,0.0,0.0,0.0,0.0,0.0,0.0,0.0,0.0,0.0,0.0,0.0,0.0,0.0,0.0,0.0,0.0,0.0,0.0,0.0,0.0,0.0,0.0,0.0,0.0,0.0,0.0,0.0,0.0,0.0,0.0,0.0,0.0,0.0,0.0,0.0,0.0,0.0,0.0,0.0,0.0,0.0,0.0,0.0,0.0,0.0,0.0,0.0,0.0,0.0,0.0,0.0,0.0,0.0,0.0,0.0,0.0,0.0,0.0,0.0,0.0,0.0,0.0,0.0,0.0,0.0,0.0,0.0,0.0,0.0,0.0,0.0,0.0,0.0,0.0,0.0,0.0,0.0,0.0,0.0,0.0,0.0,0.0,0.0,0.0,0.0,-2.4155,-2.6866,-2.66,-2.324,-2.209,-1.9992,0.0,0.0,0.0,0.0,0.0,0.0,0.0,0.0,0.0,0.0,0.0,0.0,0.0,0.0,0.0,0.0,0.0,0.0,0.0,0.0,0.0,0.0,0.0,0.0,0.0,0.0,0.0,0.0,0.0,0.0,0.0,0.0,0.0,0.0,0.0,0.0,0.0,0.0,0.0,0.0,0.0,0.0,0.0,0.0,0.0,0.0,0.0,0.0,0.0,0.0,0.0,0.0,0.0,0.0,0.0,0.0,0.0,0.0,0.0,0.0,0.0,0.0,0.0,0.0,0.0,0.0,0.0,0.0,0.0,0.0,0.0,0.0,0.0,0.0,0.0,0.0,0.0,0.0,0.0,0.0,0.0,0.0,0.0,0.0,0.0,0.0,0.0,0.0,0.0,0.0,0.0,0.0,0.0,0.0,0.0,0.0,0.0,0.0,0.0,0.0,0.0,0.0,0.0,0.0,0.0,0.0,0.0,0.0,0.0,-2.6414,-2.9101,-2.9326,-2.676,-2.3762,-2.1908,0.0,0.0,0.0,0.0,0.0,0.0,0.0,0.0,0.0,0.0,0.0,0.0,0.0,0.0,0.0,0.0,0.0,0.0,0.0,0.0,0.0,0.0,0.0,0.0,0.0,0.0,0.0,0.0,0.0,0.0,0.0,0.0,0.0,0.0,0.0,0.0,0.0,0.0,0.0,0.0,0.0,0.0,0.0,0.0,0.0,0.0,0.0,0.0,0.0,0.0,0.0,0.0,0.0,0.0,0.0,0.0,0.0,0.0,0.0,0.0,0.0,0.0,0.0,0.0,0.0,0.0,0.0,0.0,0.0,0.0,0.0,0.0,0.0,0.0,0.0,0.0,0.0,0.0,0.0,0.0,0.0,0.0,0.0,0.0,0.0,0.0,0.0,0.0,0.0,0.0,0.0,0.0,0.0,0.0,0.0,0.0,0.0,0.0,0.0,0.0,0.0,0.0,0.0,0.0,0.0,0.0,0.0,0.0,-2.5762,-2.895,-3.1035,-3.1486,-3.0231,-2.6497,-2.3892,0.0,0.0,0.0,0.0,0.0,0.0,0.0,0.0,0.0,0.0,0.0,0.0,0.0,0.0,0.0,0.0,0.0,0.0,0.0,0.0,0.0,0.0,0.0,0.0,0.0,0.0,0.0,0.0,0.0,0.0,0.0,0.0,0.0,0.0,0.0,0.0,0.0,0.0,0.0,0.0,0.0,0.0,0.0,0.0,0.0,0.0,0.0,0.0,0.0,0.0,0.0,0.0,0.0,0.0,0.0,0.0,0.0,0.0,0.0,0.0,0.0,0.0,0.0,0.0,0.0,0.0,0.0,0.0,0.0,0.0,0.0,0.0,0.0,0.0,0.0,0.0,0.0,0.0,0.0,0.0,0.0,0.0,0.0,0.0,0.0,0.0,0.0,0.0,0.0,0.0,0.0,0.0,0.0,0.0,0.0,0.0,0.0,0.0,0.0,0.0,0.0,0.0,0.0,0.0,0.0,0.0,0.0,0.0,-2.7706,-3.1427,-3.2558,-3.3111,-3.3011,-2.9314,-2.5772,0.0,0.0,0.0,0.0,0.0,0.0,0.0,0.0,0.0,0.0,0.0,0.0,0.0,0.0,0.0,0.0,0.0,0.0,0.0,0.0,0.0,0.0,0.0,0.0,0.0,0.0,0.0,0.0,0.0,0.0,0.0,0.0,0.0,0.0,0.0,0.0,0.0,0.0,0.0,0.0,0.0,0.0,0.0,0.0,0.0,0.0,0.0,0.0,0.0,0.0,0.0,0.0,0.0,0.0,0.0,0.0,0.0,0.0,0.0,0.0,0.0,0.0,0.0,0.0,0.0,0.0,0.0,0.0,0.0,0.0,0.0,0.0,0.0,0.0,0.0,0.0,0.0,0.0,0.0,0.0,0.0,0.0,0.0,0.0,0.0,0.0,0.0,0.0,0.0,0.0,0.0,0.0,0.0,0.0,0.0,0.0,0.0,0.0,0.0,0.0,0.0,0.0,0.0,0.0,0.0,0.0,0.0,0.0,-2.9264,-3.2253,-3.2844,-3.3136,-3.3111,-2.9355,-2.6593,0.0,0.0,0.0,0.0,0.0,0.0,0.0,0.0,0.0,0.0,0.0,0.0,0.0,0.0,0.0,0.0,0.0,0.0,0.0,0.0,0.0,0.0,0.0,0.0,0.0,0.0,0.0,0.0,0.0,0.0,0.0,0.0,0.0,0.0,0.0,0.0,0.0,0.0,0.0,0.0,0.0,0.0,0.0,0.0,0.0,0.0,0.0,0.0,-1.5044,0.0,0.0,0.0,0.0,0.0,0.0,0.0,0.0,0.0,0.0,0.0,0.0,0.0,0.0,0.0,0.0,0.0,0.0,0.0,0.0,0.0,0.0,0.0,0.0,0.0,0.0,0.0,0.0,0.0,0.0,0.0,0.0,0.0,0.0,0.0,0.0,0.0,0.0,0.0,0.0,0.0,0.0,0.0,0.0,0.0,0.0,0.0,0.0,0.0,0.0,0.0,0.0,0.0,0.0,0.0,0.0,0.0,0.0,0.0,-2.9936,-3.302,-3.3216,-3.324,-3.3164,-3.0923,-2.8363,0.0,0.0,0.0,0.0,0.0,0.0,0.0,0.0,0.0,0.0,0.0,0.0,0.0,0.0,0.0,0.0,0.0,0.0,0.0,0.0,0.0,0.0,0.0,0.0,0.0,0.0,0.0,0.0,0.0,0.0,0.0,0.0,0.0,0.0,0.0,0.0,0.0,0.0,0.0,0.0,0.0,0.0,0.0,0.0,0.0,0.0,0.0,0.0,0.0,0.0,0.0,0.0,0.0,0.0,0.0,0.0,0.0,0.0,0.0,0.0,0.0,0.0,0.0,0.0,0.0,0.0,0.0,0.0,0.0,0.0,0.0,0.0,0.0,0.0,0.0,0.0,0.0,0.0,0.0,0.0,0.0,0.0,0.0,0.0,0.0,0.0,0.0,0.0,0.0,0.0,0.0,0.0,0.0,0.0,0.0,0.0,0.0,0.0,0.0,0.0,0.0,0.0,0.0,0.0,0.0,0.0,0.0,-2.7403,-3.0203,-3.3656,-3.3556,-3.3386,-3.3386,-3.2643,-3.0181,-2.5912,0.0,0.0,0.0,0.0,0.0,0.0,0.0,0.0,0.0,0.0,0.0,0.0,0.0,0.0,0.0,0.0,0.0,0.0,0.0,0.0,0.0,0.0,0.0,0.0,0.0,0.0,0.0,0.0,0.0,0.0,0.0,0.0,0.0,0.0,0.0,0.0,0.0,0.0,-1.5311,-1.7089,0.0,0.0,0.0,0.0,0.0,0.0,0.0,0.0,-1.803,0.0,0.0,0.0,0.0,0.0,0.0,0.0,0.0,0.0,0.0,0.0,0.0,0.0,0.0,0.0,0.0,0.0,0.0,0.0,0.0,0.0,0.0,0.0,0.0,0.0,0.0,0.0,0.0,0.0,0.0,0.0,0.0,0.0,0.0,0.0,0.0,0.0,0.0,0.0,0.0,0.0,0.0,0.0,0.0,0.0,0.0,0.0,0.0,0.0,0.0,0.0,0.0,0.0,0.0,0.0,0.0,-2.8213,-2.8579,-3.0431,-3.3943,-3.3598,-3.3386,-3.3386,-3.2617,-3.0357,-2.6575,0.0,0.0,0.0,0.0,0.0,0.0,0.0,0.0,0.0,0.0,0.0,0.0,0.0,0.0,0.0,0.0,0.0,0.0,0.0,0.0,0.0,0.0,0.0,0.0,0.0,0.0,0.0,0.0,0.0,0.0,0.0,0.0,0.0,0.0,0.0,0.0,0.0,0.0,0.0,-2.0805,-2.1407,0.0,0.0,0.0,0.0,0.0,0.0,0.0,0.0,-1.8679,0.0,0.0,0.0,0.0,0.0,0.0,0.0,0.0,0.0,0.0,0.0,0.0,0.0,0.0,0.0,0.0,0.0,0.0,0.0,0.0,0.0,0.0,0.0,0.0,0.0,0.0,0.0,0.0,0.0,0.0,0.0,0.0,0.0,0.0,0.0,0.0,0.0,0.0,0.0,0.0,0.0,0.0,0.0,0.0,0.0,0.0,0.0,0.0,0.0,0.0,0.0,0.0,0.0,0.0,0.0,-2.7728,-3.0258,-3.2717,-3.5011,-3.4246,-3.3837,-3.3989,-3.2963,-3.0525,0.0,0.0,0.0,0.0,0.0,0.0,0.0,0.0,0.0,0.0,0.0,0.0,0.0,0.0,0.0,0.0,0.0,0.0,0.0,0.0,0.0,0.0,0.0,0.0,0.0,0.0,0.0,0.0,0.0,0.0,0.0,0.0,0.0,0.0,0.0,0.0,0.0,0.0,0.0,0.0,-2.3289,-2.3922,-2.5074,0.0,0.0,0.0,0.0,0.0,0.0,-2.1455,-2.0301,0.0,0.0,0.0,0.0,0.0,0.0,0.0,0.0,0.0,0.0,0.0,0.0,0.0,0.0,0.0,0.0,0.0,0.0,0.0,0.0,0.0,0.0,0.0,0.0,0.0,0.0,0.0,0.0,0.0,0.0,0.0,0.0,0.0,0.0,0.0,0.0,0.0,0.0,0.0,0.0,0.0,0.0,0.0,0.0,0.0,0.0,0.0,0.0,0.0,0.0,0.0,0.0,0.0,0.0,0.0,-2.6948,-3.1343,-3.4396,-3.5948,-3.489,-3.4392,-3.4632,-3.3224,-3.0581,0.0,0.0,0.0,0.0,0.0,0.0,0.0,0.0,0.0,0.0,0.0,0.0,0.0,0.0,0.0,0.0,0.0,0.0,0.0,0.0,0.0,0.0,0.0,0.0,0.0,0.0,0.0,0.0,0.0,0.0,0.0,0.0,0.0,0.0,0.0,0.0,0.0,0.0,0.0,0.0,0.0,-2.6221,-2.7379,-2.5081,0.0,0.0,0.0,0.0,-2.4645,-2.3924,0.0,0.0,0.0,0.0,0.0,0.0,0.0,0.0,0.0,0.0,0.0,0.0,0.0,0.0,0.0,0.0,0.0,0.0,0.0,0.0,0.0,0.0,0.0,0.0,0.0,0.0,0.0,0.0,0.0,0.0,0.0,0.0,0.0,0.0,0.0,0.0,0.0,0.0,0.0,0.0,0.0,0.0,0.0,0.0,0.0,0.0,0.0,0.0,0.0,0.0,0.0,0.0,0.0,0.0,0.0,0.0,-2.7359,-3.0418,-3.3309,-3.5913,-3.528,-3.4822,-3.4831,-3.2925,-3.0292,0.0,0.0,0.0,0.0,0.0,0.0,0.0,0.0,0.0,0.0,0.0,0.0,0.0,0.0,0.0,0.0,0.0,0.0,0.0,0.0,0.0,0.0,0.0,0.0,0.0,0.0,0.0,0.0,0.0,0.0,0.0,0.0,0.0,0.0,0.0,0.0,0.0,0.0,0.0,0.0,0.0,-2.8155,-2.818,-2.6456,-2.5245,0.0,0.0,-2.687,-2.8767,-2.9111,0.0,0.0,0.0,0.0,0.0,0.0,0.0,0.0,0.0,0.0,0.0,0.0,0.0,0.0,0.0,0.0,0.0,0.0,0.0,0.0,0.0,0.0,0.0,0.0,0.0,0.0,0.0,0.0,0.0,0.0,0.0,0.0,0.0,0.0,0.0,0.0,0.0,0.0,0.0,0.0,0.0,0.0,0.0,0.0,0.0,0.0,0.0,0.0,0.0,0.0,0.0,0.0,0.0,0.0,0.0,-2.6498,-2.8124,-3.2763,-3.5844,-3.7037,-3.6139,-3.5695,-3.59,-3.3808,-3.0817,0.0,0.0,0.0,0.0,0.0,0.0,0.0,0.0,0.0,0.0,0.0,0.0,0.0,0.0,0.0,0.0,0.0,0.0,0.0,0.0,0.0,0.0,0.0,0.0,0.0,0.0,0.0,0.0,0.0,0.0,0.0,0.0,0.0,0.0,0.0,0.0,0.0,0.0,0.0,0.0,0.0,0.0,-3.1143,-2.978,0.0,0.0,0.0,-2.9488,-2.9965,0.0,0.0,0.0,0.0,0.0,0.0,0.0,0.0,0.0,0.0,0.0,0.0,0.0,0.0,0.0,0.0,0.0,0.0,0.0,0.0,0.0,0.0,0.0,0.0,0.0,0.0,0.0,0.0,0.0,0.0,0.0,0.0,0.0,0.0,0.0,0.0,0.0,0.0,0.0,0.0,0.0,0.0,0.0,0.0,0.0,0.0,0.0,0.0,0.0,0.0,0.0,0.0,0.0,0.0,0.0,0.0,0.0,-2.9364,-3.511,-3.8187,-3.8292,-3.7011,-3.653,-3.6968,-3.5003,0.0,0.0,0.0,0.0,0.0,0.0,0.0,0.0,0.0,0.0,0.0,0.0,0.0,0.0,0.0,0.0,0.0,0.0,0.0,0.0,0.0,0.0,0.0,0.0,0.0,0.0,0.0,-1.6196,0.0,0.0,0.0,0.0,0.0,0.0,0.0,0.0,0.0,0.0,0.0,0.0,0.0,0.0,-3.1955,-3.3582,-3.2725,-3.2325,0.0,0.0,-3.1894,-3.1903,-3.2959,-3.2417,0.0,0.0,0.0,0.0,0.0,0.0,0.0,0.0,0.0,0.0,0.0,0.0,0.0,0.0,0.0,0.0,0.0,0.0,0.0,0.0,0.0,0.0,0.0,0.0,0.0,0.0,0.0,0.0,0.0,0.0,0.0,0.0,0.0,0.0,0.0,0.0,0.0,0.0,0.0,0.0,0.0,0.0,0.0,0.0,0.0,0.0,0.0,0.0,0.0,0.0,0.0,0.0,0.0,0.0,0.0,-3.1746,-3.627,-3.8919,-3.9416,-3.7821,-3.722,-3.775,-3.6371,-3.3016,0.0,0.0,0.0,0.0,0.0,0.0,0.0,0.0,0.0,0.0,0.0,0.0,0.0,0.0,0.0,0.0,0.0,0.0,0.0,0.0,0.0,0.0,0.0,0.0,0.0,0.0,0.0,0.0,0.0,0.0,0.0,0.0,0.0,0.0,0.0,0.0,0.0,0.0,0.0,0.0,0.0,-3.219,-3.4329,-3.4268,-3.4557,0.0,0.0,-3.4366,-3.6227,-3.6895,-3.5521,-3.0458,0.0,0.0,0.0,0.0,0.0,0.0,0.0,0.0,0.0,0.0,0.0,0.0,0.0,0.0,0.0,0.0,0.0,0.0,0.0,0.0,0.0,0.0,0.0,0.0,0.0,0.0,0.0,0.0,0.0,0.0,0.0,0.0,0.0,0.0,0.0,0.0,0.0,0.0,0.0,0.0,0.0,0.0,0.0,0.0,0.0,0.0,0.0,0.0,0.0,0.0,0.0,0.0,0.0,-3.0828,-3.2552,-3.7884,-4.0703,-4.0739,-3.9462,-3.8831,-3.9043,-3.7453,-3.4648,0.0,0.0,0.0,0.0,0.0,0.0,0.0,0.0,0.0,0.0,0.0,0.0,0.0,0.0,0.0,0.0,0.0,0.0,0.0,0.0,0.0,0.0,0.0,0.0,0.0,0.0,0.0,0.0,-2.4245,-2.4216,-2.2549,0.0,0.0,0.0,0.0,0.0,0.0,0.0,0.0,0.0,0.0,-3.5929,-3.8629,-3.861,0.0,0.0,-3.8818,-3.7941,-3.8555,-3.8033,-3.6479,-3.3149,-3.051,0.0,0.0,0.0,0.0,0.0,0.0,0.0,0.0,0.0,0.0,0.0,0.0,0.0,0.0,0.0,0.0,0.0,0.0,0.0,0.0,0.0,0.0,0.0,0.0,0.0,0.0,0.0,0.0,0.0,0.0,0.0,0.0,0.0,0.0,0.0,0.0,0.0,0.0,0.0,0.0,0.0,0.0,0.0,0.0,0.0,0.0,0.0,0.0,0.0,0.0,0.0,0.0,-3.1895,-3.3724,-3.9421,-4.2304,-4.2222,-4.1218,-4.0703,-4.0629,-3.9229,-3.6909,0.0,0.0,0.0,0.0,0.0,0.0,0.0,0.0,0.0,0.0,0.0,0.0,0.0,0.0,0.0,0.0,0.0,0.0,0.0,0.0,0.0,0.0,0.0,0.0,0.0,0.0,0.0,0.0,-2.6059,-2.5361,-2.2642,0.0,0.0,0.0,0.0,0.0,0.0,0.0,0.0,0.0,0.0,-3.8956,-4.1368,-4.1263,-4.1232,-4.1876,-4.0542,-3.9474,-3.9447,-3.8566,-3.7171,-3.5184,0.0,0.0,0.0,0.0,0.0,0.0,0.0,0.0,0.0,0.0,0.0,0.0,0.0,0.0,0.0,0.0,0.0,0.0,0.0,0.0,0.0,0.0,0.0,0.0,0.0,0.0,0.0,0.0,0.0,0.0,-1.7728,0.0,0.0,0.0,0.0,0.0,0.0,0.0,0.0,0.0,0.0,0.0,0.0,0.0,0.0,0.0,0.0,0.0,0.0,0.0,0.0,0.0,0.0,-3.2526,-3.5536,-4.092,-4.3654,-4.3559,-4.3045,-4.2685,-4.2638,-4.204,-3.979,-3.583,0.0,0.0,0.0,0.0,0.0,0.0,0.0,0.0,0.0,0.0,0.0,0.0,0.0,0.0,0.0,0.0,0.0,0.0,0.0,0.0,0.0,0.0,0.0,0.0,0.0,0.0,-2.1364,-2.2905,-2.3809,0.0,0.0,0.0,0.0,0.0,0.0,0.0,0.0,0.0,0.0,-3.8226,-4.0688,-4.1665,-4.1611,-4.1279,-4.079,-3.9221,-3.8291,-3.8995,-3.8641,-3.7814,0.0,0.0,0.0,0.0,0.0,0.0,0.0,0.0,0.0,0.0,0.0,0.0,0.0,0.0,0.0,0.0,0.0,0.0,0.0,0.0,0.0,0.0,0.0,0.0,0.0,0.0,0.0,-2.346,-2.2631,0.0,0.0,0.0,0.0,0.0,0.0,0.0,0.0,0.0,0.0,0.0,-3.3514,-3.4831,0.0,0.0,0.0,0.0,0.0,0.0,0.0,0.0,0.0,0.0,0.0,0.0,-3.4006,-3.6155,-4.2578,-4.5849,-4.5448,-4.4712,-4.4326,-4.428,-4.323,-4.0662,-3.6549,0.0,0.0,0.0,0.0,0.0,0.0,0.0,0.0,0.0,0.0,0.0,0.0,0.0,0.0,0.0,0.0,0.0,0.0,0.0,0.0,0.0,0.0,0.0,0.0,0.0,-2.4532,0.0,0.0,0.0,0.0,0.0,0.0,0.0,0.0,0.0,0.0,0.0,-3.5507,-3.8438,-3.9911,-4.1325,-4.3152,-4.2631,-4.2801,0.0,0.0,0.0,0.0,0.0,0.0,0.0,0.0,0.0,0.0,0.0,0.0,0.0,0.0,-3.1999,-2.5914,-2.4434,-2.4425,-2.5325,0.0,0.0,0.0,0.0,0.0,0.0,0.0,0.0,0.0,0.0,0.0,0.0,0.0,0.0,-2.8248,0.0,-2.7504,0.0,0.0,0.0,0.0,0.0,0.0,0.0,0.0,-3.504,-3.7345,-3.8631,-3.9649,-3.9619,0.0,-3.7708,-3.4651,0.0,0.0,0.0,0.0,0.0,0.0,0.0,0.0,-3.5663,-3.8269,-4.4608,-4.7717,-4.716,-4.6819,-4.6524,-4.6292,-4.4955,-4.2805,-3.9776,-3.7448,-3.5189,0.0,0.0,0.0,0.0,0.0,0.0,0.0,0.0,0.0,0.0,0.0,0.0,0.0,0.0,0.0,0.0,0.0,0.0,0.0,0.0,0.0,0.0,0.0,-2.6947,0.0,0.0,0.0,0.0,0.0,0.0,0.0,0.0,0.0,-3.2349,-3.5909,-3.941,-4.1645,-4.2412,-4.3015,-4.3534,0.0,0.0,0.0,0.0,0.0,0.0,0.0,-3.9436,-3.9424,-3.8416,-3.7541,-3.7218,-3.7993,-3.8312,-3.7255,0.0,0.0,-3.1285,-2.9761,-2.976,-3.0719,-3.0901,-3.1014,-3.1578,-3.2483,-3.33,0.0,0.0,0.0,0.0,0.0,0.0,0.0,0.0,-3.3455,-3.2976,0.0,-3.3066,0.0,0.0,0.0,0.0,0.0,-3.2347,0.0,0.0,-4.3539,-4.6232,-4.6219,-4.5603,-4.5693,-4.6232,-4.3788,-4.1602,-3.9529,-3.5878,0.0,0.0,0.0,0.0,0.0,0.0,-3.7534,-4.2021,-4.6978,-4.925,-4.8706,-4.9191,-4.9191,-4.8542,-4.7137,-4.6035,-4.5273,-4.122,-3.9003,-3.9045,-3.1057,0.0,0.0,0.0,0.0,0.0,0.0,0.0,0.0,0.0,0.0,0.0,0.0,0.0,0.0,0.0,0.0,0.0,0.0,0.0,0.0,-2.8825,0.0,0.0,0.0,0.0,0.0,0.0,0.0,0.0,0.0,0.0,-3.6997,-3.9382,-4.2154,-4.4276,0.0,0.0,0.0,0.0,-4.4057,-4.1361,-4.0798,-4.0644,-4.0057,-4.2526,-4.4361,-4.3823,0.0,0.0,-4.3219,-4.2454,-4.1543,-3.8665,-4.0806,-4.1959,-3.9692,-3.7084,-3.574,-3.6551,-3.6059,-3.5745,-3.6667,-3.8238,-3.9356,-3.4711,0.0,0.0,0.0,0.0,-3.2437,-3.4592,-3.8153,-3.8332,-3.7674,-3.6477,-3.7345,0.0,0.0,0.0,0.0,0.0,0.0,-3.7614,-4.1863,-4.303,-4.5286,-4.8386,-4.7728,-4.7788,-4.8386,-4.7712,-4.7053,-4.6441,-4.5783,-3.9493,-2.8278,0.0,0.0,0.0,0.0,-4.0942,-4.3747,-4.8119,-5.0181,-4.9743,-4.9783,-4.9453,-4.88,-4.8263,-4.7861,-4.7625,-4.5947,-4.3871,-4.1372,-3.7629,0.0,0.0,0.0,0.0,0.0,0.0,0.0,0.0,0.0,0.0,0.0,0.0,0.0,0.0,0.0,0.0,0.0,0.0,0.0,-2.8588,-3.2568,-3.4015,0.0,0.0,0.0,0.0,0.0,0.0,0.0,0.0,0.0,-4.4069,-4.472,-4.5103,0.0,0.0,-4.3318,-4.2413,-4.3668,-4.5146,-4.6509,-4.6838,0.0,0.0,-4.816,-4.7757,-4.8348,-4.9343,-4.9351,-4.7419,-4.7709,-4.7893,-4.6611,-4.706,-4.7255,-4.6319,-4.394,-4.2293,-4.2401,-4.2055,-4.2041,-4.2976,-4.3647,-4.4215,-4.0643,-3.7837,-3.5312,-3.54,-3.7195,-3.7345,-3.9439,-4.2761,-4.303,-4.2372,-4.1205,-4.2402,-4.0307,-3.5818,-3.5011,0.0,0.0,0.0,-4.1025,-4.5274,-4.5155,-4.6783,-4.9494,-4.8985,-4.9015,-4.9583,-4.9105,-4.9134,-4.9643,-4.9254,-4.4287,-3.519,0.0,0.0,-3.537,-4.0068,-4.3778,-4.6292,-4.9387,-5.0803,-5.0584,-5.0491,-5.0024,-4.9307,-4.9186,-4.8975,-4.8709,-4.8233,-4.7022,-4.4918,-4.2283,-3.9404,0.0,0.0,0.0,0.0,0.0,0.0,0.0,0.0,0.0,0.0,0.0,-2.6009,-2.2767,0.0,0.0,0.0,-3.1511,-3.3063,-3.5383,-3.7664,0.0,0.0,0.0,0.0,0.0,0.0,0.0,-4.2761,-4.5424,-4.7489,-4.8716,-4.8666,-4.822,-4.7307,-4.6462,-4.5724,-4.5218,0.0,-4.8316,-4.9824,-5.0298,-5.0989,-5.2212,-5.2044,-5.2045,-5.3129,-5.2582,-5.1944,-5.1318,-5.1134,-5.0947,-5.0691,-5.0434,-5.0111,-4.9916,-4.8387,-4.6949,-4.6329,-4.6003,-4.603,-4.6439,-4.6704,-4.7064,-4.604,-4.6429,-4.1378,-4.0314,-4.1953,-4.315,-4.4635,-4.6441,-4.707,-4.6681,-4.5693,-4.7519,-4.5334,-4.0127,-3.8302,0.0,-4.3039,-4.3569,-4.5484,-4.8536,-4.9149,-4.9703,-5.0226,-4.9703,-4.9733,-5.0226,-4.9105,-4.9134,-5.0136,-4.8506,-4.6651,-4.4825,-4.4796,-4.4018,-4.265,-4.3868,-4.6172,-4.9329,-5.0511,-5.1169,-5.1229,-5.1229,-5.079,-5.0037,-5.0007,-4.971,-4.9116,-4.8844,-4.8844,-4.8937,-4.5476,-4.2951,-4.1614,0.0,0.0,0.0,0.0,0.0,0.0,0.0,0.0,0.0,0.0,0.0,0.0,0.0,0.0,0.0,-4.0554,0.0,-4.5065,-4.318,0.0,0.0,0.0,-3.8811,-4.1025,-4.3838,-4.6142,-4.7549,0.0,0.0,-5.1528,-5.1498,-5.1405,-5.1295,-5.1323,-5.0995,-5.0097,-5.1619,-5.2715,-5.1848,-5.238,-5.2798,-5.3301,-5.508,-5.6902,-5.7627,-5.6349,-5.5059,-5.465,-5.3436,-5.2194,-5.2037,-5.1648,-5.1478,-5.1452,-5.1238,-5.0595,-4.8967,-4.845,-4.8269,-4.8131,-4.8426,-4.8695,-4.8092,-4.9031,-4.7576,-4.6551,-4.5933,-4.6232,-4.6621,-4.71,-4.7758,-4.7878,-4.7638,-4.864,-4.8281,-4.6933,-4.6484,-4.701,-4.8312,-4.8027,-4.8805,-5.0451,-5.0152,-5.0315,-5.096,-5.084,-5.084,-5.096,-5.0661,-5.069,-5.0913,-5.0511,-4.9793,-4.882,-4.879,-4.692,-4.3429,-4.5933,-4.8207,-5.0002,-5.0285,-5.0674,-5.1199,-5.1229,-5.1092,-5.0896,-5.0896,-5.0807,-5.0657,-5.0133,-5.0103,-5.0568,-4.8805,-4.7654,-4.7266,-3.9642,0.0,0.0,0.0,0.0,0.0,0.0,0.0,0.0,0.0,-3.3006,-2.6572,0.0,-3.4831,0.0,-4.4436,-4.68,-4.4736,-4.5364,0.0,0.0,-4.4047,-4.4257,-4.8177,-4.8446,-4.9015,-5.084,-5.1588,-5.2546,-5.4072,-5.3803,-5.4212,-5.6006,-5.3598,-5.1764,-5.219,-5.4073,-5.5409,-5.5537,-5.7513,-5.9187,-5.895,-6.0278,-6.1167,-6.0768,-6.0202,-5.9339,-5.7713,-5.7103,-5.6424,-5.5439,-5.5125,-5.492,-5.4586,-5.4584,-5.4119,-5.3148,-5.1624,-5.0597,-5.1244,-5.1303,-5.1311,-4.9122,-5.0423,-5.0065,-4.9524,-4.8985,-4.8416,-4.8177,-4.8207,-4.8566,-4.876,-4.882,-4.9404,-4.9883,-5.0092,-4.9823,-4.9912,-5.0166,-4.9883,-5.0092,-5.0704,-5.0674,-5.0823,-5.1229,-5.1229,-5.1229,-5.1229,-5.1229,-5.1229,-5.1229,-5.1229,-5.102,-5.0644,-5.0614,-4.9254,-4.6621,-4.7967,-4.8955,-4.9374,-4.9897,-5.0524,-5.1199,-5.1229,-5.069,-4.9553,-5.0285,-5.0196,-4.906,-4.9523,-4.9583,-4.9045,-4.8356,-4.7818,-4.7472,-4.2402,-3.9529,0.0,0.0,0.0,0.0,0.0,0.0,0.0,0.0,0.0,0.0,0.0,-3.902,-4.0726,-4.6501,-4.8895,-4.5933,-4.7429,-4.8835,-4.9404,-4.8745,-4.9523,-5.2636,-5.2336,-5.2546,-5.4162,-5.4132,-5.4491,-5.5837,-5.5718,-5.6346,-5.868,-5.7155,-5.5977,-5.6456,-5.7961,-5.9099,-5.9335,-6.1112,-6.237,-6.2096,-6.2616,-6.2894,-6.2365,-6.1924,-6.1196,-6.0004,-5.9413,-5.8683,-5.7524,-5.7114,-5.6798,-5.6106,-5.5802,-5.5599,-5.5163,-5.4185,-5.3242,-5.302,-5.2833,-5.2788,-4.988,-5.1167,-5.0637,-5.0813,-5.1233,-5.0048,-4.9569,-4.9523,-4.9569,-4.9569,-4.9599,-5.0122,-5.0644,-5.1122,-5.0584,-5.0315,-5.0315,-5.0315,-5.0315,-5.0345,-5.096,-5.1229,-5.1229,-5.1229,-5.1229,-5.1229,-5.1229,-5.1229,-5.1229,-5.1229,-5.1199,-5.1063,-5.1109,-5.0674,-4.9956,-4.9494,-4.903,-4.8446,-4.9523,-5.0391,-5.093,-5.09,-4.9763,-4.7638,-4.9119,-4.9,-4.6817,-4.8356,-4.8476,-4.683,-4.6711,-4.6471,-4.5933,-4.4825,-4.318,0.0,-3.9679,0.0,0.0,0.0,0.0,0.0,0.0,0.0,0.0,-4.4107,-4.4377,-4.2432,-4.7878,-5.0601,-4.8506,-4.9942,-5.1468,-5.2576,-5.3294,-5.4132,-5.5149,-5.5388,-5.5897,-5.7094,-5.6675,-5.6555,-5.7244,-5.7363,-5.8082,-5.9847,-6.0659,-6.082,-6.1097,-6.1961,-6.2677,-6.2847,-6.3342,-6.3509,-6.3345,-6.3341,-6.3428,-6.3362,-6.2945,-6.2167,-6.2138,-6.137,-6.0369,-5.9157,-5.8722,-5.8122,-5.6964,-5.6597,-5.6399,-5.6555,-5.6437,-5.5753,-5.4293,-5.3784,-5.3663,-5.1628,-5.2334,-5.1835,-5.1743,-5.1787,-5.1146,-5.084,-5.084,-5.084,-5.084,-5.087,-5.099,-5.1109,-5.1152,-5.1079,-5.105,-5.105,-5.105,-5.105,-5.1003,-5.1169,-5.1229,-5.1229,-5.1229,-5.1229,-5.1229,-5.1229,-5.1229,-5.1229,-5.1229,-5.093,-5.0375,-5.0375,-4.9823,-4.8745,0.0,0.0,0.0,-4.9359,-4.9494,-4.9659,-4.9105,-4.8626,-4.8147,-4.8985,0.0,-4.8745,-4.912,-4.9149,-4.879,-4.876,0.0,0.0,0.0,0.0,0.0,0.0,0.0,0.0,0.0,0.0,0.0,-4.3988,-4.3868,-4.268,-4.698,-4.9105,-4.7309,-5.0541,-5.3054,-5.3653,-5.4521,-5.5149,-5.5388,-5.5987,-5.6286,-5.6077,-5.6406,-5.7064,-5.7782,-5.7334,-5.7393,-5.8501,-5.871,-5.9279,-6.0745,-6.1942,-6.2869,-6.332,-6.3979,-6.4457,-6.4277,-6.4381,-6.4414,-6.4595,-6.4682,-6.4793,-6.5164,-6.5274,-6.4965,-6.4586,-6.4433,-6.3548,-6.1732,-6.1253,-6.0846,-5.966,-5.9424,-5.9103,-5.8998,-5.8705,-5.7983,-5.6118,-5.5382,-5.5162,-5.2088,0.0,-5.2261,-5.2002,0.0,-5.1556,-5.1416,-5.1386,-5.1276,-5.1229,-5.1229,-5.1229,-5.1229,-5.1229,-5.1229,-5.1229,-5.1229,-5.1229,-5.1229,-5.1229,-5.1229,-5.1229,-5.1229,-5.1229,-5.1379,-5.1678,-5.1379,-5.1332,-5.1678,-5.1708,-5.1528,-5.1182,-5.1528,-5.1349,-5.075,-5.1066,-5.072,-4.9763,-4.9733,-4.9912,-5.0212,-5.0242,-4.9613,-4.8416,0.0,0.0,0.0,0.0,0.0,0.0,0.0,0.0,0.0,0.0,0.0,-4.6172,-4.4336,-4.3499,-4.4197,-4.4855,-4.6352,-4.8985,-5.0122,-4.9853,-4.7892,-5.1079,-5.2636,-5.1379,-5.3025,-5.4311,-5.467,-5.5299,-5.5837,-5.6218,-5.7034,-5.7453,-5.7244,-5.7423,-5.7872,-5.8441,-5.8321,-5.8501,-5.9458,-5.9907,-6.0625,-6.1882,-6.2899,-6.3917,-6.4814,-6.5263,-6.5562,-6.5943,-6.5867,-6.5836,-6.6073,-6.6183,-6.6177,-6.6396,-6.6418,-6.6338,-6.6165,-6.606,-6.5525,-6.3958,-6.3194,-6.2421,-6.1353,-6.0658,-6.0076,-5.9809,-5.9514,-5.8991,-5.7641,-5.7022,-5.675,-5.2213,-5.3117,-5.2398,-5.2063,-5.2017,-5.1741,-5.1572,-5.1479,0.0,0.0,0.0,-5.1229,-5.1229,-5.1229,-5.1229,-5.1229,-5.1229,-5.1229,-5.1229,-5.1229,-5.1229,-5.1289,-5.1379,-5.1409,-5.1738,-5.2336,-5.1828,-5.1828,-5.2366,-5.2366,-5.2366,-5.2426,-5.2935,-5.3174,-5.3174,-5.3174,-5.2366,-5.081,-5.0375,-5.0524,-5.1199,-5.1528,-5.072,-4.8686,-5.084,-5.102,-4.8925,-5.0361,-5.0212,-4.8147,-4.7997,-4.7788,-4.7355,-4.7369,-4.8147,-4.9868,-5.0451,-5.099,-5.1528,-5.2187,-5.2875,-5.3653,-5.485,-5.4999,-5.3803,-5.482,-5.5269,-5.461,-5.5149,-5.5359,-5.494,-5.5388,-5.6017,-5.6795,-5.7842,-5.8471,-5.8471,-5.859,-5.8919,-5.9368,-5.9578,-5.9817,-6.0416,-6.1164,-6.1972,-6.3049,-6.3887,-6.4844,-6.6011,-6.637,-6.6667,-6.737,-6.7293,-6.7305,-6.7425,-6.7318,-6.737,-6.7225,-6.7123,-6.7086,-6.7202,-6.7202,-6.6805,-6.5777,-6.4844,-6.3831,-6.256,-6.1608,-6.0656,-6.0168,-6.0046,-5.9798,-5.9204,-5.868,-5.8253,-5.2653,-5.2762,-5.2413,-5.2261,-5.2215,-5.1803,-5.1433,-5.1276,-5.1199,-5.1229,-5.1229,-5.1229,-5.1229,-5.1229,-5.1229,-5.1229,-5.1229,-5.1229,-5.1229,0.0,-5.1229,-5.1528,-5.2037,-5.2067,-5.2396,-5.2995,-5.2935,-5.2935,-5.3025,-5.3054,-5.3025,-5.3054,-5.3144,-5.3253,-5.3174,-5.3174,-5.3054,-5.2725,-5.1109,-5.0524,-5.1122,-5.0212,-4.9793,-4.9956,-5.09,-5.1229,-5.084,-5.1109,-5.105,-5.069,-5.0661,-5.087,-5.1319,-5.1289,-5.1738,-5.2546,-5.2725,-5.2815,-5.2905,-5.3533,-5.4461,-5.5658,-5.6406,-5.6526,-5.5867,-5.6406,-5.6555,-5.5987,-5.6436,-5.7034,-5.7483,-5.7603,-5.8112,-5.9249,-5.9668,-5.9817,-5.9787,-6.0296,-6.0655,-6.0775,-6.1343,-6.1672,-6.1852,-6.281,-6.3558,-6.4006,-6.4904,-6.6161,-6.7208,-6.7687,-6.7892,-6.8236,-6.8318,-6.8156,-6.8042,-6.7601,-6.7698,-6.8101,-6.7924,-6.7899,-6.8334,-6.8392,-6.7959,-6.7021,-6.659,-6.5684,-6.393,-6.3358,-6.2618,-6.173,-6.1282,-6.1007,-6.0756,-6.0378,-5.9718,-5.2914,-5.3145,-5.2717,-5.2518,-5.2518,-5.2124,-5.1757,-5.1463,-5.1386,-5.1323,-5.1229,-5.1229,-5.1229,-5.1229,-5.1229,-5.1229,-5.1229,-5.1588,-5.1738,-5.1768,-5.2127,-5.2426,-5.2725,-5.2725,-5.3084,-5.3683,-5.3354,-5.3354,-5.3713,-5.3743,-5.3743,-5.3773,-5.4102,-5.4281,-5.4281,-5.4281,-5.4281,-5.4221,-5.2665,-5.1977,-5.2276,-5.2067,-5.2097,-5.2396,-5.3025,-5.3354,-5.3384,-5.3384,-5.3204,-5.2875,-5.2845,-5.2815,-5.2725,-5.2725,-5.2875,-5.3174,-5.3533,-5.3892,-5.4251,-5.5209,-5.6017,-5.6615,-5.7274,-5.7693,-5.7782,-5.7693,-5.7543,-5.7274,-5.7513,-5.7932,-5.856,-5.865,-5.9039,-5.9997,-6.0386,-6.0625,-6.0715,-6.1224,-6.1642,-6.1732,-6.254,-6.3109,-6.3139,-6.3977,-6.4725,-6.5084,-6.5981,-6.6909,-6.7837,-6.8315,-6.8701,-6.9172,-6.9321,-6.9308,-6.9287,-6.8985,-6.884,-6.8869,-6.8564,-6.8509,-6.8731,-6.876,-6.8557,-6.8119,-6.7541,-6.6469,-6.4906,-6.411,-6.3259,-6.2321,-6.1898,-6.1672,-6.142,-6.0889,-6.0075,-5.3221,-5.3652,-5.3006,-5.2653,-5.2608,-5.2397,-5.2079,-5.1665,-5.1618,-5.157,-5.1503,-5.1289,-5.1229,-5.1229,-5.1229,-5.1319,-5.1498,-5.1947,-5.2276,-5.2456,-5.2935,-5.3264,-5.3414,-5.3414,-5.3773,-5.4311,-5.3892,-5.3922,-5.4371,-5.4431,-5.4431,-5.4491,-5.494,-5.5209,-5.5209,-5.5209,-5.5209,-5.5119,-5.4162,-5.3653,-5.3653,-5.4012,-5.4281,-5.4461,-5.491,-5.5209,-5.5209,-5.5209,-5.497,-5.4461,-5.4431,-5.4192,-5.3683,-5.3623,-5.3732,-5.3862,-5.4341,-5.494,-5.5598,-5.6675,-5.7393,-5.7543,-5.8171,-5.886,-5.9428,-5.9099,-5.865,-5.8441,-5.865,-5.8979,-5.9308,-5.9488,-5.9937,-6.0835,-6.1283,-6.1732,-6.2002,-6.245,-6.275,-6.2869,-6.3767,-6.4455,-6.4575,-6.5054,-6.5652,-6.6161,-6.6819,-6.7418,-6.7926,-6.8555,-6.9213,-6.9632,-6.9991,-7.0191,-7.0439,-7.0206,-6.981,-6.947,-6.9136,-6.8905,-6.8828,-6.876,-6.876,-6.8625,-6.8119,-6.7195,-6.6046,-6.4906,-6.3819,-6.2768,-6.2246,-6.1898,-6.1571,-6.1041,-6.0355,-5.3637,-5.3622,-5.3006,-5.2563,-5.2352,-5.2306,-5.22,-5.1956,-5.1741,-5.1964,-5.2352,-5.1593,-5.1259,-5.1229,-5.1259,-5.1558,-5.2097,-5.2157,-5.2546,-5.3054,-5.3144,-5.3503,-5.4072,-5.4132,-5.4461,-5.4999,-5.497,-5.494,-5.5029,-5.5059,-5.5089,-5.5089,-5.5179,-5.5209,-5.5209,-5.5209,-5.5209,-5.5209,-5.5059,-5.4999,-5.497,-5.4491,-5.4491,-5.5089,-5.5149,-5.5209,-5.5209,-5.5209,-5.5179,-5.5089,-5.5119,-5.5059,-5.4999,-5.4999,-5.5269,-5.5858,-5.5957,-5.6256,-5.6885,-5.7603,-5.8291,-5.889,-5.9488,-6.0146,-6.0805,-6.0864,-6.0296,-5.9548,-6.0146,-6.0475,-6.0146,-6.0565,-6.1613,-6.3139,-6.3109,-6.3348,-6.4276,-6.4725,-6.4755,-6.4755,-6.5293,-6.5832,-6.5802,-6.6251,-6.6729,-6.6759,-6.7358,-6.7747,-6.7897,-6.8525,-6.8944,-6.9273,-6.9991,-7.0649,-7.0669,-7.0563,-7.014,-6.984,-6.947,-6.9136,-6.8963,-6.8828,-6.876,-6.876,-6.8692,-6.8051,-6.7027,-6.6018,-6.4834,-6.3553,-6.2693,-6.1973,-6.1898,-6.1495,-6.0965,-5.4083,-5.3714,-5.3437,-5.3022,-5.2594,-5.2563,-5.2596,-5.2733,-5.2532,-5.2708,-5.3092,-5.2582,-5.2366,-5.2336,-5.1977,-5.2157,-5.2785,-5.3204,-5.3533,-5.3803,-5.4192,-5.4521,-5.476,-5.479,-5.494,-5.5179,-5.5209,-5.5209,-5.5209,-5.5209,-5.5209,-5.5209,-5.5209,-5.5209,-5.5209,-5.5209,-5.5209,-5.5209,-5.5209,-5.5388,-5.5658,-5.5119,-5.491,-5.5149,-5.5209,-5.5209,-5.5239,-5.5568,-5.5598,-5.5299,-5.5897,-5.6137,-5.5777,-5.6107,-5.6436,-5.6705,-5.7124,-5.7453,-5.7693,-5.868,-5.9398,-5.9668,-6.0326,-6.0984,-6.1613,-6.1702,-6.1433,-6.1044,-6.1044,-6.1373,-6.2181,-6.2331,-6.2899,-6.4246,-6.4366,-6.4455,-6.4934,-6.5383,-6.5622,-6.5652,-6.6191,-6.658,-6.661,-6.6819,-6.6969,-6.7059,-6.7537,-6.7837,-6.7567,-6.8286,-6.8734,-6.8615,-6.9213,-6.9692,-6.9871,-7.0241,-7.0129,-6.9749,-6.9435,-6.9203,-6.9136,-6.8895,-6.8828,-6.876,-6.876,-6.8392,-6.7264,-6.6187,-6.505,-6.3892,-6.2842,-6.2048,-6.2048,-6.1646,-6.1268,-5.456,-5.4022,-5.3806,-5.3437,-5.3006,-5.3191,-5.3392,-5.3606,-5.3387,-5.3546,-5.3851,-5.341,-5.3384,-5.3593,-5.2845,-5.2845,-5.3473,-5.3982,-5.4311,-5.4521,-5.497,-5.5179,-5.5209,-5.5209,-5.5209,-5.5209,-5.5209,-5.5209,-5.5209,-5.5209,-5.5209,-5.5209,-5.5209,-5.5209,-5.5209,-5.5209,-5.5269,-5.5448,-5.5448,-5.5777,-5.6286,-5.5957,-5.5718,-5.5718,-5.5718,-5.5718,-5.5718,-5.6166,-5.6226,-5.5777,-5.6615,-5.6915,-5.6496,-5.7034,-5.7453,-5.7723,-5.8471,-5.886,-5.868,-5.9727,-6.0446,-6.0655,-6.1134,-6.1672,-6.2241,-6.251,-6.26,-6.26,-6.2361,-6.2839,-6.3408,-6.3647,-6.4126,-6.5114,-6.5293,-6.5353,-6.5592,-6.6041,-6.6281,-6.6311,-6.667,-6.6999,-6.6999,-6.7148,-6.7298,-6.7388,-6.7687,-6.7867,-6.7478,-6.8106,-6.8495,-6.8106,-6.8704,-6.9273,-6.9333,-6.9769,-6.9962,-6.985,-6.9634,-6.947,-6.9337,-6.903,-6.8828,-6.876,-6.876,-6.8625,-6.7913,-6.6749,-6.5264,-6.4038,-6.3037,-6.2321,-6.2048,-6.1747,-6.1571,-5.5284,-5.4591,-5.3945,-5.3668,-5.3699,-5.4283,-5.4591,-5.4575,-5.4182,-5.4309,-5.4667,-5.3747,-5.3922,-5.491,-5.3743,-5.3533,-5.4132,-5.4221,-5.4581,-5.5059,-5.5179,-5.5209,-5.5209,-5.5209,-5.5209,-5.5209,-5.5209,-5.5209,-5.5209,-5.5209,-5.5209,-5.5209,-5.5299,-5.5239,-5.5299,-5.5329,-5.5538,-5.6077,-5.6137,-5.6436,-5.6974,-5.7034,-5.6974,-5.7004,-5.6974,-5.6915,-5.6974,-5.7034,-5.7004,-5.6974,-5.7094,-5.7124,-5.7124,-5.7752,-5.8381,-5.9039,-6.0176,-6.0625,-6.0116,-6.0655,-6.1313,-6.1852,-6.2145,-6.2418,-6.3222,-6.376,-6.4088,-6.3945,-6.4541,-6.4482,-6.388,-6.4453,-6.5203,-6.5892,-6.5981,-6.6221,-6.685,-6.682,-6.6939,-6.6909,-6.6999,-6.7119,-6.7059,-6.7537,-6.7867,-6.7956,-6.7986,-6.8016,-6.8016,-6.8076,-6.8166,-6.8345,-6.8974,-6.9901,-6.9931,-7.0136,-7.0216,-7.0081,-6.9903,-6.9803,-6.9337,-6.9098,-6.8895,-6.8828,-6.8828,-6.8692,-6.8528,-6.7541,-6.5905,-6.469,-6.3819,-6.3111,-6.2198,-6.2048,-6.1898,-5.5961,-5.5315,-5.4637,-5.4314,-5.4345,-5.4591,-5.4898,-5.5298,-5.4966,-5.5092,-5.5444,-5.4997,-5.493,-5.5179,-5.47,-5.461,-5.482,-5.485,-5.497,-5.5179,-5.5209,-5.5209,-5.5209,-5.5209,-5.5209,-5.5209,-5.5209,-5.5209,-5.5239,-5.5598,-5.5837,-5.5897,-5.6226,-5.6406,-5.6406,-5.6406,-5.6526,-5.6735,-5.6765,-5.7064,-5.7693,-5.7752,-5.7932,-5.8321,-5.7543,-5.7094,-5.7094,-5.7513,-5.7543,-5.7124,-5.7902,-5.8381,-5.8441,-5.9009,-5.9668,-6.0296,-6.0446,-6.0535,-6.0775,-6.1373,-6.2032,-6.2717,-6.3709,-6.4448,-6.517,-6.5906,-6.6427,-6.655,-6.6985,-6.7135,-6.6694,-6.6124,-6.6162,-6.7184,-6.6974,-6.6943,-6.7548,-6.7396,-6.6999,-6.7059,-6.7328,-6.7627,-6.7747,-6.8196,-6.8615,-6.8675,-6.8974,-6.9004,-6.8794,-6.8944,-6.9064,-6.8764,-6.9034,-6.9482,-6.9961,-7.035,-7.0555,-7.0306,-7.0076,-7.0147,-6.9936,-6.9337,-6.9136,-6.903,-6.8963,-6.876,-6.8625,-6.7982,-6.6398,-6.469,-6.3819,-6.348,-6.2198,-6.2048,-6.1973,-5.6146,-5.5653,-5.5222,-5.4991,-5.5021,-5.5284,-5.5622,-5.6023,-5.5765,-5.5816,-5.6017,-5.5731,-5.5481,-5.533,-5.5259,-5.5209,-5.5209,-5.5179,-5.5179,-5.5209,-5.5209,-5.5209,-5.5209,-5.5209,-5.5209,-5.5239,-5.5418,-5.5598,-5.5837,-5.6256,-5.6436,-5.6526,-5.6885,-5.7094,-5.7094,-5.7094,-5.7184,-5.7363,-5.7423,-5.7752,-5.8351,-5.8441,-5.865,-5.8919,-5.8201,-5.7752,-5.7752,-5.8201,-5.8231,-5.7962,-5.862,-5.9308,-5.9757,-6.0386,-6.0924,-6.1313,-6.1224,-6.1253,-6.1702,-6.2208,-6.3009,-6.4078,-6.498,-6.5919,-6.6874,-6.766,-6.8065,-6.8332,-6.8745,-6.9095,-6.8842,-6.7683,-6.7275,-6.8116,-6.7819,-6.7578,-6.7849,-6.7335,-6.715,-6.7358,-6.7687,-6.8016,-6.8345,-6.8914,-6.9243,-6.9333,-6.9722,-6.9752,-6.9512,-6.9632,-6.9871,-6.9453,-6.9572,-6.9901,-7.026,-7.0649,-7.0769,-7.052,-7.0331,-7.0409,-7.0331,-6.9737,-6.9404,-6.927,-6.9068,-6.8895,-6.8557,-6.8051,-6.6707,-6.4762,-6.4256,-6.4038,-6.3037,-6.2048,-6.2051,-5.5745,-5.5807,-5.5715,-5.5745,-5.5869,-5.6409,-5.6748,-5.6669,-5.6457,-5.636,-5.6323,-5.588,-5.5631,-5.5531,-5.533,-5.5259,-5.5209,-5.5209,-5.5209,-5.5209,-5.5209,-5.5209,-5.5209,-5.5269,-5.5359,-5.5418,-5.5897,-5.6466,-5.6915,-5.7034,-5.7124,-5.7094,-5.7214,-5.7363,-5.7184,-5.7334,-5.7573,-5.8052,-5.8171,-5.8441,-5.9009,-5.9039,-5.9039,-5.9099,-5.8979,-5.8949,-5.8979,-5.9039,-5.8979,-5.8979,-5.9069,-5.9727,-6.0805,-6.1553,-6.2118,-6.2268,-6.266,-6.2959,-6.3134,-6.3454,-6.4486,-6.5677,-6.6155,-6.6976,-6.8051,-6.8806,-6.9231,-6.9493,-6.9709,-6.9833,-6.9776,-6.9143,-6.859,-6.8446,-6.8446,-6.7999,-6.7578,-6.7181,-6.7268,-6.7837,-6.8136,-6.8315,-6.8914,-6.9572,-6.9961,-6.9991,-7.0051,-7.0021,-6.9871,-6.9931,-6.9961,-7.0021,-7.0111,-7.029,-7.062,-7.0889,-7.0889,-7.0824,-7.0569,-7.0528,-7.0367,-7.0002,-6.967,-6.947,-6.9068,-6.8828,-6.876,-6.8284,-6.7683,-6.6186,-6.5704,-6.4836,-6.3808,-6.2896,-6.2414,-5.6748,-5.7038,-5.6656,-5.6748,-5.7087,-5.6933,-5.681,-5.681,-5.6713,-5.6567,-5.6372,-5.6225,-5.5979,-5.5631,-5.5481,-5.5381,-5.5209,-5.5209,-5.5209,-5.5259,-5.5209,-5.5209,-5.5299,-5.5658,-5.6158,-5.6466,-5.6705,-5.6885,-5.7154,-5.7573,-5.7812,-5.7872,-5.8261,-5.8471,-5.8411,-5.8501,-5.88,-5.9338,-5.9009,-5.9129,-5.9668,-5.9338,-5.9129,-5.9099,-5.9099,-5.9099,-5.9099,-5.9099,-5.9099,-5.9099,-5.9099,-5.9727,-6.0924,-6.1928,-6.2822,-6.3604,-6.3284,-6.3549,-6.4432,-6.5197,-6.5677,-6.6281,-6.794,-6.9272,-6.9706,-7.0763,-7.1499,-7.166,-7.1701,-7.1634,-7.158,-7.1415,-7.0862,-7.0325,-6.9178,-6.8807,-6.9087,-6.8788,-6.853,-6.8675,-6.9064,-6.9453,-6.9692,-7.0231,-7.053,-7.053,-7.056,-7.047,-7.0081,-7.0021,-6.9991,-7.0021,-7.029,-7.056,-7.0769,-7.0919,-7.0919,-7.0919,-7.0789,-7.0778,-7.0647,-7.048,-7.0054,-6.9596,-6.9127,-6.8924,-6.8857,-6.8604,-6.8102,-6.7467,-6.6688,-6.5683,-6.4653,-6.3903,-6.3393,-5.7426,-5.7795,-5.7611,-5.7641,-5.7814,-5.7545,-5.738,-5.7242,-5.7495,-5.7353,-5.7019,-5.7132,-5.6634,-5.5998,-5.6195,-5.6096,-5.5681,-5.5842,-5.5963,-5.5943,-5.564,-5.5568,-5.5658,-5.6196,-5.6855,-5.7363,-5.7483,-5.7603,-5.7872,-5.8261,-5.8471,-5.859,-5.8919,-5.9069,-5.9099,-5.9129,-5.9338,-5.9608,-5.9308,-5.9308,-5.9608,-5.9548,-5.9488,-5.9518,-5.9727,-5.9847,-5.9847,-5.9956,-5.9771,-5.9471,-5.9819,-6.0806,-6.207,-6.2992,-6.3921,-6.4677,-6.4621,-6.4795,-6.6032,-6.6388,-6.7244,-6.8044,-6.9658,-7.0909,-7.1324,-7.2497,-7.2847,-7.3005,-7.2635,-7.2422,-7.2315,-7.2014,-7.1839,-7.1743,-7.0337,-6.9752,-7.0165,-6.9854,-6.9504,-6.9493,-6.9692,-7.0051,-7.038,-7.059,-7.0769,-7.0649,-7.0769,-7.0679,-7.0231,-7.0201,-7.0231,-7.029,-7.047,-7.0679,-7.0859,-7.0919,-7.0919,-7.0919,-7.0854,-7.1093,-7.1177,-7.0968,-7.0666,-6.9919,-6.9389,-6.9215,-6.9147,-6.9263,-6.89,-6.8256,-6.7704,-6.6761,-6.5775,-6.4958,-6.435,-5.7826,-5.7999,-5.8566,-5.8461,-5.8115,-5.8462,-5.8358,-5.8011,-5.8501,-5.8409,-5.8041,-5.8194,-5.7637,-5.67,-5.7416,-5.743,-5.6739,-5.7056,-5.7301,-5.7181,-5.6768,-5.6428,-5.6496,-5.6944,-5.7513,-5.8082,-5.8171,-5.8471,-5.886,-5.8979,-5.9099,-5.9039,-5.9069,-5.9099,-5.9099,-5.9099,-5.9159,-5.9308,-5.9189,-5.9159,-5.9398,-5.9757,-6.0141,-6.0201,-6.0655,-6.098,-6.1061,-6.1343,-6.1001,-6.0126,-6.131,-6.2657,-6.3841,-6.4718,-6.5356,-6.5994,-6.6085,-6.6705,-6.7531,-6.7579,-6.8101,-7.0425,-7.079,-7.1027,-7.2632,-7.2952,-7.311,-7.3214,-7.2741,-7.2315,-7.2014,-7.173,-7.1885,-7.254,-7.1766,-7.0824,-6.9786,-7.0129,-7.0211,-7.0063,-7.0051,-7.0201,-7.0709,-7.0829,-7.053,-7.032,-7.053,-7.05,-6.9961,-6.9931,-7.059,-7.062,-7.035,-7.0679,-7.0799,-7.0919,-7.0949,-7.1278,-7.1248,-7.1427,-7.1541,-7.1302,-7.1029,-7.0346,-6.9573,-6.9428,-6.9379,-6.9437,-6.9696,-6.9575,-6.8753,-6.7814,-6.6953,-6.6201,-6.5193,-5.8399,-5.9305,-5.895,-5.9018,-5.926,-5.9,-5.875,-5.8655,-5.885,-5.8863,-5.8683,-5.8728,-5.8546,-5.798,-5.8732,-5.886,-5.8498,-5.8381,-5.8442,-5.8535,-5.8174,-5.7813,-5.7685,-5.7752,-5.8171,-5.874,-5.88,-5.8949,-5.9099,-5.9099,-5.9099,-5.9099,-5.9099,-5.9099,-5.9099,-5.9099,-5.9398,-5.9668,-5.9308,-5.9608,-6.0356,-6.0176,-6.0436,-6.1082,-6.1156,-6.1413,-6.183,-6.25,-6.2677,-6.2238,-6.3097,-6.4005,-6.4805,-6.5559,-6.6345,-6.6925,-6.6902,-6.7108,-6.8047,-6.9064,-6.9752,-6.9737,-7.1745,-7.2952,-7.2559,-7.3214,-7.3403,-7.3266,-7.2603,-7.2208,-7.2273,-7.2279,-7.2834,-7.3697,-7.2902,-7.1929,-7.1218,-7.089,-7.0727,-7.0654,-7.026,-7.038,-7.0649,-7.059,-7.026,-7.0171,-7.038,-7.044,-6.9692,-6.9812,-7.05,-6.9961,-6.9782,-7.035,-7.0709,-7.0829,-7.1098,-7.1577,-7.1727,-7.1757,-7.1679,-7.1407,-7.114,-7.0649,-6.9515,-6.9089,-6.9263,-6.9379,-6.9846,-7.0288,-6.9622,-6.8622,-6.8216,-6.7528,-6.625,-5.9627,-6.0366,-6.0204,-6.0191,-6.0289,-5.9854,-5.972,-5.9838,-5.9924,-5.9751,-5.9619,-5.9925,-5.9749,-5.937,-6.0328,-6.0412,-5.9853,-5.9895,-5.9768,-5.9425,-5.9253,-5.898,-5.8744,-5.8584,-5.874,-5.9039,-5.9099,-5.9099,-5.9099,-5.9099,-5.9099,-5.9099,-5.9099,-5.9099,-5.9099,-5.9207,-5.9357,-5.9572,-5.9417,-5.9747,-6.0565,-6.0706,-6.1172,-6.185,-6.2126,-6.2621,-6.3371,-6.399,-6.4173,-6.4209,-6.4713,-6.5381,-6.6185,-6.6698,-6.7338,-6.804,-6.7895,-6.8246,-6.9313,-7.0361,-7.083,-7.1176,-7.3018,-7.3252,-7.3181,-7.3506,-7.3661,-7.3285,-7.2497,-7.2176,-7.2251,-7.2526,-7.2956,-7.3281,-7.3115,-7.2626,-7.2192,-7.175,-7.1379,-7.0993,-7.062,-7.047,-7.0859,-7.056,-7.026,-7.0171,-7.05,-7.0081,-6.9453,-6.9931,-7.0231,-6.9901,-6.9871,-7.047,-7.0769,-7.0859,-7.1098,-7.1577,-7.2325,-7.2325,-7.2335,-7.1971,-7.1457,-7.0943,-6.9661,-6.8944,-6.9263,-6.9554,-6.9978,-7.0123,-6.9789,-6.9307,-6.8725,-6.825,-6.7057,-6.1106,-6.1288,-6.1851,-6.1806,-6.1293,-6.112,-6.1103,-6.1241,-6.1234,-6.0978,-6.0717,-6.1409,-6.1273,-6.0635,-6.2035,-6.2147,-6.1163,-6.1646,-6.1211,-6.0771,-6.0496,-6.0411,-6.0089,-5.9379,-5.9255,-5.9291,-5.9237,-5.9207,-5.9207,-5.9153,-5.9153,-5.9153,-5.9153,-5.9153,-5.9261,-5.9422,-5.9369,-5.9321,-5.9429,-5.9982,-6.0711,-6.1217,-6.1871,-6.3047,-6.3715,-6.4436,-6.515,-6.56,-6.5722,-6.5871,-6.6037,-6.6739,-6.7754,-6.8027,-6.8448,-6.8934,-6.9232,-6.989,-7.0989,-7.0878,-7.1493,-7.3064,-7.3149,-7.3266,-7.3661,-7.3848,-7.3661,-7.3129,-7.2497,-7.2251,-7.2443,-7.2641,-7.298,-7.3085,-7.3014,-7.2782,-7.273,-7.246,-7.1886,-7.0993,-7.0769,-7.0799,-7.0799,-7.0769,-7.056,-7.0081,-7.038,-7.0171,-6.9842,-7.0141,-7.041,-7.038,-7.05,-7.0799,-7.0889,-7.0889,-7.1158,-7.1577,-7.2624,-7.3073,-7.3358,-7.296,-7.2167,-7.1317,-7.0108,-6.9574,-6.9583,-6.9873,-7.0018,-7.0239,-7.0094,-6.9394,-6.864,-6.828,-6.7441,-6.167,-6.2737,-6.2844,-6.2907,-6.282,-6.2333,-6.2224,-6.2374,-6.1881,-6.1614,-6.1599,-6.2197,-6.2448,-6.2348,-6.3666,-6.4195,-6.3582,-6.3492,-6.3131,-6.2294,-6.2553,-6.2502,-6.1909,-6.0701,-5.9933,-5.988,-5.9827,-5.972,-5.9529,-5.9529,-5.9422,-5.9476,-5.9422,-5.9345,-5.9773,-5.969,-5.9476,-5.9422,-5.9529,-6.0532,-6.1713,-6.1807,-6.2665,-6.4536,-6.5201,-6.5626,-6.6212,-6.6967,-6.7604,-6.7939,-6.7754,-6.7812,-6.8544,-6.925,-6.96,-6.9865,-7.0519,-7.1076,-7.1516,-7.1982,-7.2497,-7.3129,-7.3679,-7.3968,-7.407,-7.412,-7.3577,-7.2867,-7.2443,-7.2628,-7.3058,-7.3325,-7.3564,-7.3781,-7.3359,-7.267,-7.2428,-7.1762,-7.1032,-7.0479,-7.026,-7.0171,-7.0201,-7.032,-7.0201,-7.0081,-7.0171,-7.026,-7.035,-7.044,-7.053,-7.062,-7.0739,-7.0889,-7.0919,-7.0979,-7.1248,-7.1547,-7.2475,-7.3462,-7.3746,-7.3563,-7.262,-7.1581,-7.0556,-7.0176,-6.967,-6.9408,-6.9379,-6.9873,-7.0228,-6.928,-6.8485,-6.8179,-6.7558,-6.3166,-6.3838,-6.3826,-6.3961,-6.4039,-6.3439,-6.3186,-6.3166,-6.2669,-6.2408,-6.2475,-6.2925,-6.3511,-6.4184,-6.495,-6.5167,-6.484,-6.425,-6.375,-6.3324,-6.3466,-6.3466,-6.3292,-6.2404,-6.1621,-6.1266,-6.0835,-6.0732,-6.068,-6.0189,-6.0136,-6.0701,-6.0316,-6.0263,-6.0503,-6.0451,-6.0189,-5.9902,-6.0167,-6.1199,-6.2624,-6.303,-6.3626,-6.5498,-6.614,-6.6436,-6.6717,-6.742,-6.8212,-6.8612,-6.8581,-6.852,-6.8972,-6.9729,-7.0186,-7.0325,-7.1021,-7.1733,-7.2197,-7.2603,-7.3025,-7.3441,-7.3968,-7.4352,-7.4487,-7.4453,-7.3825,-7.3107,-7.2821,-7.2886,-7.3379,-7.2884,-7.3302,-7.3725,-7.3218,-7.2367,-7.1797,-7.1212,-7.0649,-7.0231,-7.029,-7.0201,-7.0141,-7.0081,-7.038,-7.05,-7.053,-7.062,-7.062,-7.0709,-7.0679,-7.0739,-7.0829,-7.0889,-7.0889,-7.1038,-7.1338,-7.1667,-7.2176,-7.3133,-7.3754,-7.3385,-7.2797,-7.1797,-7.077,-6.9816,-6.9321,-6.906,-6.8915,-6.9234,-6.9258,-6.8641,-6.8165,-6.7699,-6.6915,-6.4774,-6.4786,-6.4819,-6.5,-6.5081,-6.4476,-6.4162,-6.4103,-6.347,-6.3215,-6.3424,-6.362,-6.4329,-6.5459,-6.579,-6.5697,-6.5337,-6.4811,-6.4433,-6.4309,-6.4492,-6.4492,-6.4355,-6.4216,-6.3891,-6.3148,-6.2306,-6.2157,-6.1891,-6.1266,-6.1317,-6.209,-6.164,-6.1368,-6.1469,-6.152,-6.1317,-6.0815,-6.1175,-6.2257,-6.3505,-6.418,-6.4904,-6.6126,-6.6845,-6.7229,-6.7512,-6.8126,-6.8683,-6.9236,-6.9151,-6.9151,-6.9499,-6.9901,-7.055,-7.0662,-7.1625,-7.2411,-7.2972,-7.3181,-7.3473,-7.4171,-7.4387,-7.4553,-7.4818,-7.4464,-7.3881,-7.3409,-7.3015,-7.2972,-7.3347,-7.2737,-7.2621,-7.2977,-7.2765,-7.1873,-7.1194,-7.0894,-7.041,-6.9961,-6.9871,-6.9842,-6.9991,-7.0051,-7.05,-7.0889,-7.0889,-7.0919,-7.0919,-7.0889,-7.0829,-7.0829,-7.0859,-7.0889,-7.0889,-7.0949,-7.1248,-7.1697,-7.2056,-7.2864,-7.3664,-7.3652,-7.3162,-7.1953,-7.0965,-7.0069,-6.9234,-6.8944,-6.8789,-6.876,-6.8652,-6.8437,-6.7903,-6.7193,-6.6499,-6.5297,-6.5845,-6.5845,-6.6009,-6.6115,-6.5487,-6.5211,-6.5166,-6.4059,-6.3863,-6.4336,-6.4404,-6.4884,-6.5696,-6.6406,-6.6457,-6.6182,-6.5845,-6.5757,-6.568,-6.5888,-6.5975,-6.5801,-6.5845,-6.5888,-6.5492,-6.4309,-6.3387,-6.3052,-6.2665,-6.26,-6.2746,-6.2404,-6.2337,-6.2534,-6.2614,-6.2386,-6.2022,-6.2351,-6.3362,-6.486,-6.5427,-6.5833,-6.7121,-6.7919,-6.835,-6.8826,-6.9477,-7.0199,-7.091,-7.0381,-7.0438,-7.0854,-7.1186,-7.1602,-7.2197,-7.3025,-7.3544,-7.3782,-7.3884,-7.4019,-7.4303,-7.4652,-7.4668,-7.4482,-7.4154,-7.3724,-7.3099,-7.2799,-7.2953,-7.4833,-7.3507,-7.3317,-7.3638,-7.2981,-7.1843,-7.1325,-7.0667,-6.9995,-6.9453,-6.9393,-6.9453,-6.9632,-6.9931,-7.041,-7.0769,-7.0889,-7.0919,-7.0919,-7.0919,-7.0889,-7.0889,-7.0889,-7.0919,-7.0919,-7.0949,-7.1128,-7.1637,-7.2086,-7.2744,-7.3447,-7.4019,-7.3556,-7.2139,-7.118,-7.0429,-6.9729,-6.8973,-6.876,-6.876,-6.8594,-6.8453,-6.782,-6.7211,-6.6637,-6.5966,-6.6302,-6.6302,-6.643,-6.6567,-6.6272,-6.5951,-6.5628,-6.4952,-6.4816,-6.5087,-6.5189,-6.5561,-6.6203,-6.6609,-6.6728,-6.6677,-6.6677,-6.6558,-6.6558,-6.6686,-6.677,-6.6677,-6.677,-6.6677,-6.6345,-6.5669,-6.5024,-6.4538,-6.3609,-6.3782,-6.4203,-6.3735,-6.3483,-6.3626,-6.3578,-6.3292,-6.3148,-6.3341,-6.4288,-6.6323,-6.6999,-6.8287,-6.8848,-6.9476,-6.9863,-6.9926,-7.0505,-7.0989,-7.1296,-7.1076,-7.1438,-7.1928,-7.2251,-7.2411,-7.2972,-7.3731,-7.4221,-7.4221,-7.4221,-7.4171,-7.4204,-7.4568,-7.453,-7.4225,-7.3966,-7.3678,-7.3054,-7.268,-7.3058,-7.4735,-7.3753,-7.3759,-7.4218,-7.3349,-7.221,-7.1392,-7.0564,-6.9769,-6.9097,-6.9034,-6.9123,-6.9213,-6.9632,-7.0231,-7.059,-7.0859,-7.0919,-7.0919,-7.0919,-7.0919,-7.0919,-7.0919,-7.0919,-7.0919,-7.0949,-7.0979,-7.1427,-7.1936,-7.2565,-7.3066,-7.355,-7.3121,-7.2031,-7.1278,-7.08,-6.9671,-6.876,-6.876,-6.876,-6.8711,-6.8493,-6.7863,-6.7211,-6.6658,-6.655,-6.655,-6.655,-6.6643,-6.677,-6.6812,-6.6474,-6.5967,-6.573,-6.573,-6.5899,-6.5764,-6.6068,-6.6643,-6.6812,-6.677,-6.6812,-6.677,-6.677,-6.677,-6.677,-6.6812,-6.6812,-6.677,-6.6728,-6.6635,-6.6558,-6.6601,-6.5878,-6.4877,-6.5,-6.5225,-6.4955,-6.4813,-6.4912,-6.5056,-6.4417,-6.4309,-6.4457,-6.5549,-6.7197,-6.9156,-7.062,-7.0833,-7.1325,-7.1274,-7.1145,-7.1499,-7.195,-7.209,-7.2004,-7.2197,-7.2972,-7.3129,-7.3129,-7.3233,-7.3833,-7.412,-7.4221,-7.4221,-7.4221,-7.4221,-7.4151,-7.4089,-7.3933,-7.3821,-7.3506,-7.2839,-7.2906,-7.3297,-7.4471,-7.3996,-7.4139,-7.4403,-7.3813,-7.2517,-7.1615,-7.0754,-6.981,-6.9228,-6.895,-6.8824,-6.8944,-6.9273,-6.9842,-7.062,-7.0919,-7.0919,-7.0919,-7.0919,-7.0919,-7.0919,-7.0919,-7.0919,-7.0919,-7.0919,-7.0919,-7.1068,-7.1547,-7.2056,-7.2595,-7.3066,-7.2484,-7.2146,-7.1718,-7.1053,-6.9768,-6.8828,-6.876,-6.876,-6.876,-6.8504,-6.799,-6.7435,-6.6868,-6.677,-6.677,-6.677,-6.677,-6.6812,-6.6812,-6.6779,-6.6576,-6.6,-6.6102,-6.6542,-6.6068,-6.617,-6.6677,-6.6812,-6.6812,-6.6812,-6.6812,-6.6812,-6.6812,-6.6812,-6.6812,-6.6846,-6.6812,-6.6905,-6.6931,-6.6939,-6.6643,-6.6556,-6.6219,-6.6042,-6.6215,-6.6099,-6.6101,-6.6423,-6.6545,-6.6801,-6.6767,-6.7131,-6.7711,-6.8437,-6.9485,-7.0282,-7.0848,-7.1512,-7.2144,-7.2436,-7.2697,-7.294,-7.3577,-7.3077,-7.3181,-7.3884,-7.407,-7.407,-7.407,-7.4171,-7.4221,-7.4221,-7.4221,-7.4221,-7.4169,-7.4056,-7.4051,-7.3905,-7.3345,-7.2709,-7.1852,-7.2668,-7.3627,-7.4323,-7.4441,-7.4785,-7.4442,-7.3752,-7.2859,-7.1989,-7.0668,-6.9754,-6.8902,-6.8413,-6.8528,-6.8675,-6.9064,-6.9482,-7.029,-7.0889,-7.0889,-7.0919,-7.0919,-7.0919,-7.0919,-7.0919,-7.0919,-7.0919,-7.0919,-7.0919,-7.0919,-7.1188,-7.1637,-7.2206,-7.2648,-7.2842,-7.2438,-7.1981,-7.1034,-6.9632,-6.8895,-6.8828,-6.876,-6.876,-6.8533,-6.8088,-6.7513,-6.6953,-6.6812,-6.6812,-6.6812,-6.6812,-6.6812,-6.6812,-6.6812,-6.6745,-6.6508,-6.6508,-6.6745,-6.6508,-6.6508,-6.6779,-6.6812,-6.6812,-6.6812,-6.6812,-6.6812,-6.6846,-6.6846,-6.6846,-6.6914,-6.7218,-6.7421,-6.7523,-6.7861,-6.8156,-6.7757,-6.6954,-6.6507,-6.6565,-6.6695,-6.6788,-6.7445,-6.7703,-6.7803,-6.7948,-6.8347,-6.8851,-6.95,-7.0402,-7.1308,-7.2031,-7.274,-7.3215,-7.3478,-7.3628,-7.3782,-7.412,-7.3731,-7.3782,-7.412,-7.4171,-7.4171,-7.4171,-7.4171,-7.4221,-7.4221,-7.4221,-7.4221,-7.4171,-7.4097,-7.4148,-7.3917,-7.294,-7.2036,-7.157,-7.2796,-7.3588,-7.3827,-7.4102,-7.449,-7.4357,-7.3599,-7.2737,-7.1841,-7.0705,-6.9606,-6.8723,-6.7994,-6.8111,-6.8258,-6.8405,-6.8944,-6.9901,-7.047,-7.059,-7.0739,-7.0919,-7.0919,-7.0919,-7.0919,-7.0919,-7.0919,-7.0919,-7.0919,-7.0919,-7.0919,-7.1368,-7.1966,-7.2349,-7.2514,-7.2395,-7.1842,-7.072,-6.9369,-6.8963,-6.8828,-6.876,-6.876,-6.8544,-6.8279,-6.7557,-6.6907,-6.6812,-6.6812,-6.6812,-6.6812,-6.6812,-6.6812,-6.6812,-6.6812,-6.6812,-6.6812,-6.6812,-6.6779,-6.6779,-6.6812,-6.6812,-6.6812,-6.6812,-6.6812,-6.6812,-6.6846,-6.6981,-6.7117,-6.7387,-6.7793,-6.8199,-6.8199,-6.8605,-6.8876,-6.8553,-6.7959,-6.7343,-6.7165,-6.7651,-6.789,-6.8159,-6.8595,-6.9043,-6.9546,-6.9486,-6.971,-7.0353,-7.1618,-7.2283,-7.2945,-7.3608,-7.4221,-7.4221,-7.4171,-7.4171,-7.4171,-7.4171,-7.412,-7.4221,-7.4221,-7.4221,-7.4221,-7.4221,-7.4221,-7.4221,-7.4221,-7.4221,-7.4221,-7.4171,-7.4085,-7.3609,-7.2411,-7.1894,-7.2218,-7.2915,-7.3281,-7.3275,-7.4139,-7.4494,-7.4294,-7.3414,-7.2491,-7.1537,-7.0434,-6.9548,-6.8848,-6.815,-6.7572,-6.7629,-6.7719,-6.8315,-6.9423,-6.9961,-7.026,-7.059,-7.0889,-7.0919,-7.0919,-7.0919,-7.0919,-7.0919,-7.0919,-7.0919,-7.0919,-7.0919,-7.1038,-7.1547,-7.193,-7.2156,-7.1949,-7.1613,-7.0884,-6.9796,-6.9263,-6.876,-6.876,-6.876,-6.876,-6.8493,-6.7676,-6.6766,-6.6812,-6.6812,-6.6812,-6.6812,-6.6812,-6.6812,-6.6812,-6.6812,-6.6812,-6.6812,-6.6812,-6.6846,-6.6914,-6.688,-6.6981,-6.6981,-6.6812,-6.6812,-6.6914,-6.7151,-6.7455,-6.7726,-6.8064,-6.8538,-6.9011,-6.9011,-6.935,-6.935,-6.9214,-6.9373,-6.8968,-6.8934,-6.8847,-6.9363,-6.9634,-6.9782,-7.0434,-7.087,-7.0775,-7.071,-7.1389,-7.2359,-7.2927,-7.263,-7.3409,-7.4221,-7.4221,-7.4221,-7.4221,-7.4221,-7.4221,-7.4221,-7.4221,-7.4221,-7.4221,-7.4221,-7.4221,-7.4221,-7.4221,-7.4221,-7.4221,-7.4221,-7.4171,-7.3935,-7.3473,-7.2251,-7.2185,-7.3113,-7.3259,-7.3625,-7.4117,-7.4965,-7.462,-7.3991,-7.3075,-7.2274,-7.1322,-7.022,-6.9397,-6.888,-6.8273,-6.7636,-6.7301,-6.739,-6.7777,-6.8824,-6.9871,-7.0201,-7.062,-7.0919,-7.0919,-7.0919,-7.0919,-7.0919,-7.0919,-7.0919,-7.0919,-7.0919,-7.0919,-7.0919,-7.1068,-7.1422,-7.1954,-7.1569,-7.1236,-7.0746,-7.0224,-6.9418,-6.8857,-6.8828,-6.8789,-6.8672,-6.8331,-6.7617,-6.6631,-6.6812,-6.6812,-6.6812,-6.6812,-6.6812,-6.6812,-6.6812,-6.6812,-6.6812,-6.6812,-6.6846,-6.7252,-6.7218,-6.7151,-6.7827,-6.7658,-6.7015,-6.7354,-6.7421,-6.7523,-6.7793,-6.8166,-6.8673,-6.9282,-6.9755,-6.9857,-7.0161,-7.0466,-7.0534,-7.0601,-7.0703,-7.0534,-6.9958,-6.9925,-7.0195,-7.0669,-7.1312,-7.1702,-7.1732,-7.1634,-7.2104,-7.2807,-7.3242,-7.2846,-7.3541,-7.4155,-7.4221,-7.4221,-7.4221,-7.4221,-7.4221,-7.4221,-7.4221,-7.4221,-7.4221,-7.4221,-7.4221,-7.4221,-7.4221,-7.4221,-7.4221,-7.4221,-7.4171,-7.4019,-7.3473,-7.2358,-7.2499,-7.2916,-7.2818,-7.2827,-7.3755,-7.3945,-7.3691,-7.3322,-7.2767,-7.1967,-7.1076,-6.9943,-6.9242,-6.8727,-6.8153,-6.7516,-6.7334,-6.7151,-6.7629,-6.8256,-6.9273,-7.0171,-7.062,-7.0919,-7.0919,-7.0919,-7.0919,-7.0919,-7.0919,-7.0919,-7.0919,-7.0919,-7.0919,-7.0919,-7.0949,-7.1457,-7.184,-7.1331,-7.0918,-7.0518,-6.9969,-6.9272,-6.8924,-6.8828,-6.8633,-6.8493,-6.7975,-6.7396,-6.661,-6.6812,-6.6812,-6.6812,-6.6812,-6.6812,-6.6812,-6.6812,-6.6812,-6.6812,-6.6981,-6.7151,-6.7658,-6.7827,-6.7861,-6.8436,-6.8605,-6.7895,-6.803,-6.8199,-6.8368,-6.8605,-6.891,-6.9485,-7.006,-7.0534,-7.0669,-7.0939,-7.1244,-7.1176,-7.1819,-7.1548,-7.1109,-7.0838,-7.0601,-7.0669,-7.0918,-7.157,-7.2266,-7.2397,-7.2546,-7.2901,-7.3587,-7.3557,-7.3343,-7.3773,-7.4155,-7.4221,-7.4221,-7.4221,-7.4221,-7.4221,-7.4221,-7.4221,-7.4221,-7.4221,-7.4221,-7.4221,-7.4221,-7.4221,-7.4221,-7.4221,-7.4221,-7.4221,-7.4037,-7.3492,-7.2497,-7.239,-7.3847,-7.2667,-7.2008,-7.3529,-7.4046,-7.3382,-7.2952,-7.2119,-7.129,-7.0553,-6.9665,-6.9056,-6.851,-6.803,-6.7608,-6.7365,-6.7242,-6.7719,-6.8196,-6.8944,-6.9931,-7.0709,-7.0919,-7.0919,-7.0919,-7.0919,-7.0919,-7.0919,-7.0919,-7.0919,-7.0919,-7.0919,-7.0919,-7.1068,-7.1487,-7.1512,-7.0944,-7.0592,-7.0319,-6.9831,-6.9156,-6.8895,-6.8828,-6.8633,-6.8504,-6.7719,-6.7147,-6.6514,-6.6812,-6.6812,-6.6812,-6.6812,-6.6812,-6.6812,-6.6812,-6.6812,-6.6812,-6.7184,-6.7726,-6.7963,-6.8368,-6.8808,-6.9214,-6.9113,-6.8876,-6.8944,-6.9079,-6.918,-6.9485,-6.9958,-7.0364,-7.077,-7.1041,-7.1244,-7.1447,-7.1515,-7.1413,-7.1819,-7.165,-7.1413,-7.1244,-7.1109,-7.1199,-7.1052,-7.1828,-7.3147,-7.3096,-7.3399,-7.383,-7.4451,-7.404,-7.3675,-7.384,-7.4221,-7.4221,-7.4221,-7.4221,-7.4221,-7.4221,-7.4221,-7.4221,-7.4221,-7.4221,-7.4221,-7.4221,-7.4221,-7.4221,-7.4221,-7.4221,-7.412,-7.407,-7.3782,-7.3025,-7.2348,-7.2584,-7.4409,-7.3129,-7.3285,-7.4193,-7.4554,-7.3223,-7.2304,-7.1473,-7.0798,-7.0061,-6.9507,-6.8958,-6.8566,-6.8269,-6.785,-6.7548,-6.7394,-6.7809,-6.8315,-6.8794,-6.9572,-7.05,-7.0889,-7.0889,-7.0919,-7.0919,-7.0919,-7.0919,-7.0919,-7.0919,-7.0919,-7.0919,-7.0919,-7.0919,-7.1098,-7.0938,-7.0528,-7.0259,-7.0046,-6.9588,-6.903,-6.8895,-6.876,-6.876,-6.8504,-6.7676,-6.6926,-6.6423,-6.6812,-6.6812,-6.6812,-6.6812,-6.6812,-6.6812,-6.6812,-6.6812,-6.688,-6.7218,-6.7929,-6.8402,-6.8774,-6.9282,-6.9992,-7.0026,-6.9316,-6.9722,-6.9823,-6.9857,-7.0161,-7.05,-7.0872,-7.1109,-7.1312,-7.1447,-7.1684,-7.1988,-7.2056,-7.2259,-7.2293,-7.2124,-7.1548,-7.1312,-7.1402,-7.1627,-7.2518,-7.3363,-7.3716,-7.4071,-7.4582,-7.4687,-7.4473,-7.3824,-7.4038,-7.4221,-7.4221,-7.4221,-7.4221,-7.4221,-7.4221,-7.4221,-7.4221,-7.4221,-7.4221,-7.4221,-7.4221,-7.4221,-7.4221,-7.4221,-7.4221,-7.407,-7.3679,-7.3525,-7.3525,-7.2251,-7.3296,-7.429,-7.298,-7.3251,-7.4218,-7.2833,-7.1686,-7.1319,-7.0736,-7.0336,-6.9782,-6.9289,-6.883,-6.8713,-6.8476,-6.7999,-6.7608,-6.7334,-6.7661,-6.8046,-6.8495,-6.9243,-7.0141,-7.0679,-7.0889,-7.0889,-7.0919,-7.0919,-7.0919,-7.0919,-7.0919,-7.0919,-7.0919,-7.0919,-7.0919,-7.0919,-7.0854,-7.0724,-7.0265,-6.9803,-6.947,-6.9165,-6.8895,-6.876,-6.876,-6.8424,-6.7617,-6.6991,-6.6562,-6.6812,-6.6812,-6.6812,-6.6812,-6.6812,-6.6812,-6.6812,-6.6846,-6.7083,-6.7624,-6.8368,-6.9147,-6.9688,-7.0128,-7.0669,-7.1007,-6.9958,-7.0331,-7.0567,-7.0567,-7.0601,-7.0906,-7.1176,-7.1312,-7.1312,-7.1515,-7.1988,-7.236,-7.2326,-7.2834,-7.2563,-7.1988,-7.1819,-7.1785,-7.1887,-7.2225,-7.2868,-7.3667,-7.4155,-7.4388,-7.4667,-7.4722,-7.4506,-7.4239,-7.4221,-7.4221,-7.4221,-7.4221,-7.4221,-7.4221,-7.4221,-7.4221,-7.4221,-7.4221,-7.4221,-7.4221,-7.4221,-7.4221,-7.4221,-7.4221,-7.4221,-7.4171,-7.3337,-7.3025,-7.3129,-7.2004,-7.2778,-7.3273,-7.2397,-7.2857,-7.3404,-7.1724,-7.0886,-7.0582,-7.0274,-6.9905,-6.9474,-6.8982,-6.8889,-6.883,-6.8595,-6.8119,-6.7669,-6.7456,-6.7422,-6.7841,-6.8196,-6.8974,-6.9722,-7.026,-7.0739,-7.0829,-7.0889,-7.0919,-7.0919,-7.0919,-7.0919,-7.0919,-7.0919,-7.0919,-7.0919,-7.0919,-7.0919,-7.0854,-7.0462,-7.0002,-6.9604,-6.927,-6.8963,-6.876,-6.876,-6.8319,-6.7557,-6.7083,-6.6726,-6.6812,-6.6812,-6.6812,-6.6812,-6.6812,-6.6812,-6.6812,-6.688,-6.7557,-6.8301,-6.9113,-6.9755,-7.0398,-7.1075,-7.1312,-7.121,-7.1109,-7.1176,-7.1176,-7.121,-7.1109,-7.1278,-7.1278,-7.1312,-7.1312,-7.1548,-7.2056,-7.2597,-7.2462,-7.2563,-7.2157,-7.1819,-7.209,-7.2326,-7.2563,-7.2902,-7.3477,-7.4093,-7.4397,-7.4642,-7.4868,-7.4672,-7.4423,-7.4272,-7.4221,-7.4221,-7.4221,-7.4221,-7.4221,-7.4221,-7.4221,-7.4221,-7.4221,-7.4221,-7.4221,-7.4221,-7.4221,-7.4221,-7.4221,-7.4221,-7.4221,-7.412,-7.337,-7.2517,-7.2197,-7.2176,-7.2682,-7.2819,-7.2261,-7.262,-7.2775,-7.1554,-7.0396,-7.012,-6.9874,-6.9505,-6.9105,-6.8889,-6.8889,-6.8772,-6.8564,-6.8179,-6.7759,-6.7517,-6.7425,-6.7391,-6.7747,-6.8345,-6.9123,-6.9871,-7.032,-7.0679,-7.0739,-7.0889,-7.0889,-7.0889,-7.0919,-7.0919,-7.0919,-7.0919,-7.0919,-7.0919,-7.0919,-7.0789,-7.0593,-7.0134,-6.947,-6.9098,-6.8895,-6.876,-6.876,-6.8453,-6.7805,-6.7301,-6.686,-6.6812,-6.6812,-6.6812,-6.6812,-6.6812,-6.6812,-6.6812,-6.6914,-6.759,-6.8368,-6.9147,-6.9891,-7.0669,-7.1278,-7.1312,-7.1312,-7.1312,-7.1312,-7.1312,-7.1312,-7.1312,-7.1312,-7.1312,-7.1312,-7.1312,-7.1751,-7.2326,-7.2868,-7.2529,-7.2428,-7.2394,-7.2225,-7.2462,-7.3003,-7.3578,-7.395,-7.4289,-7.4533,-7.4719,-7.4862,-7.4819,-7.4622,-7.4372,-7.4272,-7.4221,-7.4221,-7.4221,-7.4221,-7.4221,-7.4221,-7.4221,-7.4221,-7.4221,-7.4221,-7.4221,-7.4221,-7.4221,-7.4221,-7.4221,-7.4221,-7.4221,-7.407,-7.3422,-7.3422,-7.3077,-7.2827,-7.2681,-7.242,-7.1879,-7.1998,-7.1737,-7.0696,-6.9898,-6.9536,-6.9351,-6.9197,-6.8889,-6.8889,-6.8889,-6.8861,-6.8654,-6.839,-6.797,-6.7729,-6.7637,-6.7302,-6.7298,-6.7867,-6.8435,-6.9183,-6.9812,-7.0171,-7.056,-7.0679,-7.0829,-7.0859,-7.0889,-7.0919,-7.0919,-7.0919,-7.0919,-7.0919,-7.0919,-7.0724,-7.0462,-6.9803,-6.9098,-6.8828,-6.876,-6.876,-6.8789,-6.8453,-6.8129,-6.7645,-6.7037,-6.6812,-6.6812,-6.6812,-6.6812,-6.6812,-6.6812,-6.6812,-6.7015,-6.7929,-6.8673,-6.918,-7.0229,-7.0872,-7.1244,-7.1312,-7.1312,-7.1312,-7.1312,-7.1312,-7.1312,-7.1312,-7.1312,-7.1312,-7.1345,-7.1515,-7.2056,-7.2699,-7.3206,-7.2902,-7.28,-7.2766,-7.2428,-7.28,-7.3713,-7.439,-7.4762,-7.4965,-7.5059,-7.5104,-7.5146,-7.4935,-7.4722,-7.4523,-7.4372,-7.4322,-7.4272,-7.4221,-7.4221,-7.4221,-7.4221,-7.4221,-7.4221,-7.4221,-7.4221,-7.4221,-7.4221,-7.4221,-7.4221,-7.4221,-7.4221,-7.4221,-7.407,-7.3731,-7.3782,-7.3389,-7.2952,-7.2691,-7.2314,-7.1552,-7.0933,-7.0349,-6.9837,-6.9395,-6.892,-6.892,-6.892,-6.8889,-6.8889,-6.892,-6.892,-6.8746,-6.86,-6.8393,-6.8153,-6.7789,-6.7272,-6.7059,-6.7268,-6.7777,-6.8345,-6.9004,-6.9512,-7.0051,-7.044,-7.062,-7.0799,-7.0859,-7.0889,-7.0919,-7.0919,-7.0919,-7.0824,-7.0824,-7.0563,-7.0265,-6.967,-6.9098,-6.8895,-6.876,-6.876,-6.876,-6.8662,-6.8331,-6.7962,-6.7435,-6.6812,-6.6812,-6.6812,-6.6812,-6.6812,-6.6812,-6.688,-6.7083,-6.8436,-6.9079,-6.9383,-7.0635,-7.1244,-7.1312,-7.1312,-7.1312,-7.1312,-7.1312,-7.1312,-7.1312,-7.1312,-7.1312,-7.1312,-7.1345,-7.165,-7.236,-7.3037,-7.351,-7.3544,-7.3274,-7.2834,-7.2631,-7.3747,-7.4593,-7.4864,-7.5303,-7.5473,-7.5493,-7.5417,-7.5325,-7.5179,-7.5067,-7.4903,-7.4656,-7.4473,-7.4423,-7.4272,-7.4221,-7.4221,-7.4221,-7.4221,-7.4221,-7.4221,-7.4221,-7.4221,-7.4221,-7.4221,-7.4221,-7.4221,-7.4221,-7.4221,-7.4221,-7.4171,-7.412,-7.3679,-7.2972,-7.2573,-7.1926,-7.114,-7.0413,-6.9823,-6.948,-6.9068,-6.8889,-6.8889,-6.8889,-6.8889,-6.8889,-6.8889,-6.8951,-6.8984,-6.8811,-6.8515,-6.8243,-6.8001,-6.7332,-6.6999,-6.7059,-6.7238,-6.7717,-6.8345,-6.8944,-6.9453,-7.0021,-7.047,-7.0649,-7.0769,-7.0829,-7.0889,-7.0919,-7.0919,-7.0824,-7.0759,-7.0433,-7.0068,-6.9737,-6.927,-6.903,-6.876,-6.876,-6.876,-6.876,-6.8583,-6.8197,-6.766,-6.6812,-6.6812,-6.6812,-6.6812,-6.6812,-6.6812,-6.7151,-6.7692,-6.8639,-6.9113,-6.9383,-7.0567,-7.1312,-7.1312,-7.1312,-7.1312,-7.1312,-7.1312,-7.1312,-7.1312,-7.1312,-7.1312,-7.1312,-7.1345,-7.1785,-7.2428,-7.3105,-7.3781,-7.395,-7.351,-7.3308,-7.3984,-7.4661,-7.4897,-7.5303,-7.5676,-7.5676,-7.5709,-7.5614,-7.547,-7.5325,-7.4968,-7.4622,-7.4523,-7.4473,-7.4322,-7.4221,-7.4221,-7.4221,-7.4221,-7.4221,-7.4221,-7.4221,-7.4221,-7.4221,-7.4221,-7.4221,-7.4221,-7.4221,-7.4221,-7.4221,-7.4221,-7.4221,-7.4221,-7.3833,-7.3025,-7.2251,-7.1493,-7.0718,-6.9984,-6.9441,-6.9123,-6.8889,-6.8889,-6.8889,-6.8889,-6.8889,-6.8889,-6.8889,-6.8982,-6.9074,-6.8962,-6.8667,-6.8456,-6.8121,-6.7696,-6.7211,-6.7029,-6.7029,-6.7358,-6.7986,-6.8585,-6.8944,-6.9482,-7.0021,-7.053,-7.0709,-7.0829,-7.0889,-7.0919,-7.0919,-7.0824,-7.0759,-7.0265,-6.9869,-6.9537,-6.927,-6.8963,-6.876,-6.876,-6.876,-6.876,-6.8701,-6.8401,-6.7777,-6.6812,-6.6846,-6.7151,-6.7286,-6.7354,-6.7658,-6.8064,-6.8538,-6.9248,-6.9586,-6.9722,-7.0737,-7.1312,-7.1312,-7.1312,-7.1312,-7.1312,-7.1312,-7.1312,-7.1312,-7.1312,-7.1312,-7.1312,-7.1379,-7.2157,-7.2766,-7.3578,-7.4187,-7.4424,-7.4119,-7.4052,-7.4627,-7.4864,-7.527,-7.5676,-7.5676,-7.5676,-7.5676,-7.5676,-7.558,-7.5422,-7.5082,-7.487,-7.4722,-7.4523,-7.4372,-7.4221,-7.4221,-7.4221,-7.4221,-7.4221,-7.4221,-7.4221,-7.4221,-7.4221,-7.4221,-7.4221,-7.4221,-7.4221,-7.4221,-7.4221,-7.4221,-7.4171,-7.4171,-7.3337,-7.2603,-7.2036,-7.1241,-7.0041,-6.9267,-6.9182,-6.8948,-6.8889,-6.8889,-6.8889,-6.8889,-6.8889,-6.8889,-6.8889,-6.892,-6.9046,-6.9054,-6.891,-6.9123,-6.8667,-6.7574,-6.718,-6.7148,-6.7119,-6.6999,-6.7657,-6.8256,-6.8675,-6.9004,-6.9482,-7.0141,-7.0709,-7.0799,-7.0889,-7.0919,-7.0919,-7.0919,-7.0694,-7.02,-6.9803,-6.9537,-6.9203,-6.8895,-6.876,-6.876,-6.876,-6.876,-6.8662,-6.8493,-6.7948,-6.688,-6.7049,-6.776,-6.8064,-6.8132,-6.8774,-6.9147,-6.9316,-6.9891,-7.0229,-7.0364,-7.1007,-7.1278,-7.1312,-7.1312,-7.1312,-7.1312,-7.1312,-7.1312,-7.1312,-7.1312,-7.1481,-7.1548,-7.1582,-7.2496,-7.3375,-7.4187,-7.4559,-7.483,-7.4492,-7.4424,-7.4796,-7.5236,-7.5676,-7.5676,-7.5676,-7.5676,-7.5676,-7.5676,-7.5676,-7.5566,-7.5422,-7.5164,-7.4919,-7.4755,-7.4423,-7.4272,-7.4221,-7.4221,-7.4221,-7.4221,-7.4221,-7.4221,-7.4221,-7.4221,-7.4221,-7.4221,-7.4221,-7.4221,-7.4221,-7.4221,-7.4171,-7.412,-7.3679,-7.2867,-7.2144,-7.157,-7.0743,-6.9614,-6.9006,-6.8948,-6.8889,-6.8889,-6.8889,-6.8889,-6.8889,-6.8889,-6.8889,-6.8889,-6.8889,-6.8987,-6.9054,-6.9274,-6.9458,-6.8848,-6.7724,-6.7268,-6.7298,-6.7298,-6.7119,-6.7328,-6.7956,-6.8495,-6.8824,-6.9243,-6.9812,-7.059,-7.0829,-7.0919,-7.0919,-7.0919,-7.0919,-7.0658,-7.0134,-6.9737,-6.947,-6.9136,-6.8828,-6.876,-6.876,-6.876,-6.876,-6.874,-6.8493,-6.8046,-6.7151,-6.776,-6.8538,-6.8876,-6.891,-6.9079,-6.9417,-6.9958,-7.0128,-7.05,-7.0973,-7.1142,-7.1312,-7.1312,-7.1312,-7.1312,-7.1312,-7.1312,-7.1312,-7.1312,-7.1447,-7.1751,-7.209,-7.2326,-7.3172,-7.395,-7.4627,-7.4931,-7.5236,-7.4931,-7.4965,-7.5506,-7.554,-7.5743,-7.5743,-7.5709,-7.5676,-7.5676,-7.5709,-7.5709,-7.5566,-7.5325,-7.5115,-7.4821,-7.4523,-7.4322,-7.4221,-7.4221,-7.4221,-7.4221,-7.4221,-7.4221,-7.4221,-7.4221,-7.4221,-7.4221,-7.4221,-7.4221,-7.4221,-7.4221,-7.4221,-7.412,-7.3884,-7.3214,-7.2337,-7.1328,-7.083,-7.0325,-6.9441,-6.9006,-6.8889,-6.8889,-6.8889,-6.8889,-6.8889,-6.8889,-6.8889,-6.8889,-6.8889,-6.8889,-6.8951,-6.9053,-6.9212,-6.9184,-6.891,-6.8059,-6.7599,-6.7629,-6.7657,-6.7388,-6.7148,-6.7657,-6.8315,-6.9093,-6.9722,-6.9842,-7.041,-7.0679,-7.0919,-7.0919,-7.0919,-7.0919,-7.0593,-7.0068,-6.9803,-6.9604,-6.9203,-6.876,-6.876,-6.876,-6.876,-6.8789,-6.8711,-6.8533,-6.8059]},{"header":{"parameterUnit":"m.s-1","parameterCategory":1,"la1":31.0,"la2":29.5877,"lo1":-88.7671,"lo2":-86.6584,"dx":0.0162,"dy":0.0185,"nx":115,"ny":88,"refTime":"2022-12-26T06:00:00:Z","depth":0,"parameterNumber":3,"parameterNumberName":"V-component_of_WINDS"},"data":[0.0,0.0,0.0,0.0,0.0,0.0,0.0,0.0,0.0,0.0,0.0,0.0,0.0,0.0,0.0,0.0,0.0,0.0,0.0,0.0,0.0,0.0,0.0,0.0,0.0,0.0,0.0,0.0,0.0,0.0,0.0,0.0,0.0,0.0,0.0,0.0,0.0,0.0,0.0,0.0,0.0,0.0,0.0,0.0,0.0,0.0,0.0,0.0,0.0,0.0,0.0,0.0,0.0,0.0,0.0,0.0,0.0,0.0,0.0,0.0,0.0,0.0,0.0,0.0,0.0,0.0,0.0,0.0,0.0,0.0,0.0,0.0,0.0,0.0,0.0,0.0,0.0,0.0,0.0,0.0,0.0,0.0,0.0,0.0,0.0,0.0,0.0,0.0,0.0,0.0,0.0,0.0,0.0,0.0,0.0,0.0,0.0,0.0,0.0,0.0,0.0,0.0,0.0,0.0,0.0,0.0,0.0,0.0,0.0,0.0,0.0,0.0,0.0,0.0,0.0,0.0,0.0,0.0,0.0,0.0,0.0,0.0,0.0,0.0,0.0,0.0,0.0,0.0,0.0,0.0,0.0,0.0,0.0,0.0,0.0,0.0,0.0,0.0,0.0,0.0,0.0,0.0,0.0,0.0,0.0,0.0,0.0,0.0,0.0,0.0,0.0,0.0,0.0,0.0,0.0,0.0,0.0,0.0,0.0,0.0,0.0,0.0,0.0,0.0,0.0,0.0,0.0,0.0,0.0,0.0,0.0,0.0,0.0,0.0,0.0,0.0,0.0,0.0,0.0,0.0,0.0,0.0,0.0,0.0,0.0,0.0,0.0,0.0,0.0,0.0,0.0,0.0,0.0,0.0,0.0,0.0,0.0,0.0,0.0,0.0,0.0,0.0,0.0,0.0,0.0,0.0,0.0,0.0,0.0,0.0,0.0,0.0,0.0,0.0,0.0,0.0,0.0,0.0,0.0,0.0,0.0,0.0,0.0,0.0,0.0,0.0,0.0,0.0,0.0,0.0,0.0,0.0,0.0,0.0,0.0,0.0,0.0,0.0,0.0,0.0,0.0,0.0,0.0,0.0,0.0,0.0,0.0,0.0,0.0,0.0,0.0,0.0,0.0,0.0,0.0,0.0,0.0,0.0,0.0,0.0,0.0,0.0,0.0,0.0,0.0,0.0,0.0,0.0,0.0,0.0,0.0,0.0,0.0,0.0,0.0,0.0,0.0,0.0,0.0,0.0,0.0,0.0,0.0,0.0,0.0,0.0,0.0,0.0,0.0,0.0,0.0,0.0,0.0,0.0,0.0,0.0,0.0,0.0,0.0,0.0,0.0,0.0,0.0,0.0,0.0,0.0,0.0,0.0,0.0,0.0,0.0,0.0,0.0,0.0,0.0,0.0,0.0,0.0,0.0,0.0,0.0,0.0,0.0,0.0,0.0,0.0,0.0,0.0,0.0,0.0,0.0,0.0,0.0,0.0,0.0,0.0,0.0,0.0,0.0,0.0,0.0,0.0,0.0,0.0,0.0,0.0,0.0,0.0,0.0,0.0,0.0,0.0,0.0,0.0,0.0,0.0,0.0,0.0,0.0,0.0,0.0,0.0,0.0,0.0,0.0,0.0,0.0,0.0,0.0,0.0,0.0,0.0,0.0,0.0,0.0,0.0,0.0,0.0,0.0,0.0,0.0,0.0,0.0,0.0,0.0,0.0,0.0,0.0,0.0,0.0,0.0,0.0,0.0,0.0,0.0,0.0,0.0,0.0,0.0,0.0,0.0,0.0,0.0,0.0,0.0,0.0,0.0,0.0,0.0,0.0,0.0,0.0,0.0,0.0,0.0,0.0,0.0,0.0,0.0,0.0,0.0,0.0,0.0,0.0,0.0,0.0,0.0,0.0,0.0,0.0,0.0,0.0,0.0,0.0,0.0,0.0,0.0,0.0,0.0,0.0,0.0,0.0,0.0,0.0,0.0,0.0,0.0,0.0,0.0,0.0,0.0,0.0,0.0,0.0,0.0,0.0,0.0,0.0,0.0,0.0,0.0,0.0,0.0,0.0,0.0,0.0,0.0,0.0,0.0,0.0,0.0,0.0,0.0,0.0,0.0,0.0,0.0,0.0,0.0,0.0,0.0,0.0,0.0,0.0,0.0,0.0,0.0,0.0,0.0,0.0,0.0,0.0,0.0,0.0,0.0,0.0,0.0,0.0,0.0,0.0,0.0,0.0,0.0,0.0,0.0,0.0,0.0,0.0,0.0,0.0,0.0,0.0,0.0,0.0,0.0,0.0,0.0,0.0,0.0,0.0,0.0,0.0,0.0,0.0,0.0,0.0,0.0,0.0,0.0,0.0,0.0,0.0,0.0,0.0,0.0,0.0,0.0,0.0,0.0,0.0,0.0,0.0,0.0,0.0,0.0,0.0,0.0,0.0,0.0,0.0,0.0,0.0,0.0,0.0,0.0,0.0,0.0,0.0,0.0,0.0,0.0,0.0,0.0,0.0,0.0,0.0,0.0,0.0,0.0,0.0,0.0,0.0,0.0,0.0,0.0,0.0,0.0,0.0,0.0,0.0,0.0,0.0,0.0,0.0,0.0,0.0,0.0,0.0,0.0,0.0,0.0,0.0,0.0,0.0,0.0,0.0,0.0,0.0,0.0,0.0,0.0,0.0,0.0,0.0,0.0,0.0,0.0,0.0,0.0,0.0,0.0,0.0,0.0,0.0,0.0,0.0,0.0,0.0,0.0,0.0,0.0,0.0,0.0,0.0,0.0,0.0,0.0,0.0,0.0,0.0,0.0,0.0,0.0,0.0,0.0,0.0,0.0,0.0,0.0,0.0,0.0,0.0,0.0,0.0,0.0,0.0,0.0,0.0,0.0,0.0,0.0,0.0,0.0,0.0,0.0,0.0,0.0,0.0,0.0,0.0,0.0,0.0,0.0,0.0,0.0,0.0,0.0,0.0,0.0,0.0,0.0,0.0,0.0,0.0,0.0,0.0,0.0,0.0,0.0,0.0,0.0,0.0,0.0,0.0,0.0,0.0,0.0,0.0,0.0,0.0,0.0,0.0,0.0,0.0,0.0,0.0,0.0,0.0,0.0,0.0,0.0,0.0,0.0,0.0,0.0,0.0,0.0,0.0,0.0,0.0,0.0,0.0,0.0,0.0,0.0,0.0,0.0,0.0,0.0,0.0,0.0,0.0,0.0,0.0,0.0,0.0,0.0,0.0,0.0,0.0,0.0,0.0,0.0,0.0,0.0,0.0,0.0,0.0,0.0,0.0,0.0,0.0,0.0,0.0,0.0,0.0,0.0,0.0,0.0,0.0,0.0,0.0,0.0,0.0,0.0,0.0,0.0,0.0,0.0,0.0,0.0,0.0,0.0,0.0,0.0,0.0,0.0,0.0,0.0,0.0,0.0,0.0,0.0,0.0,0.0,0.0,0.0,0.0,0.0,0.0,0.0,0.0,0.0,0.0,0.0,0.0,0.0,0.0,0.0,0.0,0.0,0.0,0.0,0.0,0.0,0.0,0.0,0.0,0.0,0.0,0.0,0.0,0.0,0.0,0.0,0.0,0.0,0.0,0.0,0.0,0.0,0.0,0.0,0.0,0.0,0.0,0.0,0.0,0.0,0.0,0.0,0.0,0.0,0.0,0.0,0.0,0.0,0.0,0.0,0.0,0.0,0.0,0.0,0.0,0.0,0.0,0.0,0.0,0.0,0.0,0.0,0.0,0.0,0.0,0.0,0.0,0.0,0.0,0.0,0.0,0.0,0.0,0.0,0.0,0.0,0.0,0.0,0.0,0.0,0.0,0.0,0.0,0.0,0.0,0.0,0.0,0.0,0.0,0.0,0.0,0.0,0.0,0.0,0.0,0.0,0.0,0.0,0.0,0.0,0.0,0.0,0.0,0.0,0.0,0.0,0.0,0.0,0.0,0.0,0.0,0.0,0.0,0.0,0.0,0.0,0.0,0.0,0.0,0.0,0.0,0.0,0.0,0.0,0.0,0.0,0.0,0.0,0.0,0.0,0.0,0.0,0.0,0.0,0.0,0.0,0.0,0.0,0.0,0.0,0.0,0.0,0.0,0.0,0.0,0.0,0.0,0.0,0.0,0.0,0.0,0.0,0.0,0.0,0.0,0.0,0.0,0.0,0.0,0.0,0.0,0.0,0.0,0.0,0.0,0.0,0.0,0.0,0.0,0.0,0.0,0.0,0.0,0.0,0.0,0.0,0.0,0.0,0.0,0.0,0.0,0.0,0.0,2.1066,0.0,0.0,0.0,1.9241,0.0,0.0,0.0,0.0,0.0,0.0,0.0,0.0,0.0,0.0,0.0,0.0,0.0,0.0,0.0,0.0,0.0,0.0,0.0,0.0,0.0,0.0,0.0,0.0,0.0,0.0,0.0,0.0,0.0,0.0,0.0,0.0,0.0,0.0,0.0,0.0,0.0,0.0,0.0,0.0,0.0,0.0,0.0,0.0,0.0,0.0,0.0,0.0,0.0,0.0,0.0,0.0,0.0,0.0,0.0,0.0,0.0,0.0,0.0,0.0,0.0,0.0,0.0,0.0,0.0,0.0,0.0,0.0,0.0,0.0,0.0,0.0,0.0,0.0,0.0,0.0,0.0,0.0,0.0,0.0,0.0,0.0,0.0,0.0,0.0,0.0,0.0,0.0,0.0,0.0,0.0,0.0,0.0,0.0,0.0,0.0,0.0,0.0,0.0,0.0,0.0,0.0,0.0,0.0,0.0,0.0,0.0,0.0,0.0,0.0,2.0707,1.9768,2.1665,2.1655,1.9361,0.0,0.0,0.0,0.0,0.0,0.0,0.0,0.0,0.0,0.0,0.0,0.0,0.0,0.0,0.0,0.0,0.0,0.0,0.0,0.0,0.0,0.0,0.0,0.0,0.0,0.0,0.0,0.0,0.0,0.0,0.0,0.0,0.0,0.0,0.0,0.0,0.0,0.0,0.0,0.0,0.0,0.0,0.0,0.0,0.0,0.0,0.0,0.0,0.0,0.0,0.0,0.0,0.0,0.0,0.0,0.0,0.0,0.0,0.0,0.0,0.0,0.0,0.0,0.0,0.0,0.0,0.0,0.0,0.0,0.0,0.0,0.0,0.0,0.0,0.0,0.0,0.0,0.0,0.0,0.0,0.0,0.0,0.0,0.0,0.0,0.0,0.0,0.0,0.0,0.0,0.0,0.0,0.0,0.0,0.0,0.0,0.0,0.0,0.0,0.0,0.0,0.0,0.0,0.0,0.0,0.0,0.0,0.0,0.0,0.0,0.0,0.0,2.2113,2.2254,2.0277,0.0,0.0,0.0,0.0,0.0,0.0,0.0,0.0,0.0,0.0,0.0,0.0,0.0,0.0,0.0,0.0,0.0,0.0,0.0,0.0,0.0,0.0,0.0,0.0,0.0,0.0,0.0,0.0,0.0,0.0,0.0,0.0,0.0,0.0,0.0,0.0,0.0,0.0,0.0,0.0,0.0,0.0,0.0,0.0,0.0,0.0,0.0,0.0,0.0,0.0,0.0,0.0,0.0,0.0,0.0,0.0,0.0,0.0,0.0,0.0,0.0,0.0,0.0,0.0,0.0,0.0,0.0,0.0,0.0,0.0,0.0,0.0,0.0,0.0,0.0,0.0,0.0,0.0,0.0,0.0,0.0,0.0,0.0,0.0,0.0,0.0,0.0,0.0,0.0,0.0,0.0,0.0,0.0,0.0,0.0,0.0,0.0,0.0,0.0,0.0,0.0,0.0,0.0,0.0,0.0,0.0,0.0,0.0,0.0,0.0,1.972,2.1455,2.1754,0.0,2.1535,0.0,0.0,0.0,0.0,0.0,0.0,0.0,0.0,0.0,0.0,0.0,0.0,0.0,0.0,0.0,0.0,0.0,0.0,0.0,0.0,0.0,0.0,0.0,0.0,0.0,0.0,0.0,0.0,0.0,0.0,0.0,0.0,0.0,0.0,0.0,0.0,0.0,0.0,0.0,0.0,0.0,0.0,0.0,0.0,0.0,0.0,0.0,0.0,0.0,0.0,0.0,0.0,0.0,0.0,0.0,0.0,0.0,0.0,0.0,0.0,0.0,0.0,0.0,0.0,0.0,0.0,0.0,0.0,0.0,0.0,0.0,0.0,0.0,0.0,0.0,0.0,0.0,0.0,0.0,0.0,0.0,0.0,0.0,0.0,0.0,0.0,0.0,0.0,0.0,0.0,0.0,0.0,0.0,0.0,0.0,0.0,0.0,0.0,0.0,0.0,0.0,0.0,0.0,0.0,0.0,0.0,0.0,0.0,0.0,0.0,2.0049,2.1665,2.1335,2.125,0.0,0.0,0.0,0.0,0.0,0.0,0.0,0.0,0.0,0.0,0.0,0.0,0.0,0.0,0.0,0.0,0.0,0.0,0.0,0.0,0.0,0.0,0.0,0.0,0.0,0.0,0.0,0.0,0.0,0.0,0.0,0.0,0.0,0.0,0.0,0.0,0.0,0.0,0.0,0.0,0.0,0.0,0.0,0.0,0.0,0.0,0.0,0.0,0.0,0.0,0.0,0.0,0.0,0.0,0.0,0.0,0.0,0.0,0.0,0.0,0.0,0.0,0.0,0.0,0.0,0.0,0.0,0.0,0.0,0.0,0.0,0.0,0.0,0.0,0.0,0.0,0.0,0.0,0.0,0.0,0.0,0.0,0.0,0.0,0.0,0.0,0.0,0.0,0.0,0.0,0.0,0.0,0.0,0.0,0.0,0.0,0.0,0.0,0.0,0.0,0.0,0.0,0.0,0.0,0.0,0.0,0.0,0.0,0.0,0.0,1.9648,2.0427,2.1864,2.1515,2.1167,2.0944,0.0,0.0,0.0,0.0,0.0,0.0,0.0,0.0,0.0,0.0,0.0,0.0,0.0,0.0,0.0,0.0,0.0,0.0,0.0,0.0,0.0,0.0,0.0,0.0,0.0,0.0,0.0,0.0,0.0,0.0,0.0,0.0,0.0,0.0,0.0,0.0,0.0,0.0,0.0,0.0,0.0,0.0,0.0,0.0,0.0,0.0,0.0,0.0,0.0,0.0,0.0,0.0,0.0,0.0,0.0,0.0,0.0,0.0,0.0,0.0,0.0,0.0,0.0,0.0,0.0,0.0,0.0,0.0,0.0,0.0,0.0,0.0,0.0,0.0,0.0,0.0,0.0,0.0,0.0,0.0,0.0,0.0,0.0,0.0,0.0,0.0,0.0,0.0,0.0,0.0,0.0,0.0,0.0,0.0,0.0,0.0,0.0,0.0,0.0,0.0,0.0,0.0,0.0,0.0,0.0,0.0,0.0,0.0,2.1295,2.0337,2.0666,2.2634,2.2613,2.1734,0.0,0.0,0.0,0.0,0.0,0.0,0.0,0.0,0.0,0.0,0.0,0.0,0.0,0.0,0.0,0.0,0.0,0.0,0.0,0.0,0.0,0.0,0.0,0.0,0.0,0.0,0.0,0.0,0.0,0.0,0.0,0.0,0.0,0.0,0.0,0.0,0.0,0.0,0.0,0.0,0.0,0.0,0.0,0.0,0.0,0.0,0.0,0.0,0.0,0.0,0.0,0.0,0.0,0.0,0.0,0.0,0.0,0.0,0.0,0.0,0.0,0.0,0.0,0.0,0.0,0.0,0.0,0.0,0.0,0.0,0.0,0.0,0.0,0.0,0.0,0.0,0.0,0.0,0.0,0.0,0.0,0.0,0.0,0.0,0.0,0.0,0.0,0.0,0.0,0.0,0.0,0.0,0.0,0.0,0.0,0.0,0.0,0.0,0.0,0.0,0.0,0.0,0.0,0.0,0.0,0.0,0.0,0.0,0.0,1.8416,1.9271,2.158,2.5269,2.2087,2.0911,0.0,0.0,0.0,0.0,0.0,0.0,0.0,0.0,0.0,0.0,0.0,0.0,0.0,0.0,0.0,0.0,0.0,0.0,0.0,0.0,0.0,0.0,0.0,0.0,0.0,0.0,0.0,0.0,0.0,0.0,0.0,0.0,0.0,0.0,0.0,0.0,0.0,0.0,0.0,0.0,0.0,0.0,0.0,0.0,0.0,0.0,0.0,0.0,0.0,0.0,0.0,0.0,0.0,0.0,0.0,0.0,0.0,0.0,0.0,0.0,0.0,0.0,0.0,0.0,0.0,0.0,0.0,0.0,0.0,0.0,0.0,0.0,0.0,0.0,0.0,0.0,0.0,0.0,0.0,0.0,0.0,0.0,0.0,0.0,0.0,0.0,0.0,0.0,0.0,0.0,0.0,0.0,0.0,0.0,0.0,0.0,0.0,0.0,0.0,0.0,0.0,0.0,0.0,0.0,0.0,0.0,0.0,0.0,0.0,1.8625,2.0797,2.3173,2.5467,2.2014,2.0472,0.0,0.0,0.0,0.0,0.0,0.0,0.0,0.0,0.0,0.0,0.0,0.0,0.0,0.0,0.0,0.0,0.0,0.0,0.0,0.0,0.0,0.0,0.0,0.0,0.0,0.0,0.0,0.0,0.0,0.0,0.0,0.0,0.0,0.0,0.0,0.0,0.0,0.0,0.0,0.0,0.0,0.0,0.0,0.0,0.0,0.0,0.0,0.0,0.0,0.0,0.0,0.0,0.0,0.0,0.0,0.0,0.0,0.0,0.0,0.0,0.0,0.0,0.0,0.0,0.0,0.0,0.0,0.0,0.0,0.0,0.0,0.0,0.0,0.0,0.0,0.0,0.0,0.0,0.0,0.0,0.0,0.0,0.0,0.0,0.0,0.0,0.0,0.0,0.0,0.0,0.0,0.0,0.0,0.0,0.0,0.0,0.0,0.0,0.0,0.0,0.0,0.0,0.0,0.0,0.0,0.0,0.0,0.0,1.7991,2.2403,2.5009,2.5182,2.2903,2.2654,2.0535,0.0,0.0,0.0,0.0,0.0,0.0,0.0,0.0,0.0,0.0,0.0,0.0,0.0,0.0,0.0,0.0,0.0,0.0,0.0,0.0,0.0,0.0,0.0,0.0,0.0,0.0,0.0,0.0,0.0,0.0,0.0,0.0,0.0,0.0,0.0,0.0,0.0,0.0,0.0,0.0,0.0,0.0,0.0,0.0,0.0,0.0,0.0,0.0,0.0,0.0,0.0,0.0,0.0,0.0,0.0,0.0,0.0,0.0,0.0,0.0,0.0,0.0,0.0,0.0,0.0,0.0,0.0,0.0,0.0,0.0,0.0,0.0,0.0,0.0,0.0,0.0,0.0,0.0,0.0,0.0,0.0,0.0,0.0,0.0,0.0,0.0,0.0,0.0,0.0,0.0,0.0,0.0,0.0,0.0,0.0,0.0,0.0,0.0,0.0,0.0,0.0,0.0,0.0,0.0,0.0,0.0,0.0,0.0,0.0,1.9361,2.2712,2.4791,2.5216,2.2697,2.168,0.0,0.0,0.0,0.0,0.0,0.0,0.0,0.0,0.0,0.0,0.0,0.0,0.0,0.0,0.0,0.0,0.0,0.0,0.0,0.0,0.0,0.0,0.0,0.0,0.0,0.0,0.0,0.0,0.0,0.0,0.0,0.0,0.0,0.0,0.0,0.0,0.0,0.0,0.0,0.0,0.0,0.0,0.0,0.0,0.0,0.0,0.0,0.0,0.0,0.0,0.0,0.0,0.0,0.0,0.0,0.0,0.0,0.0,0.0,0.0,0.0,0.0,0.0,0.0,0.0,0.0,0.0,0.0,0.0,0.0,0.0,0.0,0.0,0.0,0.0,0.0,0.0,0.0,0.0,0.0,0.0,0.0,0.0,0.0,0.0,0.0,0.0,0.0,0.0,0.0,0.0,0.0,0.0,0.0,0.0,0.0,0.0,0.0,0.0,0.0,0.0,0.0,0.0,0.0,0.0,0.0,0.0,0.0,0.0,2.2033,2.5375,2.7376,2.7566,2.4273,2.295,2.3871,0.0,0.0,0.0,0.0,0.0,0.0,0.0,0.0,0.0,0.0,0.0,0.0,0.0,0.0,0.0,0.0,0.0,0.0,0.0,0.0,0.0,0.0,0.0,0.0,0.0,0.0,0.0,0.0,0.0,0.0,0.0,0.0,0.0,0.0,0.0,0.0,0.0,0.0,0.0,0.0,0.0,0.0,0.0,0.0,0.0,0.0,0.0,0.0,0.0,0.0,0.0,0.0,0.0,0.0,0.0,0.0,0.0,0.0,0.0,0.0,0.0,0.0,0.0,0.0,0.0,0.0,0.0,0.0,0.0,0.0,0.0,0.0,0.0,0.0,0.0,0.0,0.0,0.0,0.0,0.0,0.0,0.0,0.0,0.0,0.0,0.0,0.0,0.0,0.0,0.0,0.0,0.0,0.0,0.0,0.0,0.0,0.0,0.0,0.0,0.0,0.0,0.0,0.0,0.0,0.0,0.0,0.0,0.0,2.8786,3.2018,3.2341,2.9679,2.7098,2.4524,0.0,0.0,0.0,0.0,0.0,0.0,0.0,0.0,0.0,0.0,0.0,0.0,0.0,0.0,0.0,0.0,0.0,0.0,0.0,0.0,0.0,0.0,0.0,0.0,0.0,0.0,0.0,0.0,0.0,0.0,0.0,0.0,0.0,0.0,0.0,0.0,0.0,0.0,0.0,0.0,0.0,0.0,0.0,0.0,0.0,0.0,0.0,0.0,0.0,0.0,0.0,0.0,0.0,0.0,0.0,0.0,0.0,0.0,0.0,0.0,0.0,0.0,0.0,0.0,0.0,0.0,0.0,0.0,0.0,0.0,0.0,0.0,0.0,0.0,0.0,0.0,0.0,0.0,0.0,0.0,0.0,0.0,0.0,0.0,0.0,0.0,0.0,0.0,0.0,0.0,0.0,0.0,0.0,0.0,0.0,0.0,0.0,0.0,0.0,0.0,0.0,0.0,0.0,0.0,0.0,0.0,0.0,0.0,0.0,3.148,3.4681,3.5105,3.2462,2.9213,2.6994,0.0,0.0,0.0,0.0,0.0,0.0,0.0,0.0,0.0,0.0,0.0,0.0,0.0,0.0,0.0,0.0,0.0,0.0,0.0,0.0,0.0,0.0,0.0,0.0,0.0,0.0,0.0,0.0,0.0,0.0,0.0,0.0,0.0,0.0,0.0,0.0,0.0,0.0,0.0,0.0,0.0,0.0,0.0,0.0,0.0,0.0,0.0,0.0,0.0,0.0,0.0,0.0,0.0,0.0,0.0,0.0,0.0,0.0,0.0,0.0,0.0,0.0,0.0,0.0,0.0,0.0,0.0,0.0,0.0,0.0,0.0,0.0,0.0,0.0,0.0,0.0,0.0,0.0,0.0,0.0,0.0,0.0,0.0,0.0,0.0,0.0,0.0,0.0,0.0,0.0,0.0,0.0,0.0,0.0,0.0,0.0,0.0,0.0,0.0,0.0,0.0,0.0,0.0,0.0,0.0,0.0,0.0,0.0,3.0702,3.4502,3.6985,3.7524,3.6028,3.2072,2.9308,0.0,0.0,0.0,0.0,0.0,0.0,0.0,0.0,0.0,0.0,0.0,0.0,0.0,0.0,0.0,0.0,0.0,0.0,0.0,0.0,0.0,0.0,0.0,0.0,0.0,0.0,0.0,0.0,0.0,0.0,0.0,0.0,0.0,0.0,0.0,0.0,0.0,0.0,0.0,0.0,0.0,0.0,0.0,0.0,0.0,0.0,0.0,0.0,0.0,0.0,0.0,0.0,0.0,0.0,0.0,0.0,0.0,0.0,0.0,0.0,0.0,0.0,0.0,0.0,0.0,0.0,0.0,0.0,0.0,0.0,0.0,0.0,0.0,0.0,0.0,0.0,0.0,0.0,0.0,0.0,0.0,0.0,0.0,0.0,0.0,0.0,0.0,0.0,0.0,0.0,0.0,0.0,0.0,0.0,0.0,0.0,0.0,0.0,0.0,0.0,0.0,0.0,0.0,0.0,0.0,0.0,0.0,0.0,3.2946,3.737,3.8715,3.9373,3.9254,3.5013,3.1403,0.0,0.0,0.0,0.0,0.0,0.0,0.0,0.0,0.0,0.0,0.0,0.0,0.0,0.0,0.0,0.0,0.0,0.0,0.0,0.0,0.0,0.0,0.0,0.0,0.0,0.0,0.0,0.0,0.0,0.0,0.0,0.0,0.0,0.0,0.0,0.0,0.0,0.0,0.0,0.0,0.0,0.0,0.0,0.0,0.0,0.0,0.0,0.0,0.0,0.0,0.0,0.0,0.0,0.0,0.0,0.0,0.0,0.0,0.0,0.0,0.0,0.0,0.0,0.0,0.0,0.0,0.0,0.0,0.0,0.0,0.0,0.0,0.0,0.0,0.0,0.0,0.0,0.0,0.0,0.0,0.0,0.0,0.0,0.0,0.0,0.0,0.0,0.0,0.0,0.0,0.0,0.0,0.0,0.0,0.0,0.0,0.0,0.0,0.0,0.0,0.0,0.0,0.0,0.0,0.0,0.0,0.0,0.0,3.4339,3.7847,3.8883,3.9403,3.9373,3.5689,3.2549,0.0,0.0,0.0,0.0,0.0,0.0,0.0,0.0,0.0,0.0,0.0,0.0,0.0,0.0,0.0,0.0,0.0,0.0,0.0,0.0,0.0,0.0,0.0,0.0,0.0,0.0,0.0,0.0,0.0,0.0,0.0,0.0,0.0,0.0,0.0,0.0,0.0,0.0,0.0,0.0,0.0,0.0,0.0,0.0,0.0,0.0,0.0,0.0,2.5412,0.0,0.0,0.0,0.0,0.0,0.0,0.0,0.0,0.0,0.0,0.0,0.0,0.0,0.0,0.0,0.0,0.0,0.0,0.0,0.0,0.0,0.0,0.0,0.0,0.0,0.0,0.0,0.0,0.0,0.0,0.0,0.0,0.0,0.0,0.0,0.0,0.0,0.0,0.0,0.0,0.0,0.0,0.0,0.0,0.0,0.0,0.0,0.0,0.0,0.0,0.0,0.0,0.0,0.0,0.0,0.0,0.0,0.0,0.0,3.4896,3.8322,3.8977,3.9265,3.9175,3.7181,3.433,0.0,0.0,0.0,0.0,0.0,0.0,0.0,0.0,0.0,0.0,0.0,0.0,0.0,0.0,0.0,0.0,0.0,0.0,0.0,0.0,0.0,0.0,0.0,0.0,0.0,0.0,0.0,0.0,0.0,0.0,0.0,0.0,0.0,0.0,0.0,0.0,0.0,0.0,0.0,0.0,0.0,0.0,0.0,0.0,0.0,0.0,0.0,0.0,0.0,0.0,0.0,0.0,0.0,0.0,0.0,0.0,0.0,0.0,0.0,0.0,0.0,0.0,0.0,0.0,0.0,0.0,0.0,0.0,0.0,0.0,0.0,0.0,0.0,0.0,0.0,0.0,0.0,0.0,0.0,0.0,0.0,0.0,0.0,0.0,0.0,0.0,0.0,0.0,0.0,0.0,0.0,0.0,0.0,0.0,0.0,0.0,0.0,0.0,0.0,0.0,0.0,0.0,0.0,0.0,0.0,0.0,0.0,3.1663,3.4975,3.8546,3.8943,3.909,3.909,3.8644,3.5968,3.0881,0.0,0.0,0.0,0.0,0.0,0.0,0.0,0.0,0.0,0.0,0.0,0.0,0.0,0.0,0.0,0.0,0.0,0.0,0.0,0.0,0.0,0.0,0.0,0.0,0.0,0.0,0.0,0.0,0.0,0.0,0.0,0.0,0.0,0.0,0.0,0.0,0.0,0.0,2.4149,2.6953,0.0,0.0,0.0,0.0,0.0,0.0,0.0,0.0,2.8715,0.0,0.0,0.0,0.0,0.0,0.0,0.0,0.0,0.0,0.0,0.0,0.0,0.0,0.0,0.0,0.0,0.0,0.0,0.0,0.0,0.0,0.0,0.0,0.0,0.0,0.0,0.0,0.0,0.0,0.0,0.0,0.0,0.0,0.0,0.0,0.0,0.0,0.0,0.0,0.0,0.0,0.0,0.0,0.0,0.0,0.0,0.0,0.0,0.0,0.0,0.0,0.0,0.0,0.0,0.0,0.0,3.1889,3.266,3.4776,3.845,3.8907,3.909,3.909,3.8615,3.6178,3.16,0.0,0.0,0.0,0.0,0.0,0.0,0.0,0.0,0.0,0.0,0.0,0.0,0.0,0.0,0.0,0.0,0.0,0.0,0.0,0.0,0.0,0.0,0.0,0.0,0.0,0.0,0.0,0.0,0.0,0.0,0.0,0.0,0.0,0.0,0.0,0.0,0.0,0.0,0.0,3.0917,3.1737,0.0,0.0,0.0,0.0,0.0,0.0,0.0,0.0,2.8764,0.0,0.0,0.0,0.0,0.0,0.0,0.0,0.0,0.0,0.0,0.0,0.0,0.0,0.0,0.0,0.0,0.0,0.0,0.0,0.0,0.0,0.0,0.0,0.0,0.0,0.0,0.0,0.0,0.0,0.0,0.0,0.0,0.0,0.0,0.0,0.0,0.0,0.0,0.0,0.0,0.0,0.0,0.0,0.0,0.0,0.0,0.0,0.0,0.0,0.0,0.0,0.0,0.0,0.0,0.0,3.1066,3.42,3.698,3.9226,3.8964,3.9011,3.9447,3.868,3.6138,0.0,0.0,0.0,0.0,0.0,0.0,0.0,0.0,0.0,0.0,0.0,0.0,0.0,0.0,0.0,0.0,0.0,0.0,0.0,0.0,0.0,0.0,0.0,0.0,0.0,0.0,0.0,0.0,0.0,0.0,0.0,0.0,0.0,0.0,0.0,0.0,0.0,0.0,0.0,0.0,3.2425,3.3461,3.475,0.0,0.0,0.0,0.0,0.0,0.0,3.2034,3.0455,0.0,0.0,0.0,0.0,0.0,0.0,0.0,0.0,0.0,0.0,0.0,0.0,0.0,0.0,0.0,0.0,0.0,0.0,0.0,0.0,0.0,0.0,0.0,0.0,0.0,0.0,0.0,0.0,0.0,0.0,0.0,0.0,0.0,0.0,0.0,0.0,0.0,0.0,0.0,0.0,0.0,0.0,0.0,0.0,0.0,0.0,0.0,0.0,0.0,0.0,0.0,0.0,0.0,0.0,0.0,2.9929,3.5117,3.8623,4.0012,3.9177,3.9044,3.9665,3.8559,3.5885,0.0,0.0,0.0,0.0,0.0,0.0,0.0,0.0,0.0,0.0,0.0,0.0,0.0,0.0,0.0,0.0,0.0,0.0,0.0,0.0,0.0,0.0,0.0,0.0,0.0,0.0,0.0,0.0,0.0,0.0,0.0,0.0,0.0,0.0,0.0,0.0,0.0,0.0,0.0,0.0,0.0,3.4875,3.5762,3.46,0.0,0.0,0.0,0.0,3.6196,3.489,0.0,0.0,0.0,0.0,0.0,0.0,0.0,0.0,0.0,0.0,0.0,0.0,0.0,0.0,0.0,0.0,0.0,0.0,0.0,0.0,0.0,0.0,0.0,0.0,0.0,0.0,0.0,0.0,0.0,0.0,0.0,0.0,0.0,0.0,0.0,0.0,0.0,0.0,0.0,0.0,0.0,0.0,0.0,0.0,0.0,0.0,0.0,0.0,0.0,0.0,0.0,0.0,0.0,0.0,0.0,0.0,3.0452,3.4006,3.7237,3.9886,3.9614,3.9446,3.9542,3.8043,3.5311,0.0,0.0,0.0,0.0,0.0,0.0,0.0,0.0,0.0,0.0,0.0,0.0,0.0,0.0,0.0,0.0,0.0,0.0,0.0,0.0,0.0,0.0,0.0,0.0,0.0,0.0,0.0,0.0,0.0,0.0,0.0,0.0,0.0,0.0,0.0,0.0,0.0,0.0,0.0,0.0,0.0,3.6199,3.6477,3.6498,3.6731,0.0,0.0,3.7932,4.0704,3.9977,0.0,0.0,0.0,0.0,0.0,0.0,0.0,0.0,0.0,0.0,0.0,0.0,0.0,0.0,0.0,0.0,0.0,0.0,0.0,0.0,0.0,0.0,0.0,0.0,0.0,0.0,0.0,0.0,0.0,0.0,0.0,0.0,0.0,0.0,0.0,0.0,0.0,0.0,0.0,0.0,0.0,0.0,0.0,0.0,0.0,0.0,0.0,0.0,0.0,0.0,0.0,0.0,0.0,0.0,0.0,2.9493,3.1235,3.6467,3.9896,4.1134,4.0313,4.0081,4.0578,3.8465,3.5373,0.0,0.0,0.0,0.0,0.0,0.0,0.0,0.0,0.0,0.0,0.0,0.0,0.0,0.0,0.0,0.0,0.0,0.0,0.0,0.0,0.0,0.0,0.0,0.0,0.0,0.0,0.0,0.0,0.0,0.0,0.0,0.0,0.0,0.0,0.0,0.0,0.0,0.0,0.0,0.0,0.0,0.0,3.8716,3.8548,0.0,0.0,0.0,3.9942,4.1433,0.0,0.0,0.0,0.0,0.0,0.0,0.0,0.0,0.0,0.0,0.0,0.0,0.0,0.0,0.0,0.0,0.0,0.0,0.0,0.0,0.0,0.0,0.0,0.0,0.0,0.0,0.0,0.0,0.0,0.0,0.0,0.0,0.0,0.0,0.0,0.0,0.0,0.0,0.0,0.0,0.0,0.0,0.0,0.0,0.0,0.0,0.0,0.0,0.0,0.0,0.0,0.0,0.0,0.0,0.0,0.0,0.0,3.2115,3.8822,4.2411,4.2528,4.1105,4.0749,4.1511,3.939,0.0,0.0,0.0,0.0,0.0,0.0,0.0,0.0,0.0,0.0,0.0,0.0,0.0,0.0,0.0,0.0,0.0,0.0,0.0,0.0,0.0,0.0,0.0,0.0,0.0,0.0,0.0,1.8838,0.0,0.0,0.0,0.0,0.0,0.0,0.0,0.0,0.0,0.0,0.0,0.0,0.0,0.0,3.8252,4.0558,4.0502,4.0821,0.0,0.0,4.1849,4.2918,4.3639,4.3314,0.0,0.0,0.0,0.0,0.0,0.0,0.0,0.0,0.0,0.0,0.0,0.0,0.0,0.0,0.0,0.0,0.0,0.0,0.0,0.0,0.0,0.0,0.0,0.0,0.0,0.0,0.0,0.0,0.0,0.0,0.0,0.0,0.0,0.0,0.0,0.0,0.0,0.0,0.0,0.0,0.0,0.0,0.0,0.0,0.0,0.0,0.0,0.0,0.0,0.0,0.0,0.0,0.0,0.0,0.0,3.3526,3.9668,4.3224,4.3776,4.2005,4.1337,4.2017,4.084,3.7236,0.0,0.0,0.0,0.0,0.0,0.0,0.0,0.0,0.0,0.0,0.0,0.0,0.0,0.0,0.0,0.0,0.0,0.0,0.0,0.0,0.0,0.0,0.0,0.0,0.0,0.0,0.0,0.0,0.0,0.0,0.0,0.0,0.0,0.0,0.0,0.0,0.0,0.0,0.0,0.0,0.0,3.8362,4.1003,4.2318,4.3738,0.0,0.0,4.4284,4.6894,4.7117,4.5464,4.0974,0.0,0.0,0.0,0.0,0.0,0.0,0.0,0.0,0.0,0.0,0.0,0.0,0.0,0.0,0.0,0.0,0.0,0.0,0.0,0.0,0.0,0.0,0.0,0.0,0.0,0.0,0.0,0.0,0.0,0.0,0.0,0.0,0.0,0.0,0.0,0.0,0.0,0.0,0.0,0.0,0.0,0.0,0.0,0.0,0.0,0.0,0.0,0.0,0.0,0.0,0.0,0.0,0.0,3.1646,3.2909,3.906,4.2798,4.3783,4.241,4.1823,4.2052,4.1232,3.8397,0.0,0.0,0.0,0.0,0.0,0.0,0.0,0.0,0.0,0.0,0.0,0.0,0.0,0.0,0.0,0.0,0.0,0.0,0.0,0.0,0.0,0.0,0.0,0.0,0.0,0.0,0.0,0.0,2.6633,2.7132,2.5997,0.0,0.0,0.0,0.0,0.0,0.0,0.0,0.0,0.0,0.0,4.0344,4.2434,4.3449,0.0,0.0,4.5955,4.6026,4.7189,4.6758,4.5553,4.3397,4.1421,0.0,0.0,0.0,0.0,0.0,0.0,0.0,0.0,0.0,0.0,0.0,0.0,0.0,0.0,0.0,0.0,0.0,0.0,0.0,0.0,0.0,0.0,0.0,0.0,0.0,0.0,0.0,0.0,0.0,0.0,0.0,0.0,0.0,0.0,0.0,0.0,0.0,0.0,0.0,0.0,0.0,0.0,0.0,0.0,0.0,0.0,0.0,0.0,0.0,0.0,0.0,0.0,3.1411,3.2781,3.9078,4.2768,4.3722,4.2683,4.2149,4.2165,4.1611,3.9235,0.0,0.0,0.0,0.0,0.0,0.0,0.0,0.0,0.0,0.0,0.0,0.0,0.0,0.0,0.0,0.0,0.0,0.0,0.0,0.0,0.0,0.0,0.0,0.0,0.0,0.0,0.0,0.0,2.8626,2.8414,2.5761,0.0,0.0,0.0,0.0,0.0,0.0,0.0,0.0,0.0,0.0,4.1867,4.4265,4.4735,4.5293,4.6712,4.6639,4.6526,4.6907,4.6371,4.5698,4.5033,0.0,0.0,0.0,0.0,0.0,0.0,0.0,0.0,0.0,0.0,0.0,0.0,0.0,0.0,0.0,0.0,0.0,0.0,0.0,0.0,0.0,0.0,0.0,0.0,0.0,0.0,0.0,0.0,0.0,0.0,1.4909,0.0,0.0,0.0,0.0,0.0,0.0,0.0,0.0,0.0,0.0,0.0,0.0,0.0,0.0,0.0,0.0,0.0,0.0,0.0,0.0,0.0,0.0,3.1548,3.3429,3.9949,4.3464,4.3559,4.2857,4.2499,4.2546,4.204,3.9704,3.521,0.0,0.0,0.0,0.0,0.0,0.0,0.0,0.0,0.0,0.0,0.0,0.0,0.0,0.0,0.0,0.0,0.0,0.0,0.0,0.0,0.0,0.0,0.0,0.0,0.0,0.0,2.4904,2.5946,2.5813,0.0,0.0,0.0,0.0,0.0,0.0,0.0,0.0,0.0,0.0,4.0194,4.2596,4.6376,4.6214,4.625,4.7971,4.6638,4.5633,4.6267,4.6461,4.6282,0.0,0.0,0.0,0.0,0.0,0.0,0.0,0.0,0.0,0.0,0.0,0.0,0.0,0.0,0.0,0.0,0.0,0.0,0.0,0.0,0.0,0.0,0.0,0.0,0.0,0.0,0.0,1.9685,1.9032,0.0,0.0,0.0,0.0,0.0,0.0,0.0,0.0,0.0,0.0,0.0,2.8122,2.9227,0.0,0.0,0.0,0.0,0.0,0.0,0.0,0.0,0.0,0.0,0.0,0.0,3.0418,3.2057,3.876,4.2475,4.2847,4.2431,4.2156,4.2205,4.2113,4.0045,3.576,0.0,0.0,0.0,0.0,0.0,0.0,0.0,0.0,0.0,0.0,0.0,0.0,0.0,0.0,0.0,0.0,0.0,0.0,0.0,0.0,0.0,0.0,0.0,0.0,0.0,2.4964,0.0,0.0,0.0,0.0,0.0,0.0,0.0,0.0,0.0,0.0,0.0,3.7335,4.0153,4.2149,4.393,4.5374,4.5917,4.6505,0.0,0.0,0.0,0.0,0.0,0.0,0.0,0.0,0.0,0.0,0.0,0.0,0.0,0.0,4.6451,3.8967,3.6055,3.5209,3.6676,0.0,0.0,0.0,0.0,0.0,0.0,0.0,0.0,0.0,0.0,0.0,0.0,0.0,0.0,2.3703,0.0,2.313,0.0,0.0,0.0,0.0,0.0,0.0,0.0,0.0,2.9402,3.1336,3.2416,3.3269,3.3244,0.0,3.1571,2.9076,0.0,0.0,0.0,0.0,0.0,0.0,0.0,0.0,3.0661,3.2902,3.8948,4.2216,4.237,4.2341,4.2259,4.2049,4.183,4.0355,3.7417,3.5615,3.3908,0.0,0.0,0.0,0.0,0.0,0.0,0.0,0.0,0.0,0.0,0.0,0.0,0.0,0.0,0.0,0.0,0.0,0.0,0.0,0.0,0.0,0.0,0.0,2.6079,0.0,0.0,0.0,0.0,0.0,0.0,0.0,0.0,0.0,3.2561,3.6621,4.0191,4.2102,4.3538,4.464,4.5279,0.0,0.0,0.0,0.0,0.0,0.0,0.0,4.5167,4.6364,4.558,4.5038,4.5961,4.8738,5.0611,4.989,0.0,0.0,4.4473,4.1819,4.1244,4.2671,4.2925,4.318,4.4169,4.5539,4.6684,0.0,0.0,0.0,0.0,0.0,0.0,0.0,0.0,2.8072,2.767,0.0,2.7745,0.0,0.0,0.0,0.0,0.0,2.7082,0.0,0.0,3.6533,3.8793,3.8869,3.8266,3.8341,3.8793,3.6661,3.4831,3.3169,3.0105,0.0,0.0,0.0,0.0,0.0,0.0,3.2199,3.5968,4.0568,4.2718,4.2153,4.2667,4.2667,4.2104,4.1338,4.0639,3.9967,3.7524,3.5897,3.5388,2.8898,0.0,0.0,0.0,0.0,0.0,0.0,0.0,0.0,0.0,0.0,0.0,0.0,0.0,0.0,0.0,0.0,0.0,0.0,0.0,0.0,2.7958,0.0,0.0,0.0,0.0,0.0,0.0,0.0,0.0,0.0,0.0,3.4955,3.8113,4.1425,4.3891,0.0,0.0,0.0,0.0,4.6022,4.6648,4.6727,4.6653,4.6284,4.723,4.8625,5.0412,0.0,0.0,5.185,5.2779,5.3053,5.1078,5.3179,5.4806,5.4258,5.1277,4.9645,5.089,5.0089,4.9882,5.1287,5.3238,5.5175,2.9126,0.0,0.0,0.0,0.0,2.7157,2.9026,3.2014,3.2164,3.1612,3.0608,3.1336,0.0,0.0,0.0,0.0,0.0,0.0,3.1562,3.5127,3.6107,3.7915,4.0601,4.0049,4.0099,4.0601,3.9946,3.9395,3.8969,3.8417,3.3212,2.3728,0.0,0.0,0.0,0.0,3.4583,3.6953,4.1098,4.2954,4.2204,4.2518,4.2423,4.1864,4.177,4.1697,4.1491,4.0383,3.8899,3.7007,3.3807,0.0,0.0,0.0,0.0,0.0,0.0,0.0,0.0,0.0,0.0,0.0,0.0,0.0,0.0,0.0,0.0,0.0,0.0,0.0,2.546,2.8624,2.9699,0.0,0.0,0.0,0.0,0.0,0.0,0.0,0.0,0.0,3.814,4.0177,4.2244,0.0,0.0,4.5053,4.6489,4.7033,4.7574,4.8162,4.8821,0.0,0.0,4.9008,4.9346,5.0837,5.2798,5.4331,5.479,5.5983,5.6698,5.6293,5.7088,5.7837,5.7841,5.5988,5.4499,5.4761,5.4683,5.5038,5.6388,5.7399,5.8145,3.4028,3.1539,2.9565,2.9704,3.121,3.1336,3.3093,3.5881,3.6107,3.5554,3.4575,3.5579,3.3822,3.0055,2.9377,0.0,0.0,0.0,3.4424,3.799,3.7889,3.9169,4.153,4.1103,4.1128,4.1605,4.1204,4.1229,4.1656,4.1329,3.7161,2.9528,0.0,0.0,2.9679,3.3621,3.6734,3.8843,4.1717,4.3008,4.2539,4.265,4.2536,4.2113,4.2195,4.22,4.197,4.1744,4.0875,3.9306,3.6919,3.4633,0.0,0.0,0.0,0.0,0.0,0.0,0.0,0.0,0.0,0.0,0.0,2.301,1.9835,0.0,0.0,0.0,2.6559,2.799,3.0087,3.1744,0.0,0.0,0.0,0.0,0.0,0.0,0.0,3.5881,3.8115,3.9848,4.0877,4.1841,4.2944,4.4405,4.5064,4.5924,4.7236,0.0,4.8634,4.9391,5.0188,5.0767,5.0974,5.081,5.1144,5.2438,5.457,5.6193,5.687,5.7924,5.8608,5.883,5.905,5.9324,5.9488,5.8829,5.8237,5.7983,5.8093,5.8519,5.9439,5.9778,6.024,3.8291,3.8189,3.449,3.3753,3.5203,3.6207,3.7536,3.8969,3.9496,3.917,3.8341,3.9873,3.804,3.3671,3.2139,0.0,3.6034,3.6558,3.8165,4.0727,4.115,4.1706,4.2238,4.1706,4.1731,4.2238,4.1204,4.1229,4.2162,4.0701,3.9145,3.7613,3.7588,3.6935,3.5708,3.681,3.8743,4.13,4.2384,4.2936,4.2986,4.2986,4.2902,4.2641,4.2616,4.2363,4.1856,4.1994,4.1994,4.1704,3.884,3.6684,3.5542,0.0,0.0,0.0,0.0,0.0,0.0,0.0,0.0,0.0,0.0,0.0,0.0,0.0,0.0,0.0,3.3953,0.0,3.7814,3.6232,0.0,0.0,0.0,3.2566,3.4424,3.6784,3.8718,3.9898,0.0,0.0,4.3237,4.3212,4.3807,4.5482,4.6212,4.7036,4.8273,4.8771,4.9373,5.0508,5.1249,5.1771,5.2151,5.2728,5.3645,5.4925,5.6842,5.8147,5.8477,5.8958,5.9385,5.973,5.9809,6.0007,5.9978,6.0928,6.1514,6.0875,6.0638,6.0683,6.1191,6.1704,6.2187,3.9118,3.9882,3.9131,3.8716,3.8542,3.8793,3.912,3.9521,4.0074,4.0174,3.9973,4.0724,4.0423,3.9294,3.8918,3.9446,4.0629,4.03,4.0953,4.2333,4.2082,4.2313,4.276,4.266,4.266,4.276,4.2509,4.2534,4.2816,4.2384,4.1781,4.1056,4.1031,3.9371,3.636,3.8542,4.045,4.1957,4.2288,4.2615,4.2961,4.2986,4.2967,4.2897,4.2897,4.2821,4.2695,4.2347,4.2322,4.262,4.1134,4.0075,3.9749,3.3338,0.0,0.0,0.0,0.0,0.0,0.0,0.0,0.0,0.0,2.7695,2.2297,0.0,2.9227,0.0,3.7287,3.927,3.7538,3.8065,0.0,0.0,3.696,3.7136,4.0425,4.0651,4.1128,4.266,4.3288,4.4091,4.5372,4.5146,4.5691,4.7622,4.7004,4.7122,4.9418,5.0094,5.0662,5.1789,5.2932,5.388,5.4255,5.5235,5.6172,5.729,5.7883,5.8824,6.042,6.0836,6.1307,6.2251,6.2582,6.2762,6.2794,6.3209,6.3505,6.3762,6.3044,6.2621,6.3706,6.4209,6.4652,3.9956,4.0832,4.127,4.1372,4.1103,4.0626,4.0425,4.045,4.0752,4.0824,4.0874,4.1455,4.1856,4.2032,4.1806,4.1882,4.2187,4.1856,4.2032,4.264,4.2615,4.274,4.2986,4.2986,4.2986,4.2986,4.2986,4.2986,4.2986,4.2986,4.2811,4.259,4.2564,4.1329,3.912,4.0249,4.1078,4.143,4.1961,4.2489,4.2961,4.2986,4.2534,4.158,4.2288,4.2213,4.1257,4.1555,4.1605,4.1153,4.0576,4.0124,3.9746,3.5579,3.3169,0.0,0.0,0.0,0.0,0.0,0.0,0.0,0.0,0.0,0.0,0.0,3.2742,3.4173,3.9019,4.1028,3.8542,3.9798,4.0978,4.1455,4.0902,4.1555,4.4166,4.3915,4.4091,4.5447,4.5422,4.5723,4.6853,4.6753,4.728,4.9238,4.8923,4.909,5.0611,5.1505,5.2401,5.3543,5.4545,5.5423,5.5789,5.6379,5.7004,5.7524,5.7998,5.871,5.9873,6.0459,6.1168,6.2365,6.274,6.308,6.3696,6.3911,6.4242,6.4874,6.4575,6.4445,6.5183,6.5535,6.5772,4.0572,4.1342,4.1928,4.2449,4.2799,4.1902,4.1501,4.1555,4.1501,4.1501,4.1526,4.2057,4.259,4.2992,4.2539,4.2313,4.2313,4.2313,4.2313,4.2338,4.276,4.2986,4.2986,4.2986,4.2986,4.2986,4.2986,4.2986,4.2986,4.2986,4.2961,4.2942,4.2886,4.2615,4.2011,4.153,4.105,4.0651,4.1555,4.2283,4.2735,4.271,4.1756,3.9973,4.1307,4.1207,3.9372,4.0576,4.0676,3.9295,3.9195,3.8994,3.8542,3.7613,3.6232,0.0,3.3294,0.0,0.0,0.0,0.0,0.0,0.0,0.0,0.0,3.701,3.7236,3.5604,4.0174,4.2459,4.0701,4.1907,4.3187,4.4116,4.4719,4.5422,4.6276,4.6476,4.6903,4.7908,4.7556,4.7456,4.8033,4.8134,4.8736,5.0218,5.1012,5.1488,5.2067,5.292,5.4006,5.5237,5.5917,5.6435,5.6911,5.7033,5.7111,5.7302,5.7932,5.8481,5.8967,5.9654,6.0501,6.1796,6.2424,6.2876,6.3823,6.4253,6.4737,6.5636,6.5789,6.5858,6.6009,6.6122,6.612,4.07,4.1257,4.1882,4.2182,4.2312,4.2538,4.266,4.266,4.266,4.266,4.2685,4.2785,4.2886,4.3017,4.2861,4.2836,4.2836,4.2836,4.2836,4.2891,4.2936,4.2986,4.2986,4.2986,4.2986,4.2986,4.2986,4.2986,4.2986,4.2986,4.2735,4.2363,4.2363,4.1806,4.0902,0.0,0.0,0.0,4.1326,4.153,4.1576,4.1204,4.0802,4.04,4.1103,0.0,4.0902,4.1125,4.115,4.0849,4.0824,0.0,0.0,0.0,0.0,0.0,0.0,0.0,0.0,0.0,0.0,0.0,3.691,3.681,3.5734,3.9421,4.1204,3.9697,4.2409,4.4518,4.502,4.5748,4.6276,4.6476,4.6979,4.723,4.7054,4.733,4.7883,4.8485,4.8109,4.8159,4.9088,4.9264,4.9741,5.0971,5.1975,5.2754,5.325,5.3923,5.4567,5.514,5.6213,5.724,5.8034,5.8112,5.834,5.8803,5.9031,5.966,6.0756,6.1145,6.2177,6.3926,6.4547,6.4823,6.5969,6.6287,6.6364,6.6979,6.7236,6.7293,6.6879,6.7035,6.7216,4.1063,0.0,4.2038,4.211,0.0,4.2594,4.2762,4.2737,4.293,4.2986,4.2986,4.2986,4.2986,4.2986,4.2986,4.2986,4.2986,4.2986,4.2986,4.2986,4.2986,4.2986,4.2986,4.2986,4.3112,4.3363,4.3112,4.3168,4.3363,4.3388,4.3237,4.3042,4.3237,4.3087,4.2585,4.2755,4.2559,4.1756,4.1731,4.1882,4.2133,4.2158,4.163,4.0626,0.0,0.0,0.0,0.0,0.0,0.0,0.0,0.0,0.0,0.0,0.0,3.8743,3.7285,3.6581,3.7086,3.7638,3.8894,4.1103,4.2057,4.1831,4.0097,4.2861,4.4166,4.3112,4.4493,4.5573,4.5874,4.6401,4.6853,4.7068,4.7857,4.8209,4.8033,4.8184,4.856,4.9038,4.8937,4.9088,4.9891,5.0268,5.087,5.1925,5.2779,5.3632,5.4386,5.4762,5.5257,5.6197,5.7005,5.7991,5.8843,5.9071,5.9195,5.9653,5.9803,6.0125,6.0895,6.1065,6.164,6.3264,6.4027,6.478,6.5793,6.6487,6.7014,6.7305,6.7565,6.7712,6.7638,6.7956,6.8235,4.1347,4.2156,4.2054,4.1972,4.2029,4.2369,4.2513,4.2625,0.0,0.0,0.0,4.2986,4.2986,4.2986,4.2986,4.2986,4.2986,4.2986,4.2986,4.2986,4.2986,4.3037,4.3112,4.3137,4.3413,4.3915,4.3489,4.3489,4.394,4.394,4.394,4.3991,4.4418,4.4618,4.4618,4.4618,4.394,4.2635,4.2363,4.2489,4.2961,4.3237,4.2559,4.0852,4.266,4.2811,4.1053,4.2258,4.2133,4.04,4.0275,4.0099,3.9824,3.9747,4.04,4.1752,4.2333,4.2785,4.3237,4.379,4.4367,4.502,4.6024,4.615,4.5146,4.5999,4.6376,4.5824,4.6276,4.6451,4.61,4.6476,4.7004,4.7657,4.8535,4.9063,4.9063,4.9163,4.9439,4.9816,4.9992,5.0193,5.0695,5.1322,5.2,5.2904,5.3607,5.4411,5.539,5.5691,5.6188,5.7413,5.7983,5.8507,5.926,5.9558,5.9735,6.0133,6.0305,6.0405,6.0509,6.0509,6.0948,6.2283,6.303,6.411,6.5351,6.6356,6.707,6.756,6.7721,6.7888,6.8407,6.8857,6.9116,4.123,4.1408,4.1598,4.1663,4.172,4.2231,4.2681,4.293,4.2961,4.2986,4.2986,4.2986,4.2986,4.2986,4.2986,4.2986,4.2986,4.2986,4.2986,0.0,4.2986,4.3237,4.3664,4.3689,4.3966,4.4468,4.4418,4.4418,4.4493,4.4518,4.4493,4.4518,4.4593,4.4585,4.4618,4.4618,4.4518,4.4242,4.2886,4.2489,4.2992,4.2133,4.1781,4.2011,4.271,4.2986,4.266,4.2886,4.2836,4.2534,4.2509,4.2685,4.3062,4.3037,4.3413,4.4091,4.4242,4.4317,4.4392,4.492,4.5698,4.6702,4.733,4.7431,4.6878,4.733,4.7456,4.6979,4.7355,4.7857,4.8234,4.8335,4.8761,4.9715,5.0067,5.0193,5.0167,5.0594,5.0896,5.0996,5.1473,5.1749,5.19,5.2703,5.3331,5.3708,5.4461,5.5516,5.6394,5.6796,5.7221,5.8022,5.8349,5.8597,5.9148,5.9415,5.9895,6.0383,6.0758,6.1136,6.1529,6.1581,6.2001,6.3185,6.3469,6.4406,6.6202,6.6911,6.7444,6.8258,6.866,6.8956,6.9126,6.9457,6.9613,4.1341,4.1615,4.1465,4.1402,4.1402,4.1834,4.2287,4.2706,4.2737,4.2874,4.2986,4.2986,4.2986,4.2986,4.2986,4.2986,4.2986,4.3288,4.3413,4.3438,4.374,4.3991,4.4242,4.4242,4.4543,4.5045,4.4769,4.4769,4.507,4.5095,4.5095,4.5121,4.5397,4.5547,4.5547,4.5547,4.5547,4.5497,4.4192,4.3614,4.3865,4.3689,4.3714,4.3966,4.4493,4.4769,4.4794,4.4794,4.4644,4.4367,4.4342,4.4317,4.4242,4.4242,4.4367,4.4618,4.492,4.5221,4.5522,4.6326,4.7004,4.7506,4.8058,4.841,4.8485,4.841,4.8284,4.8058,4.8259,4.8611,4.9138,4.9213,4.954,5.0343,5.067,5.087,5.0946,5.1373,5.1724,5.18,5.2477,5.2955,5.298,5.3683,5.431,5.4612,5.5365,5.6143,5.6922,5.7323,5.7775,5.8429,5.8555,5.8933,5.9439,5.9968,6.0371,6.093,6.1331,6.1685,6.2022,6.2048,6.2273,6.2693,6.3259,6.4328,6.5905,6.6679,6.7541,6.846,6.8895,6.9098,6.927,6.9737,7.0028,4.1581,4.1918,4.1413,4.123,4.1287,4.1492,4.1891,4.24,4.2457,4.27,4.3025,4.3037,4.2986,4.2986,4.2986,4.3062,4.3212,4.3589,4.3865,4.4016,4.4418,4.4694,4.4819,4.4819,4.5121,4.5573,4.5221,4.5246,4.5623,4.5673,4.5673,4.5723,4.61,4.6326,4.6326,4.6326,4.6326,4.625,4.5447,4.502,4.502,4.5321,4.5547,4.5698,4.6075,4.6326,4.6326,4.6326,4.6125,4.5698,4.5673,4.5472,4.5045,4.4995,4.4987,4.5196,4.5598,4.61,4.6652,4.7556,4.8159,4.8284,4.8812,4.9389,4.9866,4.959,4.9213,4.9038,4.9213,4.949,4.9766,4.9916,5.0293,5.1046,5.1423,5.18,5.2026,5.2402,5.2653,5.2754,5.3507,5.4084,5.4185,5.4587,5.5089,5.5516,5.6068,5.657,5.6997,5.7524,5.8077,5.8428,5.873,5.9159,5.9895,6.0227,6.0685,6.1193,6.1571,6.177,6.1973,6.2048,6.2048,6.2198,6.2693,6.3626,6.4762,6.5905,6.6958,6.8051,6.8528,6.8895,6.9136,6.9604,7.02,4.2,4.1894,4.1413,4.1344,4.1549,4.1606,4.1802,4.2167,4.2369,4.2836,4.3348,4.31,4.3011,4.2986,4.3011,4.3263,4.3714,4.3765,4.4091,4.4518,4.4593,4.4895,4.5372,4.5422,4.5698,4.615,4.6125,4.61,4.6175,4.62,4.6225,4.6225,4.6301,4.6326,4.6326,4.6326,4.6326,4.6326,4.62,4.615,4.6125,4.5723,4.5723,4.6225,4.6276,4.6326,4.6326,4.6326,4.6301,4.6225,4.625,4.62,4.615,4.615,4.6376,4.6767,4.6954,4.7205,4.7732,4.8335,4.8912,4.9414,4.9916,5.0469,5.1021,5.1071,5.0594,4.9967,5.0469,5.0745,5.0469,5.082,5.1699,5.298,5.2955,5.3155,5.3934,5.431,5.4336,5.4336,5.4787,5.5239,5.5214,5.5591,5.5993,5.6018,5.652,5.6846,5.6972,5.7499,5.7851,5.8127,5.873,5.9282,5.9562,5.9869,6.0304,6.0711,6.1193,6.1571,6.1823,6.1973,6.2048,6.2048,6.2123,6.2768,6.3746,6.4735,6.5976,6.7264,6.8119,6.8828,6.8895,6.9203,6.967,4.2254,4.1966,4.1749,4.1519,4.1369,4.1344,4.1743,4.2323,4.2635,4.316,4.3863,4.3926,4.394,4.3915,4.3614,4.3765,4.4292,4.4644,4.492,4.5146,4.5472,4.5748,4.5949,4.5974,4.61,4.6301,4.6326,4.6326,4.6326,4.6326,4.6326,4.6326,4.6326,4.6326,4.6326,4.6326,4.6326,4.6326,4.6326,4.6476,4.6702,4.625,4.6075,4.6276,4.6326,4.6326,4.6351,4.6627,4.6652,4.6401,4.6903,4.7104,4.6803,4.7079,4.7355,4.7581,4.7933,4.8209,4.841,4.9238,4.9841,5.0067,5.0619,5.1172,5.1699,5.1774,5.1548,5.1222,5.1222,5.1498,5.2176,5.2302,5.2779,5.3909,5.4009,5.4084,5.4486,5.4863,5.5064,5.5089,5.5541,5.5867,5.5892,5.6068,5.6194,5.6269,5.6671,5.6922,5.6696,5.7298,5.7675,5.7575,5.8077,5.8478,5.8629,5.9463,5.9896,6.01,6.0759,6.1495,6.1571,6.1898,6.1973,6.2048,6.2048,6.2396,6.3553,6.4618,6.5763,6.6888,6.7982,6.876,6.876,6.9068,6.9404,4.2723,4.2206,4.2038,4.1749,4.1413,4.1557,4.1997,4.2545,4.2944,4.3555,4.4293,4.4519,4.4794,4.497,4.4342,4.4342,4.4869,4.5296,4.5573,4.5748,4.6125,4.6301,4.6326,4.6326,4.6326,4.6326,4.6326,4.6326,4.6326,4.6326,4.6326,4.6326,4.6326,4.6326,4.6326,4.6326,4.6376,4.6527,4.6527,4.6803,4.723,4.6954,4.6753,4.6753,4.6753,4.6753,4.6753,4.7129,4.7179,4.6803,4.7506,4.7757,4.7405,4.7857,4.8209,4.8435,4.9063,4.9389,4.9238,5.0117,5.072,5.0896,5.1297,5.1749,5.2226,5.2452,5.2528,5.2528,5.2327,5.2729,5.3206,5.3406,5.3808,5.4637,5.4787,5.4838,5.5039,5.5415,5.5616,5.5641,5.5942,5.6219,5.6219,5.6344,5.647,5.6545,5.6796,5.6947,5.662,5.7148,5.7474,5.7148,5.765,5.8127,5.8177,5.8933,5.949,5.9922,6.0532,6.1193,6.1344,6.1747,6.1973,6.2048,6.2048,6.2198,6.2916,6.4038,6.555,6.6749,6.7747,6.846,6.876,6.903,6.9136,4.3192,4.2747,4.2241,4.2024,4.2049,4.2506,4.2747,4.2831,4.3389,4.3979,4.4467,4.4602,4.5246,4.6075,4.5095,4.492,4.5422,4.5497,4.5799,4.62,4.6301,4.6326,4.6326,4.6326,4.6326,4.6326,4.6326,4.6326,4.6326,4.6326,4.6326,4.6326,4.6401,4.6351,4.6401,4.6426,4.6602,4.7054,4.7104,4.7355,4.7807,4.7857,4.7807,4.7832,4.7807,4.7757,4.7807,4.7857,4.7832,4.7807,4.7908,4.7933,4.7933,4.846,4.8987,4.954,5.0494,5.087,5.0444,5.0896,5.1448,5.19,5.1915,5.2259,5.2698,5.3028,5.3183,5.3538,5.3678,5.3748,5.3128,5.3843,5.4591,5.5168,5.5365,5.5566,5.597,5.5945,5.6168,5.6143,5.6219,5.6319,5.6269,5.6671,5.6947,5.7022,5.7047,5.7072,5.7072,5.7123,5.7198,5.7349,5.7876,5.8654,5.8679,5.8982,5.9311,5.9591,6.01,6.0813,6.1344,6.1672,6.1898,6.1973,6.1973,6.2123,6.2246,6.3259,6.4906,6.6117,6.6958,6.7679,6.8625,6.876,6.8895,4.3721,4.3216,4.2687,4.253,4.2554,4.2747,4.2988,4.3301,4.3722,4.4315,4.4998,4.5236,4.5685,4.6301,4.5899,4.5824,4.5999,4.6024,4.6125,4.6301,4.6326,4.6326,4.6326,4.6326,4.6326,4.6326,4.6326,4.6326,4.6351,4.6652,4.6853,4.6903,4.7179,4.733,4.733,4.733,4.7431,4.7606,4.7631,4.7883,4.841,4.846,4.8611,4.8937,4.8284,4.7908,4.7908,4.8259,4.8284,4.7933,4.8586,4.8987,4.9038,4.9515,5.0067,5.0594,5.072,5.0795,5.0996,5.1498,5.2051,5.251,5.2169,5.2189,5.2539,5.2307,5.1898,5.1994,5.2452,5.2451,5.2696,5.3905,5.5027,5.4892,5.5455,5.5676,5.5312,5.5681,5.6219,5.6269,5.6495,5.6746,5.6846,5.7223,5.7575,5.7625,5.7876,5.7901,5.7725,5.7851,5.7951,5.77,5.7926,5.8303,5.8704,5.9031,5.9334,5.9387,5.9718,6.0176,6.066,6.1344,6.1571,6.1747,6.1823,6.2048,6.2198,6.2842,6.4401,6.6117,6.6958,6.7333,6.8625,6.876,6.8828,4.3866,4.3481,4.3144,4.306,4.3084,4.3192,4.3457,4.377,4.416,4.4598,4.5159,4.5635,4.5939,4.612,4.6266,4.6326,4.6326,4.6301,4.6301,4.6326,4.6326,4.6326,4.6326,4.6326,4.6326,4.6351,4.6502,4.6652,4.6853,4.7205,4.7355,4.7431,4.7732,4.7908,4.7908,4.7908,4.7983,4.8134,4.8184,4.846,4.8962,4.9038,4.9213,4.9439,4.8837,4.846,4.846,4.8837,4.8862,4.8636,4.9188,4.9766,5.0142,5.067,5.1122,5.1448,5.1373,5.1398,5.1774,5.2083,5.2404,5.2705,5.2152,5.185,5.1896,5.145,5.1174,5.1142,5.1569,5.1949,5.2348,5.3838,5.4843,5.4547,5.5164,5.546,5.5066,5.5754,5.6221,5.652,5.6796,5.7072,5.7349,5.7826,5.8102,5.8177,5.8504,5.8529,5.8328,5.8428,5.8629,5.8278,5.8378,5.8654,5.8956,5.9282,5.9382,5.9436,5.9539,5.987,6.0201,6.0889,6.1268,6.142,6.1646,6.1898,6.2273,6.2768,6.4138,6.6046,6.6539,6.6749,6.7747,6.876,6.8915,4.3553,4.3601,4.3529,4.3553,4.3649,4.3973,4.4237,4.4275,4.4607,4.473,4.4902,4.5453,4.5757,4.5878,4.612,4.6266,4.6326,4.6326,4.6326,4.6326,4.6326,4.6326,4.6326,4.6376,4.6451,4.6502,4.6903,4.738,4.7757,4.7857,4.7933,4.7908,4.8008,4.8134,4.7983,4.8109,4.8309,4.8711,4.8812,4.9038,4.9515,4.954,4.954,4.959,4.949,4.9464,4.949,4.954,4.949,4.949,4.9565,5.0117,5.1021,5.1649,5.2008,5.2133,5.2578,5.2829,5.2742,5.254,5.2453,5.2594,5.1802,5.093,5.0932,5.103,5.1112,5.0954,5.1582,5.2266,5.2342,5.3175,5.3951,5.4322,5.4322,5.4942,5.5583,5.6122,5.6445,5.6922,5.7173,5.7323,5.7826,5.8378,5.8704,5.873,5.878,5.8755,5.8629,5.8679,5.8704,5.8755,5.883,5.8981,5.9257,5.9483,5.9483,5.956,5.9741,5.9971,6.0099,6.0584,6.0965,6.1193,6.1646,6.1973,6.2048,6.2571,6.3392,6.4899,6.5275,6.6411,6.7829,6.894,6.9166,4.4237,4.4563,4.4165,4.4237,4.4501,4.4381,4.4285,4.4285,4.4409,4.4594,4.484,4.5025,4.5331,4.5757,4.5939,4.6059,4.6326,4.6326,4.6326,4.6266,4.6326,4.6326,4.6401,4.6702,4.7018,4.738,4.7581,4.7732,4.7958,4.8309,4.851,4.856,4.8887,4.9063,4.9012,4.9088,4.9339,4.9791,4.9515,4.9615,5.0067,4.9791,4.9615,4.959,4.959,4.959,4.959,4.959,4.959,4.959,4.959,5.0117,5.1122,5.1505,5.2017,5.2665,5.2867,5.2854,5.2643,5.2443,5.2594,5.284,5.108,5.0329,5.0994,5.0126,4.9485,4.9251,4.9741,5.0042,5.0121,5.0355,5.1131,5.1801,5.3322,5.4243,5.4708,5.6077,5.7249,5.7625,5.7951,5.8278,5.8478,5.893,5.9182,5.9182,5.9207,5.9131,5.8805,5.8755,5.873,5.8755,5.8981,5.9207,5.9382,5.9508,5.9508,5.9508,5.9663,5.9918,6.0072,6.0328,6.0763,6.1168,6.1698,6.1924,6.1999,6.2453,6.3229,6.4304,6.5391,6.6839,6.8428,6.9129,6.9333,4.4765,4.5053,4.4909,4.4933,4.4966,4.4356,4.393,4.3725,4.3326,4.3514,4.395,4.374,4.4446,4.5245,4.5,4.5123,4.5696,4.593,4.603,4.6116,4.6481,4.6627,4.6702,4.7154,4.7707,4.8134,4.8234,4.8335,4.856,4.8887,4.9063,4.9163,4.9439,4.9565,4.959,4.9615,4.9791,5.0017,4.9766,4.9766,5.0017,4.9967,4.9916,4.9941,5.0117,5.0218,5.0218,5.0087,4.9821,4.9571,4.9641,5.0348,5.1394,5.1811,5.2342,5.2961,5.3151,5.294,5.2525,5.2453,5.2183,5.1977,5.0262,4.9306,4.9941,4.8785,4.8331,4.8092,4.8648,4.8965,4.9122,4.9494,4.9953,5.0703,5.2047,5.3281,5.3961,5.5814,5.7422,5.7925,5.8478,5.878,5.9056,5.9232,5.9382,5.9282,5.9382,5.9307,5.893,5.8905,5.893,5.8981,5.9131,5.9307,5.9458,5.9508,5.9508,5.9508,5.9585,5.9786,5.999,6.0478,6.089,6.1452,6.1932,6.2185,6.226,6.2365,6.2997,6.4209,6.5524,6.6761,6.8112,6.9053,6.9461,4.5077,4.511,4.5654,4.547,4.4896,4.4055,4.3281,4.2633,4.1824,4.1952,4.246,4.2184,4.2942,4.4299,4.3561,4.3671,4.4629,4.5486,4.5681,4.5893,4.6588,4.7244,4.7405,4.7782,4.8259,4.8736,4.8812,4.9063,4.9389,4.949,4.959,4.954,4.9565,4.959,4.959,4.959,4.964,4.9766,4.9665,4.964,4.9841,5.0142,5.0353,5.0403,5.0896,5.1055,5.0897,5.068,5.0174,4.9454,4.9981,5.0739,5.1698,5.2291,5.2806,5.3322,5.3395,5.306,5.2642,5.2325,5.1902,5.0466,4.9683,4.9273,4.8302,4.8172,4.7933,4.7773,4.849,4.9122,4.9494,5.011,5.0569,5.0793,5.1546,5.2767,5.4768,5.5783,5.7238,5.84,5.878,5.8905,5.9332,5.9433,5.9182,5.9006,5.9182,5.9156,5.8704,5.8679,5.9232,5.9257,5.9031,5.9307,5.9408,5.9508,5.9533,5.9809,5.9784,5.9935,6.0164,6.0629,6.1068,6.1557,6.196,6.224,6.2469,6.2522,6.3168,6.4456,6.5673,6.6641,6.7836,6.9004,7.0064,4.4912,4.4689,4.5541,4.5388,4.4554,4.3857,4.288,4.1742,4.1399,4.1312,4.1569,4.1505,4.1761,4.261,4.2573,4.2862,4.3682,4.5,4.5558,4.563,4.7213,4.8083,4.8297,4.846,4.8812,4.9289,4.9339,4.9464,4.959,4.959,4.959,4.959,4.959,4.959,4.959,4.959,4.9841,5.0067,4.9766,5.0017,5.0645,5.0494,5.0488,5.0689,5.1089,5.0963,5.0517,5.0499,5.0528,5.0512,5.0754,5.137,5.2245,5.2617,5.301,5.3473,5.3814,5.3619,5.2806,5.1925,5.1261,5.1017,4.885,4.7602,4.8482,4.7773,4.7554,4.7693,4.8626,4.928,4.9324,5.0142,5.0644,5.0769,5.2241,5.3834,5.4771,5.6895,5.8823,5.9155,5.8956,5.9056,5.9282,5.9232,5.8956,5.888,5.9056,5.9106,5.8478,5.8579,5.9156,5.8704,5.8554,5.9031,5.9332,5.9433,5.9659,6.006,6.0186,6.0211,6.0546,6.0987,6.1298,6.1685,6.1908,6.2208,6.2365,6.2469,6.3583,6.4548,6.5208,6.5979,6.8067,6.9623,7.0734,4.4324,4.477,4.5573,4.546,4.4612,4.3686,4.2402,4.0934,4.004,4.0018,4.0214,3.9757,4.0301,4.1475,4.0979,4.1617,4.3088,4.4421,4.5243,4.6012,4.7555,4.8511,4.8857,4.9049,4.9289,4.954,4.959,4.959,4.959,4.959,4.959,4.959,4.959,4.959,4.959,4.9461,4.9586,4.9877,4.9636,4.9912,5.082,5.0713,5.0764,5.0986,5.1327,5.1278,5.0974,5.1014,5.116,5.1303,5.136,5.1774,5.2646,5.2817,5.3204,5.3639,5.3885,5.344,5.2113,5.1355,5.0639,4.9607,4.7645,4.7571,4.7752,4.7394,4.7153,4.7592,4.8785,4.9258,4.9425,5.0196,5.1084,5.191,5.361,5.4727,5.4524,5.6945,5.871,5.9175,5.9257,5.9131,5.9458,5.9207,5.8956,5.888,5.9156,5.8805,5.8278,5.8679,5.893,5.8654,5.8629,5.9131,5.9382,5.9458,5.9659,6.006,6.0688,6.0688,6.1101,6.1469,6.1708,6.1942,6.2038,6.2077,6.2365,6.2626,6.3147,6.3975,6.4512,6.577,6.7831,6.93,7.0509,4.3486,4.4836,4.5455,4.5318,4.443,4.3196,4.1506,3.996,3.8449,3.8196,3.8681,3.7724,3.8754,4.0803,3.9521,4.007,4.2727,4.3467,4.4677,4.5794,4.7053,4.7731,4.8011,4.8948,4.9282,4.9421,4.9486,4.9461,4.9461,4.9525,4.9525,4.9525,4.9525,4.9525,4.9396,4.9202,4.9267,4.9446,4.9317,4.9445,5.0157,5.0464,5.0776,5.0941,5.1481,5.1831,5.1939,5.2064,5.2161,5.2162,5.1826,5.226,5.3054,5.3149,5.3117,5.3255,5.3124,5.219,5.0753,5.0908,5.0176,4.7789,4.773,4.7693,4.7153,4.6933,4.7153,4.7832,4.8785,4.9425,4.9905,5.0511,5.1458,5.2856,5.4274,5.4845,5.5431,5.6739,5.8212,5.9175,5.9382,5.9408,5.9408,5.9382,5.9207,5.8805,5.9056,5.888,5.8604,5.8855,5.9081,5.9056,5.9156,5.9408,5.9483,5.9483,5.9709,6.006,6.0939,6.1316,6.1827,6.2176,6.232,6.2405,6.2299,6.237,6.2652,6.2914,6.3045,6.3383,6.3949,6.5565,6.7305,6.828,6.9381,4.2682,4.2716,4.4004,4.364,4.2174,4.1355,4.0024,3.8316,3.755,3.7388,3.7563,3.7556,3.7895,3.8582,3.8824,3.9532,4.08,4.2224,4.3592,4.4846,4.4619,4.4892,4.5706,4.7425,4.8641,4.8706,4.8772,4.8902,4.9072,4.9072,4.9202,4.9137,4.9202,4.9357,4.8837,4.8877,4.9137,4.9202,4.9072,4.9018,4.942,5.0051,5.0294,5.0194,5.1056,5.1968,5.255,5.2792,5.3056,5.3199,5.3054,5.298,5.3312,5.2779,5.2447,5.2289,5.147,5.0698,5.0076,4.9472,4.8785,4.7832,4.7052,4.667,4.6509,4.6428,4.7213,4.823,4.8864,4.9566,5.08,5.0277,5.151,5.336,5.4531,5.551,5.6842,5.8241,5.8946,5.8877,5.8956,5.888,5.8905,5.9006,5.8905,5.8805,5.888,5.8956,5.9031,5.9106,5.9182,5.9257,5.9357,5.9483,5.9508,5.9558,5.9784,6.0035,6.0814,6.1642,6.2155,6.2552,6.2573,6.2637,6.256,6.2634,6.2731,6.2496,6.2469,6.2914,6.3512,6.5173,6.657,6.7439,6.9048,4.1512,4.2054,4.2849,4.2435,4.1389,4.0805,3.9675,3.8142,3.7377,3.7129,3.7169,3.7251,3.7411,3.7808,3.8354,3.906,4.0418,4.1924,4.3101,4.3725,4.3517,4.3517,4.3703,4.5028,4.6224,4.6693,4.7316,4.7449,4.7515,4.8199,4.8264,4.7425,4.7977,4.8043,4.7804,4.787,4.8199,4.8616,4.8289,4.8246,4.8707,4.8693,4.9264,4.9581,5.0866,5.2139,5.2478,5.2911,5.3293,5.3606,5.3582,5.3534,5.3525,5.2664,5.2054,5.1801,5.0775,4.9763,4.9157,4.8626,4.7991,4.7352,4.667,4.6573,4.6432,4.6411,4.7259,4.8504,4.9003,4.9394,5.15,5.139,5.2286,5.4429,5.5174,5.6159,5.8011,5.9095,5.9282,5.893,5.8981,5.8905,5.8855,5.8805,5.9056,5.9156,5.9182,5.9257,5.9257,5.9332,5.9307,5.9357,5.9433,5.9483,5.9483,5.9608,5.9859,6.0136,6.0563,6.1366,6.2024,6.24,6.2726,6.2687,6.2612,6.245,6.2417,6.2182,6.2051,6.2339,6.3185,6.4712,6.6114,6.7258,6.9292,4.0377,4.1672,4.1693,4.141,4.1063,4.0485,3.9511,3.8327,3.748,3.7144,3.7174,3.6916,3.7328,3.7793,3.808,3.9086,4.0432,4.1488,4.2144,4.2263,4.1982,4.1982,4.2193,4.2403,4.2892,4.391,4.5164,4.5368,4.5797,4.6693,4.6626,4.5526,4.6133,4.656,4.6426,4.6358,4.6626,4.7407,4.6941,4.6808,4.7422,4.7167,4.7699,4.9266,5.0715,5.182,5.2156,5.2512,5.2941,5.3247,5.3422,5.3422,5.2968,5.2436,5.1493,5.1339,4.992,4.8842,4.8071,4.7752,4.7373,4.6347,4.637,4.6473,4.6638,4.6983,4.775,4.8473,4.9134,4.9685,5.1478,5.2002,5.3492,5.5493,5.5835,5.6915,5.8688,5.9355,5.9081,5.8704,5.8629,5.8604,5.873,5.878,5.9156,5.9483,5.9483,5.9508,5.9508,5.9483,5.9433,5.9433,5.9458,5.9483,5.9483,5.9533,5.9784,6.0161,6.0462,6.114,6.1949,6.2628,6.2901,6.2686,6.2509,6.2402,6.2339,6.2077,6.2074,6.2048,6.2633,6.3959,6.543,6.7046,6.9314,3.9526,4.0054,4.0054,3.9858,3.953,3.9057,3.8604,3.7909,3.7171,3.6964,3.7238,3.7277,3.7461,3.793,3.834,3.8951,3.957,4.0054,4.0197,4.0249,3.9982,3.9838,4.0126,4.0054,3.9982,4.0627,4.2263,4.3565,4.4047,4.4596,4.4755,4.455,4.5028,4.5187,4.4914,4.4869,4.5119,4.5685,4.5301,4.53,4.5415,4.6239,4.7284,4.9102,5.0258,5.0923,5.1395,5.1763,5.1708,5.093,5.1724,5.1647,5.1008,5.0543,5.002,4.9157,4.7991,4.7192,4.6891,4.673,4.659,4.643,4.6535,4.6658,4.6881,4.7469,4.7992,4.8728,4.98,5.0609,4.9648,5.159,5.3268,5.4613,5.5874,5.6891,5.8405,5.8773,5.8603,5.8278,5.8227,5.8278,5.8428,5.8679,5.9081,5.9382,5.9483,5.9508,5.9508,5.9508,5.9483,5.9483,5.9483,5.9508,5.9508,5.9533,5.9684,6.0111,6.0487,6.104,6.1903,6.28,6.3101,6.271,6.2561,6.2585,6.2372,6.2104,6.2048,6.2048,6.258,6.3139,6.5065,6.6918,6.8855,3.9246,3.9445,3.9445,3.9228,3.8918,3.8649,3.8269,3.7891,3.75,3.7422,3.7578,3.7637,3.7851,3.8223,3.8457,3.872,3.8885,3.8885,3.9011,3.9011,3.8793,3.8647,3.8885,3.8647,3.8885,3.9373,4.0341,4.1226,4.1912,4.3309,4.3123,4.2495,4.3193,4.3631,4.3423,4.3492,4.3907,4.4114,4.4043,4.3977,4.4315,4.5618,4.7262,4.8096,4.9443,5.0178,5.0224,5.0757,5.0753,5.0387,5.0698,5.0254,4.955,4.9079,4.8842,4.8071,4.6972,4.6266,4.6266,4.6266,4.6347,4.6368,4.6596,4.7025,4.7286,4.7691,4.7847,4.8583,4.9835,5.08,4.9936,5.2123,5.3589,5.4419,5.5649,5.7182,5.82,5.804,5.7898,5.7851,5.7926,5.8001,5.8077,5.8428,5.893,5.9232,5.9458,5.9508,5.9508,5.9508,5.9508,5.9508,5.9508,5.9508,5.9508,5.9533,5.9558,5.9935,6.0362,6.0889,6.1446,6.2265,6.2589,6.2478,6.2509,6.2638,6.232,6.2048,6.2048,6.2048,6.2276,6.3037,6.4964,6.6918,6.8726,3.9103,3.9103,3.9103,3.8865,3.8647,3.8574,3.8379,3.8086,3.7949,3.7949,3.8047,3.7969,3.8144,3.8476,3.8574,3.8647,3.8574,3.8647,3.8647,3.8647,3.8647,3.8574,3.8574,3.8647,3.872,3.8958,3.9011,3.8938,4.0074,4.153,4.141,4.1055,4.1481,4.199,4.2054,4.2046,4.2738,4.297,4.317,4.3078,4.4056,4.5556,4.6742,4.6773,4.8564,4.9329,4.924,4.9485,4.945,4.9315,4.9371,4.9157,4.8071,4.7832,4.7832,4.7672,4.6811,4.6428,4.6266,4.6266,4.6266,4.6266,4.6673,4.7427,4.7669,4.7483,4.7394,4.8555,4.999,5.073,5.0468,5.2659,5.3865,5.443,5.5748,5.7424,5.7864,5.7808,5.7419,5.7449,5.76,5.775,5.7851,5.8127,5.8604,5.9257,5.9508,5.9508,5.9508,5.9508,5.9508,5.9508,5.9508,5.9508,5.9508,5.9508,5.9508,5.9633,6.0035,6.0462,6.0914,6.1446,6.1771,6.2165,6.2481,6.2587,6.227,6.1973,6.2048,6.2048,6.2048,6.291,6.4661,6.6413,6.8194,3.8647,3.8647,3.8647,3.8647,3.8574,3.8574,3.8555,3.8437,3.8105,3.8164,3.8418,3.8144,3.8203,3.8496,3.8574,3.8574,3.8574,3.8574,3.8574,3.8574,3.8574,3.8574,3.8594,3.8574,3.8725,3.8837,3.8745,3.8865,3.94,3.9887,3.9878,3.959,4.0011,4.0309,4.0904,4.1079,4.0736,4.1015,4.1542,4.2311,4.3285,4.5124,4.6189,4.6893,4.7445,4.7978,4.8172,4.8345,4.8049,4.7213,4.7911,4.7752,4.673,4.6509,4.6509,4.6509,4.6347,4.6266,4.6266,4.6266,4.6266,4.6571,4.7406,4.7631,4.7424,4.7858,4.8468,4.9729,5.0882,5.1077,5.0962,5.2976,5.3838,5.4708,5.5829,5.7052,5.7648,5.7481,5.7118,5.6925,5.7025,5.7374,5.7625,5.7951,5.8303,5.8981,5.9483,5.9483,5.9508,5.9508,5.9508,5.9508,5.9508,5.9508,5.9508,5.9508,5.9508,5.9508,5.9734,6.0111,6.0588,6.1094,6.1529,6.2005,6.2297,6.2432,6.2012,6.1898,6.1973,6.2048,6.2048,6.2936,6.4331,6.6056,6.7836,3.8574,3.8574,3.8574,3.8574,3.8574,3.8574,3.8574,3.8535,3.8398,3.8398,3.8535,3.8398,3.8398,3.8555,3.8574,3.8574,3.8574,3.8574,3.8574,3.8594,3.8594,3.8594,3.8633,3.8809,3.8926,3.8984,3.918,3.9449,3.9515,3.934,3.9176,3.9308,3.9778,4.023,4.0425,4.068,4.074,4.1029,4.1576,4.2399,4.3428,4.4635,4.5757,4.6221,4.6564,4.6981,4.7149,4.7132,4.6891,4.6428,4.6972,4.6891,4.6428,4.6347,4.6347,4.6347,4.6347,4.6266,4.6266,4.6266,4.6266,4.6347,4.6978,4.6897,4.6751,4.8049,4.9393,4.9998,5.0972,5.1407,5.1814,5.3715,5.4245,5.5021,5.5966,5.6574,5.7145,5.7001,5.6744,5.6651,5.655,5.6899,5.7149,5.7399,5.7851,5.8654,5.9131,5.9232,5.9357,5.9508,5.9508,5.9508,5.9508,5.9508,5.9508,5.9508,5.9508,5.9508,5.9508,5.9885,6.0387,6.0842,6.1252,6.1695,6.2039,6.202,6.1778,6.1823,6.1973,6.2048,6.2048,6.2809,6.3671,6.5955,6.7936,3.8574,3.8574,3.8574,3.8574,3.8574,3.8574,3.8574,3.8574,3.8574,3.8574,3.8574,3.8555,3.8555,3.8574,3.8574,3.8574,3.8574,3.8574,3.8574,3.8594,3.8672,3.875,3.8906,3.9141,3.9375,3.9375,3.9609,3.9766,3.9778,3.9633,3.9372,3.9366,3.985,4.029,4.045,4.0709,4.0873,4.1479,4.1958,4.2718,4.3536,4.4535,4.5167,4.5581,4.5995,4.6266,4.6266,4.6347,4.6347,4.6347,4.6347,4.6428,4.6266,4.6266,4.6266,4.6266,4.6266,4.6266,4.6266,4.6266,4.6266,4.6266,4.6347,4.6631,4.7234,4.8842,4.9875,4.975,5.0937,5.191,5.2993,5.3865,5.4372,5.4975,5.5951,5.6382,5.6648,5.6403,5.6319,5.6251,5.6179,5.6324,5.6622,5.6697,5.7323,5.8252,5.8704,5.8956,5.9232,5.9483,5.9508,5.9508,5.9508,5.9508,5.9508,5.9508,5.9508,5.9508,5.9508,5.9608,6.0035,6.049,6.095,6.1315,6.1706,6.1891,6.1886,6.1956,6.2048,6.2048,6.2048,6.2048,6.3037,6.5496,6.8239,3.8574,3.8574,3.8574,3.8574,3.8574,3.8574,3.8574,3.8574,3.8574,3.8574,3.8574,3.8594,3.8633,3.8613,3.8672,3.8672,3.8574,3.8574,3.8633,3.8769,3.8945,3.9101,3.9297,3.957,3.9844,3.9844,4.0039,4.0039,3.9961,4.0154,3.9919,3.9899,4.005,4.0249,4.0406,4.0695,4.1282,4.185,4.2316,4.2803,4.364,4.445,4.5019,4.5274,4.5871,4.6266,4.6266,4.6266,4.6266,4.6266,4.6266,4.6266,4.6266,4.6266,4.6266,4.6266,4.6266,4.6266,4.6266,4.6266,4.6266,4.6266,4.6347,4.6649,4.7373,4.9079,4.9728,4.9548,5.1059,5.2033,5.2623,5.298,5.4464,5.5251,5.6073,5.6087,5.61,5.5731,5.5697,5.5778,5.5906,5.6003,5.6223,5.6421,5.6872,5.775,5.8629,5.8905,5.9257,5.9508,5.9508,5.9508,5.9508,5.9508,5.9508,5.9508,5.9508,5.9508,5.9508,5.9508,5.9633,6.0063,6.0644,6.0856,6.1246,6.1634,6.1992,6.1958,6.1999,6.1973,6.2074,6.2378,6.3442,6.5726,6.8698,3.8574,3.8574,3.8574,3.8574,3.8574,3.8574,3.8574,3.8574,3.8574,3.8574,3.8594,3.8828,3.8809,3.8769,3.916,3.9062,3.8691,3.8887,3.8926,3.8984,3.9141,3.9355,3.9648,4.0,4.0273,4.0332,4.0508,4.0684,4.0723,4.0762,4.082,4.0723,4.0391,4.0371,4.0527,4.0801,4.1483,4.2131,4.2465,4.2936,4.3969,4.4616,4.5103,4.5519,4.5954,4.6225,4.6266,4.6266,4.6266,4.6266,4.6266,4.6266,4.6266,4.6266,4.6266,4.6266,4.6266,4.6266,4.6266,4.6266,4.6266,4.6266,4.6347,4.659,4.7373,4.8921,4.9478,5.0114,5.1821,5.3277,5.3463,5.4592,5.5909,5.6135,5.6089,5.5974,5.5655,5.5263,5.5078,5.5159,5.5435,5.578,5.5877,5.6097,5.6622,5.7273,5.8127,5.888,5.9257,5.9508,5.9508,5.9508,5.9508,5.9508,5.9508,5.9508,5.9508,5.9508,5.9508,5.9508,5.9533,5.996,6.0415,6.0654,6.0838,6.13,6.1632,6.1828,6.1924,6.1973,6.2479,6.3037,6.4506,6.623,6.8826,3.8574,3.8574,3.8574,3.8574,3.8574,3.8574,3.8574,3.8574,3.8574,3.8672,3.8769,3.9062,3.916,3.918,3.9512,3.9609,3.9199,3.9277,3.9375,3.9473,3.9609,3.9785,4.0117,4.0449,4.0723,4.0801,4.0957,4.1133,4.1094,4.1465,4.1308,4.1055,4.0898,4.0762,4.0801,4.1151,4.1738,4.225,4.2645,4.316,4.4237,4.4764,4.5186,4.5608,4.6099,4.6225,4.6266,4.6266,4.6266,4.6266,4.6266,4.6266,4.6266,4.6266,4.6266,4.6266,4.6266,4.6266,4.6266,4.6266,4.6266,4.6266,4.6266,4.6488,4.7272,4.8785,4.9636,4.9576,5.2433,5.4509,5.4037,5.4916,5.5928,5.6105,5.5841,5.5698,5.5246,5.4796,5.4684,5.4618,5.4967,5.5485,5.5779,5.6049,5.6697,5.7223,5.7851,5.8679,5.9332,5.9508,5.9508,5.9508,5.9508,5.9508,5.9508,5.9508,5.9508,5.9508,5.9508,5.9508,5.9633,5.9985,6.0138,6.0325,6.0558,6.0993,6.1375,6.1724,6.1898,6.1973,6.2479,6.291,6.5395,6.7147,6.9028,3.8574,3.8574,3.8574,3.8574,3.8574,3.8574,3.8574,3.8574,3.8574,3.8789,3.9101,3.9238,3.9473,3.9726,3.9961,3.9902,3.9766,3.9805,3.9883,3.9941,4.0117,4.0391,4.0625,4.0859,4.1016,4.1133,4.125,4.1289,4.123,4.1465,4.1367,4.123,4.1133,4.1055,4.121,4.154,4.1994,4.2445,4.2843,4.356,4.4362,4.4845,4.5372,4.5814,4.614,4.6266,4.6266,4.6266,4.6266,4.6266,4.6266,4.6266,4.6266,4.6266,4.6266,4.6266,4.6266,4.6266,4.6266,4.6266,4.6266,4.6428,4.6509,4.6891,4.7991,4.9144,4.9769,4.9367,5.1922,5.3245,5.3657,5.4291,5.5428,5.5858,5.559,5.5313,5.4861,5.4427,5.4241,5.4296,5.4669,5.5189,5.5558,5.6051,5.6772,5.7323,5.7725,5.8378,5.9156,5.9483,5.9483,5.9508,5.9508,5.9508,5.9508,5.9508,5.9508,5.9508,5.9508,5.9508,5.9508,5.9659,5.9788,5.9971,6.0406,6.089,6.1296,6.1747,6.1898,6.2048,6.2048,6.291,6.5496,6.7808,6.9386,3.8574,3.8574,3.8574,3.8574,3.8574,3.8574,3.8574,3.8574,3.8613,3.8809,3.9219,3.9492,3.9707,4.0,4.041,4.043,4.0019,4.0254,4.0312,4.0332,4.0508,4.0703,4.0918,4.1055,4.1172,4.125,4.1387,4.1562,4.1601,4.1719,4.1738,4.1641,4.1308,4.1172,4.1328,4.1563,4.1974,4.2463,4.3098,4.3958,4.4703,4.521,4.5637,4.6018,4.6264,4.6266,4.6266,4.6266,4.6266,4.6266,4.6266,4.6266,4.6266,4.6266,4.6266,4.6266,4.6266,4.6266,4.6266,4.6266,4.6266,4.6509,4.7052,4.7293,4.7293,4.9079,4.9206,4.9405,5.1458,5.2491,5.2817,5.4387,5.538,5.547,5.5265,5.4952,5.452,5.4135,5.3897,5.4047,5.4347,5.4942,5.5485,5.5877,5.6523,5.7097,5.7474,5.8102,5.8855,5.9307,5.9483,5.9483,5.9508,5.9508,5.9508,5.9508,5.9508,5.9508,5.9508,5.9508,5.9508,5.9508,5.9585,5.974,6.0278,6.0813,6.1193,6.1597,6.1898,6.2048,6.2048,6.3112,6.5726,6.7578,6.8927,3.8574,3.8574,3.8574,3.8574,3.8574,3.8574,3.8574,3.8594,3.873,3.9043,3.9473,3.9922,4.0234,4.0488,4.0801,4.0996,4.0391,4.0605,4.0742,4.0742,4.0762,4.0937,4.1094,4.1172,4.1172,4.1289,4.1562,4.1777,4.1758,4.2051,4.1894,4.1562,4.1465,4.1445,4.1504,4.1699,4.207,4.2639,4.3354,4.4037,4.4865,4.5454,4.5881,4.6165,4.6266,4.6266,4.6266,4.6266,4.6266,4.6266,4.6266,4.6266,4.6266,4.6266,4.6266,4.6266,4.6266,4.6266,4.6266,4.6266,4.6266,4.6347,4.7512,4.7991,4.7832,4.9371,4.9553,5.0007,5.1402,5.1968,5.2479,5.4171,5.5009,5.5145,5.4904,5.4616,5.4279,5.3894,5.3822,5.3897,5.4197,5.4794,5.5411,5.573,5.6199,5.6673,5.7223,5.7876,5.8504,5.8956,5.9357,5.9433,5.9483,5.9508,5.9508,5.9508,5.9508,5.9508,5.9508,5.9508,5.9508,5.9508,5.9508,5.9585,6.0048,6.0584,6.1041,6.142,6.1823,6.2048,6.2048,6.357,6.5955,6.7377,6.8496,3.8574,3.8574,3.8574,3.8574,3.8574,3.8574,3.8574,3.8613,3.9004,3.9434,3.9902,4.0273,4.0644,4.1035,4.1172,4.1113,4.1055,4.1094,4.1094,4.1113,4.1055,4.1152,4.1152,4.1172,4.1172,4.1308,4.1601,4.1914,4.1836,4.1894,4.166,4.1465,4.1621,4.1758,4.1894,4.209,4.2422,4.2994,4.3714,4.4297,4.4985,4.5535,4.5942,4.6185,4.6266,4.6266,4.6266,4.6266,4.6266,4.6266,4.6266,4.6266,4.6266,4.6266,4.6266,4.6266,4.6266,4.6266,4.6266,4.6266,4.6266,4.6428,4.7533,4.8684,4.9157,4.9258,4.9487,5.0047,5.1188,5.156,5.215,5.3553,5.4876,5.4784,5.4592,5.4303,5.3991,5.3822,5.3822,5.3972,5.4173,5.4719,5.5238,5.5657,5.5952,5.6298,5.6846,5.7349,5.8001,5.8629,5.9006,5.9307,5.9357,5.9483,5.9483,5.9483,5.9508,5.9508,5.9508,5.9508,5.9508,5.9508,5.9508,5.9663,5.9894,6.0431,6.1193,6.1672,6.1898,6.2048,6.2048,6.3139,6.5193,6.6716,6.8037,3.8574,3.8574,3.8574,3.8574,3.8574,3.8574,3.8574,3.8633,3.9023,3.9473,3.9922,4.0351,4.0801,4.1152,4.1172,4.1172,4.1172,4.1172,4.1172,4.1172,4.1172,4.1172,4.1172,4.1172,4.1172,4.1426,4.1758,4.207,4.1875,4.1816,4.1797,4.1699,4.1836,4.2148,4.248,4.2695,4.2891,4.3249,4.4013,4.4538,4.5067,4.5617,4.6023,4.6185,4.6266,4.6266,4.6266,4.6266,4.6266,4.6266,4.6266,4.6266,4.6266,4.6266,4.6266,4.6266,4.6266,4.6266,4.6266,4.6266,4.6266,4.6509,4.7453,4.7453,4.7911,4.8432,4.914,5.0006,5.0917,5.1356,5.212,5.3394,5.4243,5.4327,5.4183,5.4063,5.3822,5.3822,5.3822,5.3921,5.4122,5.4644,5.5164,5.5584,5.588,5.6099,5.647,5.6947,5.7424,5.8052,5.8579,5.888,5.9207,5.9307,5.9433,5.9458,5.9483,5.9508,5.9508,5.9508,5.9508,5.9508,5.9508,5.974,6.0048,6.0813,6.1672,6.1973,6.2048,6.2048,6.2074,6.3139,6.423,6.5753,6.7478,3.8574,3.8574,3.8574,3.8574,3.8574,3.8574,3.8574,3.8691,3.9219,3.9648,3.9941,4.0547,4.0918,4.1133,4.1172,4.1172,4.1172,4.1172,4.1172,4.1172,4.1172,4.1172,4.1172,4.1191,4.1289,4.1601,4.1973,4.2266,4.209,4.2031,4.2012,4.1816,4.2031,4.2558,4.2949,4.3164,4.3281,4.3664,4.4129,4.4596,4.5025,4.5454,4.5779,4.6023,4.6104,4.6185,4.6266,4.6266,4.6266,4.6266,4.6266,4.6266,4.6266,4.6266,4.6266,4.6266,4.6266,4.6266,4.6266,4.6266,4.6266,4.6509,4.6972,4.6891,4.7432,4.8172,4.8916,4.9816,5.0568,5.1299,5.2293,5.3105,5.3489,5.3846,5.3846,5.3846,5.3822,5.3822,5.3846,5.3846,5.4195,5.4567,5.5014,5.5435,5.5757,5.6074,5.6269,5.6445,5.6872,5.7349,5.7901,5.8328,5.878,5.9106,5.9257,5.9408,5.9458,5.9483,5.9508,5.9508,5.9508,5.956,5.956,5.9869,6.0278,6.0965,6.1672,6.1898,6.2048,6.2048,6.2048,6.2505,6.3442,6.4634,6.6413,3.8574,3.8574,3.8574,3.8574,3.8574,3.8574,3.8613,3.873,3.9512,3.9883,4.0059,4.0781,4.1133,4.1172,4.1172,4.1172,4.1172,4.1172,4.1172,4.1172,4.1172,4.1172,4.1172,4.1191,4.1367,4.1777,4.2168,4.2441,4.2461,4.2305,4.2051,4.1933,4.2578,4.3066,4.3223,4.3476,4.3574,4.3696,4.3982,4.437,4.4616,4.4882,4.5229,4.5637,4.5861,4.5942,4.6185,4.6266,4.6266,4.6266,4.6266,4.6266,4.6266,4.6266,4.6266,4.6266,4.6266,4.6266,4.6266,4.6266,4.6266,4.6266,4.6347,4.6428,4.7052,4.8071,4.8951,4.9897,5.0743,5.1747,5.2735,5.3314,5.372,5.3822,5.3822,5.3822,5.3822,5.3822,5.3822,5.387,5.4018,5.449,5.5236,5.5633,5.5807,5.6124,5.6219,5.6269,5.642,5.6821,5.7349,5.7851,5.8278,5.8755,5.9131,5.9282,5.9382,5.9433,5.9483,5.9508,5.9508,5.956,5.9637,6.0022,6.0508,6.0889,6.142,6.1747,6.2048,6.2048,6.2048,6.2048,6.2707,6.3873,6.5625,3.8574,3.8574,3.8574,3.8574,3.8574,3.8574,3.8769,3.9082,3.9629,3.9902,4.0059,4.0742,4.1172,4.1172,4.1172,4.1172,4.1172,4.1172,4.1172,4.1172,4.1172,4.1172,4.1172,4.1191,4.1445,4.1816,4.2207,4.2598,4.2695,4.2441,4.2324,4.2715,4.3105,4.3242,4.3476,4.3691,4.3691,4.3711,4.3876,4.4123,4.437,4.5046,4.5617,4.5779,4.5861,4.6104,4.6266,4.6266,4.6266,4.6266,4.6266,4.6266,4.6266,4.6266,4.6266,4.6266,4.6266,4.6266,4.6266,4.6266,4.6266,4.6266,4.6266,4.6266,4.6811,4.7991,4.9079,5.0176,5.1262,5.226,5.3044,5.3521,5.3822,5.3822,5.3822,5.3822,5.3822,5.3822,5.3822,5.3894,5.3966,5.4488,5.5234,5.5682,5.5906,5.6053,5.6148,5.6244,5.6244,5.652,5.7047,5.7549,5.7851,5.8303,5.8755,5.9182,5.9332,5.9433,5.9483,5.9508,5.9508,5.956,5.9637,6.0278,6.0737,6.1117,6.142,6.1823,6.2048,6.2048,6.2048,6.2048,6.2404,6.3367,6.5166,3.8574,3.8594,3.8769,3.8848,3.8887,3.9062,3.9297,3.957,3.998,4.0176,4.0254,4.084,4.1172,4.1172,4.1172,4.1172,4.1172,4.1172,4.1172,4.1172,4.1172,4.1172,4.1172,4.1211,4.166,4.2012,4.248,4.2832,4.2969,4.2793,4.2754,4.3086,4.3223,4.3457,4.3691,4.3691,4.3691,4.3691,4.3691,4.3856,4.4205,4.478,4.5209,4.5454,4.5779,4.6023,4.6266,4.6266,4.6266,4.6266,4.6266,4.6266,4.6266,4.6266,4.6266,4.6266,4.6266,4.6266,4.6266,4.6266,4.6266,4.6266,4.6347,4.6347,4.7512,4.8626,4.9393,5.0465,5.2183,5.3271,5.3446,5.3747,5.3822,5.3822,5.3822,5.3822,5.3822,5.3822,5.3822,5.3846,5.4066,5.456,5.5306,5.5975,5.6103,5.6201,5.6246,5.6344,5.6319,5.6219,5.6771,5.7273,5.7625,5.7901,5.8303,5.8855,5.9332,5.9408,5.9483,5.9508,5.9508,5.9508,5.9714,6.0355,6.0813,6.1117,6.1495,6.1898,6.2048,6.2048,6.2048,6.2048,6.2505,6.3037,6.4762,3.8613,3.8711,3.9121,3.9297,3.9336,3.9707,3.9922,4.0019,4.0351,4.0547,4.0625,4.0996,4.1152,4.1172,4.1172,4.1172,4.1172,4.1172,4.1172,4.1172,4.1172,4.1269,4.1308,4.1328,4.1855,4.2363,4.2832,4.3047,4.3203,4.3008,4.2969,4.3183,4.3437,4.3691,4.3691,4.3691,4.3691,4.3691,4.3691,4.3691,4.3958,4.4205,4.4718,4.5127,4.5474,4.5942,4.6185,4.6266,4.6266,4.6266,4.6266,4.6266,4.6266,4.6266,4.6266,4.6266,4.6266,4.6266,4.6266,4.6266,4.6266,4.6347,4.6428,4.7052,4.823,4.9236,4.9998,5.1162,5.2816,5.3672,5.3747,5.3822,5.3822,5.3822,5.3822,5.3822,5.3822,5.3822,5.3822,5.3822,5.4141,5.456,5.5226,5.5996,5.6251,5.6325,5.6445,5.647,5.647,5.6319,5.6495,5.7022,5.7474,5.775,5.8102,5.8579,5.9232,5.9433,5.9508,5.9508,5.9508,5.9508,5.9817,6.0431,6.0889,6.1193,6.1571,6.1973,6.2048,6.2048,6.2048,6.2048,6.2303,6.3037,6.4432,3.8769,3.9121,3.957,3.9766,3.9785,3.9883,4.0078,4.0391,4.0488,4.0703,4.0976,4.1074,4.1172,4.1172,4.1172,4.1172,4.1172,4.1172,4.1172,4.1172,4.125,4.1426,4.1621,4.1758,4.2246,4.2695,4.3086,4.3262,4.3437,4.3262,4.3281,4.3594,4.3613,4.373,4.373,4.3711,4.3691,4.3691,4.3711,4.3711,4.3958,4.437,4.48,4.5291,4.5779,4.6104,4.6266,4.6266,4.6266,4.6266,4.6266,4.6266,4.6266,4.6266,4.6266,4.6266,4.6266,4.6266,4.6266,4.6266,4.6266,4.6428,4.673,4.7773,4.9022,5.041,5.1108,5.1801,5.3044,5.3672,5.3822,5.3822,5.3822,5.3822,5.3822,5.3822,5.3822,5.3822,5.3822,5.3822,5.387,5.4437,5.5054,5.5651,5.6052,5.6228,5.6597,5.6622,5.6771,5.6545,5.6344,5.6771,5.7323,5.7976,5.8504,5.8604,5.9081,5.9307,5.9508,5.9508,5.9508,5.9508,5.9894,6.0508,6.0813,6.1041,6.1495,6.2048,6.2048,6.2048,6.2048,6.2074,6.2276,6.2936,6.4304]}]]